[[{"header":{"parameterUnit":"m.s-1","parameterCategory":1,"la1":30.6,"la2":29.2853,"lo1":-89.7004,"lo2":-87.6739,"dy":0.0162,"dx":0.0183,"nx":112,"ny":82,"refTime":"2025-05-16T00:00:00:Z","depth":0,"parameterNumber":2,"parameterNumberName":"U-component_of_WINDS"},"data":[0.0,0.0,0.0,0.0,0.0,0.0,0.0,0.0,0.0,0.0,0.0,0.0,0.0,0.0,0.0,0.0,0.0,0.0,0.0,0.0,0.0,0.0,0.0,0.0,0.0,0.0,0.0,0.0,0.0,0.0,0.0,0.0,0.0,0.0,0.0,0.0,0.0,0.0,0.0,0.0,0.0,0.0,0.0,0.0,0.0,0.0,0.0,0.0,0.0,0.0,0.0,0.0,0.0,0.0,0.0,0.0,0.0,0.0,0.0,0.0,0.0,0.0,0.0,0.0,0.0,0.0,0.0,0.0,0.0,0.0,0.0,0.0,0.0,0.0,0.0,0.0,0.0,0.0,0.0,0.0,0.0,0.0,0.0,0.0,0.0,0.0,0.0,0.0,0.0,0.0,0.0,-2.8829,-3.3544,-3.6335,-3.6281,-3.4824,-3.1201,-2.4775,0.0,0.0,0.0,0.0,0.0,0.0,0.0,0.0,0.0,0.0,0.0,0.0,0.0,0.0,0.0,0.0,0.0,0.0,0.0,0.0,0.0,0.0,0.0,0.0,0.0,0.0,0.0,0.0,0.0,0.0,0.0,0.0,0.0,0.0,0.0,0.0,0.0,0.0,0.0,0.0,0.0,0.0,0.0,0.0,0.0,0.0,0.0,0.0,0.0,0.0,0.0,0.0,0.0,0.0,0.0,0.0,0.0,0.0,0.0,0.0,0.0,0.0,0.0,0.0,0.0,0.0,0.0,0.0,0.0,0.0,0.0,0.0,0.0,0.0,0.0,0.0,0.0,0.0,0.0,0.0,0.0,0.0,0.0,0.0,0.0,0.0,0.0,0.0,0.0,0.0,0.0,0.0,0.0,0.0,0.0,0.0,0.0,0.0,0.0,0.0,0.0,0.0,0.0,0.0,-2.1982,-3.1034,-3.4556,-3.5998,-3.5441,-3.3935,-3.0772,-2.5557,0.0,0.0,0.0,0.0,0.0,0.0,0.0,0.0,0.0,0.0,0.0,0.0,0.0,0.0,0.0,0.0,0.0,0.0,0.0,0.0,0.0,0.0,0.0,0.0,0.0,0.0,0.0,0.0,0.0,0.0,0.0,0.0,0.0,0.0,0.0,0.0,0.0,0.0,0.0,0.0,0.0,0.0,0.0,0.0,0.0,0.0,0.0,0.0,0.0,0.0,0.0,0.0,0.0,0.0,0.0,0.0,0.0,0.0,0.0,0.0,0.0,0.0,0.0,0.0,0.0,0.0,0.0,0.0,0.0,0.0,0.0,0.0,0.0,0.0,0.0,0.0,0.0,0.0,0.0,0.0,0.0,0.0,0.0,0.0,0.0,0.0,0.0,0.0,0.0,0.0,0.0,0.0,0.0,0.0,0.0,0.0,0.0,0.0,0.0,0.0,0.0,0.0,0.0,-2.0585,-2.455,-3.2353,-3.4595,-3.54,-3.5179,-3.3691,-3.0491,-2.5043,-2.1944,0.0,0.0,0.0,0.0,0.0,0.0,0.0,0.0,0.0,0.0,0.0,0.0,0.0,0.0,0.0,0.0,0.0,0.0,0.0,0.0,0.0,0.0,0.0,0.0,0.0,0.0,0.0,0.0,0.0,0.0,0.0,0.0,0.0,0.0,0.0,0.0,0.0,0.0,0.0,0.0,0.0,0.0,0.0,0.0,0.0,0.0,0.0,0.0,0.0,0.0,0.0,0.0,0.0,0.0,0.0,0.0,0.0,0.0,0.0,0.0,0.0,0.0,0.0,0.0,0.0,0.0,0.0,0.0,0.0,0.0,0.0,0.0,0.0,0.0,0.0,0.0,0.0,0.0,0.0,0.0,0.0,0.0,0.0,0.0,0.0,0.0,0.0,0.0,0.0,0.0,0.0,0.0,0.0,0.0,0.0,0.0,0.0,0.0,0.0,0.0,0.0,0.0,-2.4594,-2.8039,-3.2934,-3.4348,-3.5001,-3.5077,-3.2955,-2.9457,-2.4412,-2.0256,0.0,0.0,0.0,0.0,0.0,0.0,0.0,0.0,0.0,0.0,0.0,0.0,0.0,0.0,0.0,0.0,0.0,0.0,0.0,0.0,0.0,0.0,0.0,0.0,0.0,0.0,0.0,0.0,0.0,0.0,0.0,0.0,0.0,0.0,0.0,0.0,0.0,0.0,0.0,0.0,0.0,0.0,0.0,0.0,0.0,0.0,0.0,0.0,0.0,0.0,0.0,0.0,0.0,0.0,0.0,0.0,0.0,0.0,0.0,0.0,0.0,0.0,0.0,0.0,0.0,0.0,0.0,0.0,0.0,0.0,0.0,0.0,0.0,0.0,0.0,0.0,0.0,0.0,0.0,0.0,0.0,0.0,0.0,0.0,0.0,0.0,0.0,0.0,0.0,0.0,0.0,0.0,0.0,0.0,0.0,0.0,0.0,0.0,0.0,0.0,0.0,0.0,-2.5034,-3.0647,-3.2496,-3.412,-3.5069,-3.5115,-3.0829,-2.6983,-2.4261,-1.8017,0.0,0.0,0.0,0.0,0.0,0.0,0.0,0.0,0.0,0.0,0.0,0.0,0.0,0.0,0.0,0.0,0.0,0.0,0.0,0.0,0.0,0.0,0.0,0.0,0.0,0.0,0.0,0.0,0.0,0.0,0.0,0.0,0.0,0.0,0.0,0.0,0.0,0.0,0.0,0.0,0.0,0.0,0.0,0.0,0.0,0.0,0.0,0.0,0.0,0.0,0.0,0.0,0.0,0.0,0.0,0.0,0.0,0.0,0.0,0.0,0.0,0.0,0.0,0.0,0.0,0.0,0.0,0.0,0.0,0.0,0.0,0.0,0.0,0.0,0.0,0.0,0.0,0.0,0.0,0.0,0.0,0.0,0.0,0.0,0.0,0.0,0.0,0.0,0.0,0.0,0.0,0.0,0.0,0.0,0.0,0.0,0.0,0.0,0.0,0.0,0.0,0.0,-2.3261,-2.8568,0.0,-3.4065,-3.5037,-3.5037,-3.2485,-2.8685,-2.3539,0.0,0.0,0.0,0.0,0.0,0.0,0.0,0.0,0.0,0.0,0.0,0.0,0.0,0.0,0.0,0.0,0.0,0.0,0.0,0.0,0.0,0.0,0.0,0.0,0.0,0.0,0.0,0.0,0.0,0.0,0.0,0.0,0.0,0.0,0.0,0.0,0.0,0.0,0.0,0.0,0.0,0.0,0.0,0.0,0.0,0.0,0.0,0.0,0.0,0.0,0.0,0.0,0.0,0.0,0.0,0.0,0.0,0.0,0.0,0.0,0.0,0.0,0.0,0.0,0.0,0.0,0.0,0.0,0.0,0.0,0.0,0.0,0.0,0.0,0.0,0.0,0.0,0.0,0.0,0.0,0.0,0.0,0.0,0.0,0.0,0.0,0.0,0.0,0.0,0.0,0.0,0.0,0.0,0.0,0.0,0.0,0.0,0.0,0.0,0.0,0.0,0.0,-1.7507,-2.3088,-2.8357,0.0,-3.4039,-3.4982,-3.4982,-3.2561,-2.8651,-2.3069,0.0,0.0,0.0,0.0,0.0,0.0,0.0,0.0,0.0,0.0,0.0,0.0,0.0,0.0,0.0,0.0,0.0,0.0,0.0,0.0,0.0,0.0,0.0,0.0,0.0,0.0,0.0,0.0,0.0,0.0,0.0,0.0,0.0,0.0,0.0,0.0,0.0,0.0,0.0,0.0,0.0,0.0,0.0,0.0,0.0,0.0,0.0,0.0,0.0,0.0,0.0,0.0,0.0,0.0,0.0,0.0,0.0,0.0,0.0,0.0,0.0,0.0,0.0,0.0,0.0,0.0,0.0,0.0,0.0,0.0,0.0,0.0,0.0,0.0,0.0,0.0,0.0,0.0,0.0,0.0,0.0,0.0,0.0,0.0,0.0,0.0,0.0,0.0,0.0,0.0,0.0,0.0,0.0,0.0,0.0,0.0,0.0,0.0,0.0,0.0,0.0,0.0,-1.7481,-2.5067,-3.0874,-3.2416,-3.4039,-3.4982,-3.4982,-3.0403,-2.6144,0.0,0.0,0.0,0.0,0.0,0.0,0.0,0.0,0.0,0.0,0.0,0.0,0.0,0.0,0.0,0.0,0.0,0.0,0.0,0.0,0.0,0.0,0.0,0.0,0.0,0.0,0.0,0.0,0.0,0.0,0.0,0.0,0.0,0.0,0.0,0.0,0.0,0.0,0.0,0.0,0.0,0.0,0.0,0.0,0.0,0.0,0.0,0.0,0.0,0.0,0.0,0.0,0.0,0.0,0.0,0.0,0.0,0.0,0.0,0.0,0.0,0.0,0.0,0.0,0.0,0.0,0.0,0.0,0.0,0.0,0.0,0.0,0.0,0.0,0.0,0.0,0.0,0.0,0.0,0.0,0.0,0.0,0.0,0.0,0.0,0.0,0.0,0.0,0.0,0.0,0.0,0.0,0.0,0.0,0.0,0.0,0.0,0.0,0.0,0.0,0.0,0.0,0.0,-1.7542,-2.5086,-3.0668,-3.1584,-3.3118,-3.3807,-3.3138,-3.1284,-2.8007,-2.2968,0.0,0.0,0.0,0.0,0.0,0.0,0.0,0.0,0.0,0.0,0.0,0.0,0.0,0.0,0.0,0.0,0.0,0.0,0.0,0.0,0.0,0.0,0.0,0.0,0.0,0.0,0.0,0.0,0.0,0.0,0.0,0.0,0.0,0.0,0.0,0.0,0.0,0.0,0.0,0.0,0.0,0.0,0.0,0.0,0.0,0.0,0.0,0.0,0.0,0.0,0.0,0.0,0.0,0.0,0.0,0.0,0.0,0.0,0.0,0.0,0.0,0.0,0.0,0.0,0.0,0.0,0.0,0.0,0.0,0.0,0.0,0.0,0.0,0.0,0.0,0.0,0.0,0.0,0.0,0.0,0.0,0.0,0.0,0.0,0.0,0.0,0.0,0.0,0.0,0.0,0.0,0.0,0.0,0.0,0.0,0.0,0.0,0.0,0.0,0.0,0.0,0.0,-1.8077,-2.4985,-3.0133,-3.114,-3.2322,-3.2845,-3.2355,-3.1593,-2.9003,-2.3917,0.0,0.0,0.0,0.0,0.0,0.0,0.0,0.0,0.0,0.0,0.0,0.0,0.0,0.0,0.0,0.0,0.0,0.0,0.0,0.0,0.0,0.0,0.0,0.0,0.0,0.0,0.0,0.0,0.0,0.0,0.0,0.0,0.0,0.0,0.0,0.0,0.0,0.0,0.0,0.0,0.0,0.0,0.0,0.0,0.0,0.0,0.0,0.0,0.0,0.0,0.0,0.0,0.0,0.0,0.0,0.0,0.0,0.0,0.0,0.0,0.0,0.0,0.0,0.0,0.0,0.0,0.0,0.0,0.0,0.0,0.0,0.0,0.0,0.0,0.0,0.0,0.0,0.0,0.0,0.0,0.0,0.0,0.0,0.0,0.0,0.0,0.0,0.0,0.0,0.0,0.0,0.0,0.0,0.0,0.0,0.0,0.0,0.0,0.0,0.0,0.0,0.0,-1.8978,-2.4845,-2.9536,-3.0928,-3.1619,-3.2032,-3.2128,-3.1383,-2.9312,-2.5547,0.0,0.0,0.0,0.0,0.0,0.0,0.0,0.0,0.0,0.0,0.0,0.0,0.0,0.0,0.0,0.0,0.0,0.0,0.0,0.0,0.0,0.0,0.0,0.0,0.0,0.0,0.0,0.0,0.0,0.0,0.0,0.0,0.0,0.0,0.0,0.0,0.0,0.0,0.0,0.0,0.0,0.0,0.0,0.0,0.0,0.0,0.0,0.0,0.0,0.0,0.0,0.0,0.0,0.0,0.0,0.0,0.0,0.0,0.0,0.0,-4.2135,0.0,0.0,0.0,0.0,0.0,0.0,0.0,0.0,0.0,0.0,0.0,0.0,0.0,0.0,0.0,0.0,0.0,0.0,0.0,0.0,0.0,0.0,0.0,0.0,0.0,0.0,0.0,0.0,0.0,0.0,0.0,0.0,0.0,0.0,0.0,0.0,0.0,0.0,0.0,0.0,0.0,-1.9678,-2.547,-2.9717,-3.006,-3.0716,-3.1109,-3.1049,-3.0498,-2.9207,-2.703,0.0,0.0,0.0,0.0,0.0,0.0,0.0,0.0,0.0,0.0,0.0,0.0,0.0,0.0,0.0,0.0,0.0,0.0,0.0,0.0,0.0,0.0,0.0,0.0,0.0,0.0,0.0,0.0,0.0,0.0,0.0,0.0,0.0,0.0,0.0,0.0,0.0,0.0,0.0,0.0,0.0,0.0,0.0,0.0,0.0,0.0,0.0,0.0,0.0,0.0,0.0,0.0,0.0,0.0,0.0,0.0,0.0,0.0,0.0,0.0,0.0,-4.3522,0.0,0.0,0.0,0.0,0.0,0.0,0.0,0.0,0.0,0.0,0.0,0.0,0.0,0.0,0.0,0.0,0.0,0.0,0.0,0.0,0.0,0.0,0.0,0.0,0.0,0.0,0.0,0.0,0.0,0.0,0.0,0.0,0.0,0.0,0.0,0.0,0.0,0.0,0.0,0.0,-2.0893,-2.5846,-2.9355,-2.9708,-3.003,-3.0215,-3.0119,-2.988,-2.9225,-2.8062,-2.6039,0.0,0.0,0.0,0.0,0.0,0.0,0.0,0.0,0.0,0.0,0.0,0.0,0.0,0.0,0.0,0.0,0.0,0.0,0.0,0.0,0.0,0.0,0.0,0.0,0.0,0.0,0.0,0.0,0.0,0.0,0.0,0.0,0.0,0.0,0.0,0.0,0.0,0.0,0.0,0.0,0.0,0.0,0.0,0.0,0.0,0.0,0.0,0.0,0.0,0.0,0.0,0.0,0.0,0.0,-4.8243,-4.8984,-4.9426,-5.0053,-5.067,-4.8217,-4.7297,-4.7242,0.0,0.0,0.0,0.0,0.0,0.0,0.0,0.0,0.0,0.0,0.0,0.0,0.0,0.0,0.0,0.0,0.0,0.0,0.0,0.0,0.0,0.0,0.0,0.0,0.0,-3.4381,-3.3185,0.0,0.0,0.0,0.0,0.0,0.0,0.0,0.0,0.0,0.0,0.0,0.0,-2.2643,-2.6359,-2.9019,-2.9636,-2.955,-2.9499,-2.9638,-2.9536,-2.927,-2.8931,-2.7407,-2.6246,0.0,0.0,0.0,0.0,0.0,0.0,0.0,0.0,0.0,0.0,0.0,0.0,0.0,0.0,0.0,0.0,0.0,0.0,0.0,0.0,0.0,0.0,0.0,0.0,0.0,0.0,0.0,0.0,0.0,0.0,0.0,0.0,-3.1322,-3.2447,0.0,0.0,0.0,0.0,0.0,0.0,0.0,0.0,0.0,0.0,0.0,0.0,0.0,0.0,-4.4688,-4.691,-4.8394,-4.907,-5.0727,-5.1811,-5.244,-5.2536,-5.2956,-5.3601,-5.2288,0.0,-4.8292,-4.5332,0.0,0.0,0.0,0.0,0.0,0.0,0.0,0.0,0.0,0.0,0.0,0.0,0.0,0.0,0.0,0.0,0.0,0.0,0.0,0.0,0.0,0.0,-3.9705,-4.0008,-3.9064,-3.7917,0.0,-3.158,-2.5936,-2.2868,0.0,0.0,0.0,0.0,0.0,0.0,0.0,0.0,-2.5175,-2.7815,-2.9514,-2.9664,-2.9421,-2.9518,-3.0153,-2.9613,-2.9493,-3.0129,-2.8849,-2.8106,-2.8116,-2.6676,0.0,0.0,0.0,0.0,0.0,0.0,0.0,0.0,0.0,0.0,0.0,0.0,0.0,0.0,0.0,0.0,0.0,0.0,0.0,0.0,0.0,0.0,0.0,0.0,0.0,0.0,0.0,0.0,0.0,-2.9441,-3.1806,-3.2718,-3.4096,-3.5149,0.0,0.0,0.0,0.0,0.0,0.0,0.0,0.0,0.0,-4.4189,-4.4587,-4.5715,-4.7694,-4.8897,-5.0044,-5.1118,-5.2356,-5.3081,-5.3343,-5.3801,-5.4134,-5.4371,-5.429,-5.3551,-5.2122,-4.8439,-4.6338,-4.5139,0.0,0.0,0.0,0.0,0.0,-3.9705,-4.1707,0.0,0.0,0.0,0.0,0.0,0.0,0.0,0.0,0.0,0.0,0.0,0.0,0.0,0.0,-4.2386,-4.1369,-4.0327,-4.068,-3.7058,-3.2578,0.0,-2.7759,-2.6157,-2.1309,0.0,0.0,0.0,0.0,0.0,-2.7156,-2.8705,-2.9655,-2.9589,-2.9328,-2.9248,-2.9475,-2.8846,-2.8776,-2.9617,-2.8855,-2.8612,-2.9175,-2.8168,-2.7279,0.0,0.0,0.0,0.0,0.0,0.0,0.0,0.0,0.0,0.0,0.0,0.0,0.0,0.0,0.0,0.0,0.0,0.0,0.0,0.0,0.0,0.0,0.0,0.0,0.0,0.0,0.0,0.0,-3.0235,-3.264,-3.3848,-3.5355,-3.6568,0.0,0.0,0.0,0.0,0.0,0.0,-4.3455,-4.3453,-4.4414,-4.6683,-4.7202,-4.8236,-4.9946,-5.0671,-5.1681,-5.2975,-5.3581,-5.3982,-5.4209,-5.4563,-5.4673,-5.4608,-5.5303,-5.539,-5.478,-5.1175,-4.9695,-4.9473,-4.7161,-4.579,-4.528,-4.6145,-4.5095,-4.3625,-4.6224,-4.5888,-4.424,-4.3944,0.0,-3.9857,-3.7603,0.0,0.0,0.0,0.0,-3.9007,-4.0583,0.0,-4.2519,-4.3713,-4.275,-4.1737,-4.2214,-4.0515,-3.7602,0.0,-3.3269,-3.2226,-2.6643,0.0,0.0,0.0,0.0,-2.7867,-2.9326,-2.9812,-2.9973,-2.983,-2.9333,-2.8915,-2.8834,-2.8286,-2.8125,-2.8628,-2.8369,-2.8437,-2.8997,-2.8785,-2.8381,-2.7782,0.0,0.0,0.0,0.0,0.0,0.0,0.0,0.0,0.0,0.0,0.0,0.0,0.0,0.0,0.0,0.0,0.0,0.0,0.0,0.0,0.0,0.0,0.0,0.0,0.0,0.0,0.0,0.0,0.0,-3.6419,-3.7517,0.0,0.0,0.0,0.0,-4.2326,-4.3134,-4.4334,-4.6092,-4.6121,-4.6587,-4.7701,-4.916,-4.9962,-5.0076,-5.242,-5.4022,-5.4754,-5.4791,-5.5246,-5.6057,-5.517,-5.4783,-5.4805,-5.5354,-5.516,-5.4337,-5.2957,-5.2382,-5.2252,-5.0562,-4.948,-4.8915,-4.9735,-4.9057,-4.7703,-4.7718,-4.7432,-4.7099,-4.7796,-4.645,-4.4282,-4.2633,-4.0945,0.0,0.0,-4.087,-4.2278,-4.3354,-4.4166,-4.4724,-4.4838,-4.3549,-4.2337,-4.2401,-4.0957,-3.8875,0.0,-3.5247,-3.397,-3.1218,0.0,-3.0924,-3.0763,-3.0856,-3.1244,-3.2088,-3.1393,-3.0809,-3.0662,-2.9446,-2.8615,-2.8625,-2.8409,-2.806,-2.7538,-2.775,-2.7692,-2.7158,-2.8029,-2.847,-2.8466,-2.6865,0.0,0.0,0.0,0.0,0.0,0.0,0.0,0.0,0.0,0.0,0.0,0.0,0.0,0.0,0.0,0.0,0.0,0.0,0.0,0.0,0.0,0.0,0.0,0.0,0.0,0.0,0.0,0.0,-3.7611,-3.9044,0.0,0.0,-4.2487,-4.3519,-4.4908,-4.5258,-4.6159,-4.7931,-4.7995,-4.8641,-5.0135,-5.0709,-5.1485,-5.2458,-5.386,-5.4956,-5.5754,-5.5776,-5.5943,-5.6208,-5.5344,-5.4912,-5.4935,-5.5583,-5.5675,-5.5379,-5.477,-5.4499,-5.4352,-5.3232,-5.2666,-5.249,-5.219,-5.1337,-5.0243,-4.9791,-4.9508,-4.922,-4.8129,-4.6859,-4.5533,-4.4417,-4.3623,-4.3133,-4.3247,-4.3677,-4.4186,-4.4536,-4.4829,-4.5022,-4.4938,-4.4042,-4.3095,-4.2515,-4.1507,-4.0072,-3.8115,-3.6992,-3.5413,-3.2437,-3.2353,-3.2533,-3.2039,-3.1963,-3.2257,-3.3146,-3.1864,-3.0817,-3.057,-2.9843,-2.9106,-2.8455,-2.7821,-2.7186,-2.6463,-2.5808,-2.5621,-2.6033,-2.654,-2.7056,-2.7518,-2.6932,-2.5078,0.0,0.0,0.0,0.0,0.0,0.0,0.0,0.0,0.0,0.0,0.0,0.0,0.0,0.0,0.0,0.0,0.0,0.0,0.0,0.0,0.0,0.0,0.0,0.0,0.0,0.0,-3.7892,-3.8982,-4.0361,-4.1822,-4.3343,-4.4529,-4.5764,-4.7129,-4.7486,-4.8134,-4.9264,-4.9593,-5.0303,-5.1446,-5.2298,-5.3198,-5.4244,-5.5274,-5.6216,-5.7043,-5.6801,-5.6816,-5.7097,-5.6208,-5.5791,-5.5867,-5.6526,-5.6705,-5.6478,-5.6547,-5.6593,-5.65,-5.55,-5.4978,-5.4712,-5.4412,-5.3317,-5.1815,-5.0854,-5.0392,-4.9972,-4.8672,-4.7491,-4.6518,-4.5949,-4.5368,-4.4938,-4.5045,-4.5091,-4.5091,-4.5057,-4.5068,-4.5068,-4.4914,-4.4258,-4.3474,-4.2602,-4.1734,-4.0651,-3.9001,-3.7932,-3.648,-3.4093,-3.3828,-3.3809,-3.3307,-3.326,-3.3364,-3.3657,-3.2289,-3.1219,-3.0916,-3.021,-2.9462,-2.8757,-2.8051,-2.725,-2.6313,-2.5262,-2.4908,-2.5387,-2.557,-2.594,-2.6367,-2.6267,-2.4914,-2.229,0.0,0.0,0.0,0.0,0.0,0.0,0.0,0.0,0.0,0.0,0.0,0.0,0.0,0.0,0.0,0.0,0.0,0.0,0.0,0.0,0.0,0.0,0.0,-3.7012,-3.8309,-3.9739,-4.0649,-4.1582,-4.2763,-4.4329,-4.6058,-4.7615,-4.8957,-4.9824,-5.0236,-5.0127,-5.0989,-5.1522,-5.1522,-5.3846,-5.5137,-5.5137,-5.6664,-5.7892,-5.8688,-5.7854,-5.7892,-5.8688,-5.7801,-5.7384,-5.746,-5.8175,-5.8078,-5.7475,-5.8175,-5.8581,-5.8653,-5.7397,-5.6363,-5.5637,-5.6404,-5.4967,-5.2435,-5.0994,-4.9985,-4.9393,-4.9648,-4.8658,-4.7416,-4.7378,-4.6241,-4.4964,-4.5036,-4.5057,-4.508,-4.495,-4.501,-4.5057,-4.4865,-4.4259,-4.3474,-4.2602,-4.1664,-4.0559,-3.9029,-3.8026,-3.7192,-3.6358,-3.5476,-3.4908,-3.4908,-3.4908,0.0,-3.3809,-3.2741,-3.2006,-3.1723,-3.0441,-2.9562,-2.9532,-2.9136,-2.8311,-2.7019,-2.618,-2.5566,-2.5193,-2.5236,-2.5256,-2.5257,-2.4985,-2.4454,-2.3634,0.0,0.0,0.0,0.0,0.0,0.0,0.0,0.0,0.0,0.0,0.0,0.0,0.0,0.0,0.0,0.0,0.0,0.0,0.0,0.0,0.0,0.0,-3.9745,-3.889,-4.0172,-4.1338,-4.1686,-4.3021,-4.4516,-4.6064,-4.7756,-4.9047,-4.9816,-5.0109,-5.0188,-5.0089,-5.0989,-5.1739,-5.2297,-5.419,-5.5434,-5.6026,-5.7597,-5.8539,-5.8767,-5.8539,-5.8539,-5.8729,-5.7856,-5.7506,-5.7551,-5.7704,-5.7749,-5.7677,-5.7734,-5.7818,-5.7833,-5.7434,-5.7008,-5.661,-5.6203,-5.4251,-5.1894,-5.2183,-5.0621,-4.8618,-4.9489,-4.8672,-4.7363,-4.7403,-4.6657,-4.5836,-4.591,-4.5551,-4.5091,-4.501,-4.5045,-4.5068,-4.4926,-4.4221,-4.3388,-4.259,-4.1711,-4.0768,-3.9775,-3.8925,-3.7874,-3.6472,-3.5476,-3.4908,-3.4908,0.0,0.0,-3.3809,-3.2741,-3.2006,-3.1723,-3.0478,-2.9827,-3.0198,-2.8974,-2.7493,0.0,-2.4764,-2.4358,-2.4751,-2.4501,-2.511,-2.6693,-2.6361,-2.6317,0.0,0.0,0.0,0.0,0.0,0.0,0.0,0.0,0.0,0.0,0.0,0.0,0.0,0.0,0.0,0.0,0.0,0.0,0.0,0.0,0.0,0.0,-4.1013,-4.227,-4.1749,-4.2138,-4.2518,-4.2595,-4.4079,-4.5549,-4.6763,-4.8712,-4.9963,-5.0174,-5.0519,-5.052,-5.0127,-5.1332,-5.2234,-5.2615,-5.5032,-5.6521,-5.6958,-5.8517,-5.9292,-5.9292,-5.926,-5.9276,-5.9338,-5.8806,-5.8652,0.0,-5.9063,-5.9054,-5.8887,-5.9086,-5.8707,0.0,0.0,0.0,0.0,0.0,-5.3716,-5.21,-5.2691,-5.1262,-4.9309,-4.9973,-4.8881,-4.7311,-4.7363,-4.6556,-4.5672,-4.5684,-4.5402,-4.508,-4.4962,-4.5022,-4.5068,-4.4914,-4.4209,-4.3376,-4.2579,-4.1722,-4.0867,-4.0079,0.0,0.0,-3.6904,-3.5987,-3.5325,-3.4946,-3.4586,-3.4188,0.0,-3.2382,-3.1549,-3.1561,-3.0465,-2.9742,-2.9917,-2.8974,0.0,0.0,0.0,-2.5572,-2.5961,-2.553,0.0,0.0,0.0,0.0,0.0,0.0,0.0,0.0,-2.9097,-3.0124,0.0,0.0,0.0,0.0,0.0,0.0,0.0,0.0,0.0,0.0,0.0,0.0,0.0,0.0,0.0,0.0,-4.3733,-4.4831,-4.4858,-4.4136,-4.3575,-4.3447,-4.4766,-4.6066,-4.6929,-4.8951,-5.021,-5.0188,-5.085,-5.0964,-5.0266,0.0,0.0,0.0,0.0,-5.7773,-5.7714,-5.917,-5.9931,-6.0029,-5.9966,-5.9998,-6.0099,-6.0114,-6.0203,-6.0346,-6.1077,-6.1,-6.0432,-6.0921,-6.0122,-5.8456,-5.739,-5.638,-5.5357,-5.4168,-5.3219,0.0,0.0,0.0,0.0,-5.0845,-4.9347,-4.7421,-4.7411,-4.6328,-4.5003,-4.4953,-4.5038,-4.5057,-4.4865,-4.4962,-4.5019,-4.4739,-4.402,-4.3213,-4.2427,-4.1559,-4.0742,-4.0041,-3.9256,-3.8401,-3.7473,-3.6704,-3.5893,-3.4993,-3.4235,0.0,-3.3373,-3.1887,-3.0937,-3.1225,0.0,0.0,-2.9245,-2.908,-2.8668,-2.798,-2.8079,-2.8123,-2.806,-2.7901,-2.8719,-3.0594,-3.1509,-3.2614,-3.3983,-3.6072,-3.6322,-3.4781,-3.2161,-3.2809,0.0,0.0,0.0,0.0,0.0,0.0,0.0,0.0,0.0,0.0,0.0,0.0,0.0,0.0,0.0,-4.2217,-4.4287,-4.5797,-4.5685,-4.5517,-4.5144,-4.4421,-4.5162,-4.6257,-4.7645,-4.812,-4.8797,-4.9962,-5.0177,-5.0519,-5.1038,-5.2882,0.0,-5.3747,-5.5861,-5.7277,-5.7873,-5.8768,-5.9481,-6.0068,0.0,0.0,-6.0099,-6.0194,-6.0332,-6.0453,-6.0575,-6.048,-6.0194,-5.9611,-5.8251,-5.6371,-5.5427,-5.5241,-5.5388,-5.3698,-5.2597,-5.218,-5.3544,-5.2078,-4.9865,-5.1233,-5.0055,-4.8126,-4.8183,-4.7081,0.0,-4.5912,-4.553,-4.5057,-4.4865,-4.4962,-4.4855,-4.397,-4.3114,-4.2258,-4.1498,-4.062,-3.9955,-3.9916,-3.9164,-3.8277,-3.7462,-3.6704,-3.5844,-3.4791,-3.4607,-3.4004,-3.2497,-3.1923,-3.1318,-3.0441,-2.9379,-2.9125,-3.0066,-2.8947,-2.8349,-2.8675,-2.9369,-2.9546,-2.9055,-3.1107,-3.1957,-3.1328,-3.3159,-3.4251,-3.4533,-3.6166,-3.6951,-3.7033,-3.7199,-3.7309,0.0,0.0,0.0,0.0,0.0,0.0,0.0,0.0,0.0,0.0,0.0,-4.0705,-4.1536,0.0,-4.3725,-4.4164,-4.4911,-4.557,-4.5892,-4.5929,-4.5731,-4.5265,-4.5812,-4.6728,-4.7885,-4.8226,-4.8996,-5.0531,-5.1064,-5.1712,-5.2614,-5.4484,-5.5476,-5.5339,-5.7135,-5.8259,-5.8565,-5.9324,-5.9893,-6.0313,-6.0275,-6.0289,-6.037,-6.0401,-6.0533,-6.0635,-6.0493,-6.0155,-5.9536,-5.8015,-5.6797,-5.5718,-5.4392,-5.4029,-5.4135,-5.2761,-5.2051,-5.1932,-5.2755,-5.1703,-5.0065,-5.0541,-4.9333,-4.7573,-4.7236,-4.6363,-4.5521,-4.5546,-4.5314,-4.508,-4.495,-4.4962,-4.4861,-4.4322,-4.3152,-4.2071,-4.173,-4.0637,-3.9595,-3.9271,-3.9112,-3.8516,-3.684,-3.6572,-3.6158,-3.4792,-3.4277,-3.366,-3.2594,-3.1652,-3.078,-2.9977,-2.8995,-2.8649,-2.9212,-2.8834,-2.8926,-2.9742,-3.0123,-3.0674,-3.1402,-3.252,-3.3316,-3.374,-3.4871,-3.5806,-3.6545,-3.7706,-3.8345,-3.8559,-3.994,-4.0067,0.0,0.0,0.0,0.0,0.0,0.0,0.0,0.0,-3.9535,-4.1575,-4.3581,-4.503,-4.5344,-4.5244,-4.5339,-4.5868,-4.5293,-4.5179,-4.6139,-4.6086,-4.5944,-4.6066,-4.6359,-4.6934,-4.7904,-4.8377,-4.9442,-5.1418,-5.2525,-5.3594,-5.4702,-5.6609,-5.7589,-5.7455,-5.8909,-5.9676,-5.9702,-6.0376,-6.0783,-6.0977,-6.0912,-6.0952,-6.1083,-6.0943,-6.0929,-6.0964,-6.0391,-5.9515,-5.8401,-5.6822,-5.6015,-5.5634,-5.4063,-5.3361,-5.313,-5.203,-5.1653,-5.1607,-5.1591,-5.0841,-4.9846,-4.9384,-4.8101,-4.668,-4.6067,-4.5457,-4.4938,-4.4962,-4.5057,-4.5125,-4.5045,-4.4986,-4.49,-4.4662,-4.3341,-4.2059,-4.1958,-4.0765,-3.9498,-3.8841,-3.9046,-3.8662,-3.6616,-3.6494,-3.622,-3.4731,-3.39,-3.3291,-3.2895,-3.1593,-3.0442,-2.9741,-2.9004,-2.8425,-2.8144,-2.8834,-2.9676,-3.0635,-3.068,-3.154,-3.3582,-3.328,-3.4022,-3.602,-3.6289,-3.7071,-3.8451,-3.9226,-3.9676,-3.9905,-4.1442,-4.169,-2.6118,-3.1562,-3.6602,-3.8695,-3.9179,-4.0951,0.0,0.0,-4.6017,-4.9274,-4.9603,-4.8837,-4.7406,-4.654,-4.5825,-4.5166,-4.4968,-4.5457,-4.7012,-4.6533,-4.6241,-4.6958,-4.6252,-4.6319,-4.7778,-4.7747,-4.8998,-5.2195,-5.3973,-5.5668,-5.7456,-5.9341,-6.0299,-6.0176,-6.0479,-6.094,-6.1582,-6.1684,-6.2079,-6.2727,-6.2835,-6.2861,-6.2784,-6.2145,-6.18,-6.1595,-5.9707,-5.7977,-5.6482,-5.6964,-5.6614,-5.571,-5.4748,-5.4292,-5.3971,-5.2428,-5.1458,-5.0883,-5.0857,-4.9324,-4.7507,-4.8084,-4.7207,-4.5933,-4.5903,-4.5483,-4.5022,-4.5136,-4.5213,-4.5235,-4.5125,-4.5091,-4.4843,-4.3894,-4.2863,-4.1933,-4.1218,-4.0352,-3.9637,-3.9498,-3.8876,-3.824,-3.7916,-3.6559,-3.5268,-3.4363,-3.4092,-3.3685,-3.2757,-3.2344,-3.1488,-2.9778,-2.9466,-2.906,-2.8249,-2.8947,-2.9826,-3.065,-3.1179,-3.2156,-3.3704,-3.4217,-3.5029,-3.6238,-3.6875,-3.7655,-3.8583,-3.9266,-4.0158,-4.1213,-4.2313,-4.225,-3.5116,-3.8876,0.0,0.0,-4.6111,-4.7167,-4.9913,-4.9768,-4.961,-5.1574,-5.1673,-5.0938,-4.9181,-4.7415,-4.6095,0.0,-4.5238,-4.5503,-4.7172,-4.7471,-4.7612,-4.794,-4.8346,-4.8641,-4.8712,-4.9449,-5.1065,-5.3964,-5.6308,-5.8387,-6.0188,-6.2016,-6.3206,-6.3617,-6.3617,-6.3744,-6.4036,-6.4531,-6.467,-6.4531,-6.5085,-6.483,-6.3844,-6.3447,-6.238,-6.0675,-5.9307,-5.7977,-5.6829,-5.7185,-5.7052,-5.653,-5.612,-5.557,-5.4683,-5.2057,-5.089,-5.0547,-5.0166,-4.9271,-4.8325,-4.819,-4.7402,-4.644,-4.619,-4.5644,-4.5103,-4.5218,-4.5288,-4.5256,-4.5136,-4.5103,-4.4981,-4.4373,-4.3177,-4.2046,-4.1619,-4.0553,-3.9463,-3.8901,-3.8852,-3.8427,-3.6857,-3.6294,-3.5597,-3.429,-3.4043,-3.3646,-3.2614,-3.2383,-3.1805,-3.0391,-3.0262,-3.0174,-2.9877,-3.057,-3.1168,-3.1477,-3.199,-3.3002,-3.4567,-3.4836,-3.5598,-3.7023,-3.7342,-3.809,-3.9355,-3.9715,-4.0907,-4.2803,-4.3145,-4.3426,-4.0842,0.0,0.0,-4.962,-5.1532,-5.2601,-5.2191,-5.2558,-5.3146,-5.3769,-5.3508,-5.258,-5.0581,-4.801,-4.6197,-4.6189,-4.5464,-4.5663,-4.7812,-4.8414,-4.8854,-4.9511,-5.0279,-5.0794,-5.0798,-5.1732,-5.3283,-5.558,-5.822,-6.0608,-6.2605,-6.4346,-6.5679,-6.6526,-6.6663,-6.6724,-6.6671,-6.7496,-6.7482,-6.6667,-6.7281,-6.6806,-6.536,-6.4762,-6.3078,-6.0659,-5.9732,-5.8856,-5.8024,-5.8347,-5.8246,-5.7838,-5.7753,-5.7108,-5.586,-5.2939,-5.1445,-5.068,-4.9749,-4.924,-4.8887,-4.8153,-4.7556,-4.703,-4.6441,-4.5913,-4.5448,-4.5367,-4.535,-4.5298,-4.5192,-4.4957,-4.4699,-4.4524,-4.3127,-4.182,-4.1693,-4.0591,-3.9377,-3.869,-3.9001,-3.8786,-3.6818,-3.6488,-3.6098,-3.4879,-3.4249,-3.3666,-3.288,-3.2516,-3.2014,-3.1261,-3.1287,-3.1297,-3.107,-3.1922,-3.2481,-3.2444,-3.2937,-3.3953,-3.5506,-3.5722,-3.6471,-3.7989,-3.824,-3.9009,-4.0389,-4.0719,-4.2017,-4.4144,-4.4299,-4.5106,0.0,0.0,-5.1997,-5.1346,-5.3735,-5.6425,-5.7203,-5.7453,-5.7453,-5.7366,-5.6051,-5.4113,-5.1546,-4.8365,-4.6117,-4.6185,-4.5464,-4.6059,-4.9449,-4.9177,-4.9532,-5.1979,-5.1401,-5.1794,0.0,-5.4331,-5.4946,-5.6713,-5.9269,-6.1928,-6.4585,-6.6251,-6.7525,-6.8385,-6.9168,-6.9511,-6.9404,-7.0235,-7.0191,-6.9274,-6.9313,-6.8808,-6.7814,-6.5938,-6.4101,-6.2368,-6.1413,-6.0584,-5.9902,-6.0817,-6.06,-5.9698,-5.9575,-5.8907,-5.7788,-5.601,-5.3731,-5.1327,-4.984,-4.8834,-4.8101,-4.7377,-4.7297,-4.7315,-4.6453,-4.6317,-4.632,-4.5617,-4.54,-4.5381,-4.5309,-4.4624,-4.3879,-4.3677,-4.2259,-4.0929,-4.0866,-4.019,-3.9552,-3.9375,-3.9386,-3.9296,-3.9036,-3.7599,-3.6481,-3.6431,-3.4944,-3.377,-3.377,-3.2953,-3.2383,-3.2347,-3.2477,-3.2148,-3.1174,-3.2611,-3.3465,-3.3289,-3.3882,-3.4954,-3.6503,-3.7184,-3.8026,-3.9031,-3.9823,-4.067,-4.1538,-4.2391,-4.3585,-4.5075,-4.5992,-4.7347,0.0,0.0,-5.4391,-5.5225,-5.6741,-5.8109,-5.8398,-5.8459,-5.8072,-5.6893,-5.5294,-5.3159,-4.997,-4.7584,-4.6095,-4.6122,-4.638,-4.7564,-5.0459,-5.1001,-5.1662,-5.3106,-5.4351,0.0,0.0,0.0,0.0,-5.8571,-6.0586,-6.2844,-6.5473,-6.7224,-6.8755,-7.0182,-7.0388,-7.0462,-7.0434,-7.1121,-7.103,-7.0195,-6.9473,-6.8957,-6.8515,-6.6615,-6.5434,-6.4739,-6.3355,-6.2614,-6.2349,-6.2233,-6.1554,-6.0669,-6.0585,-5.9525,-5.7938,-5.6687,-5.5286,-5.3794,-5.2255,-5.1286,-5.0541,-4.977,-4.9334,-4.8871,-4.7574,-4.6843,-4.6277,-4.5609,-4.539,-4.5361,-4.5213,-4.5017,-4.4662,-4.3767,-4.2636,-4.1655,-4.0967,-4.019,-3.9552,-3.9412,-3.9386,-3.9147,-3.8386,-3.7761,-3.7165,-3.6647,-3.4971,-3.3977,-3.4486,-3.4261,-3.4284,-3.494,-3.5041,-3.488,-3.4517,-3.4921,-3.5132,-3.4971,-3.5632,-3.6502,-3.7639,-3.8955,-3.9857,-4.0235,-4.1596,-4.2414,-4.265,-4.3634,-4.5242,-4.7348,-4.7602,-4.8629,-5.2363,-5.4886,-5.642,-5.8084,-5.8933,-5.9458,-5.9748,-5.9283,-5.8305,-5.6576,-5.4653,-5.2195,-4.871,-4.6474,-4.5366,-4.5983,-4.6584,-4.8076,-5.1282,-5.2136,-5.3036,-5.4815,-5.6094,0.0,0.0,0.0,0.0,-6.0035,-6.1803,-6.3735,-6.5953,-6.7398,-6.8814,-7.0204,-7.0414,-7.0644,-7.0898,-7.1281,-7.1007,-7.0126,-6.9071,-6.8557,-6.8434,-6.6888,-6.6119,-6.5935,-6.4626,-6.3886,-6.3562,-6.3149,-6.2222,-6.106,-6.066,-5.956,-5.8066,-5.7097,-5.594,-5.4689,-5.3362,-5.2422,-5.1661,-5.0986,-5.0357,-4.9562,-4.8083,-4.7278,-4.6702,-4.6,-4.5591,-4.5446,-4.554,-4.5213,-4.4614,-4.373,-4.2875,-4.2057,-4.138,-4.0816,-4.0402,-4.0272,-4.0269,-3.9917,-3.8906,-3.822,-3.7539,-3.6697,-3.5554,-3.4994,-3.5496,-3.5519,-3.5768,-3.6376,-3.6708,-3.6827,-3.672,-3.7154,-3.7494,-3.7644,-3.8327,-3.9126,-4.0061,-4.1389,-4.2152,-4.2275,-4.3887,-4.4693,-4.4656,-4.5883,-4.7371,-4.9049,-4.949,-5.0337,-5.383,-5.5874,-5.8168,-5.9762,-6.0164,-6.0385,-6.1123,-5.9938,-5.8163,-5.633,-5.3935,-5.1069,0.0,0.0,-4.4103,-4.5765,-4.6192,-4.7748,-5.1986,-5.255,-5.3772,0.0,0.0,0.0,0.0,0.0,0.0,-6.1263,0.0,-6.4503,-6.6118,-6.6984,-6.7802,-6.869,-6.9366,-7.008,-7.0783,-7.0769,-7.0235,-6.9207,-6.8269,-6.7757,-6.769,-6.6788,-6.6304,-6.6139,-6.525,-6.4416,-6.3658,-6.3582,-6.2559,-6.1006,-6.0004,-5.9105,-5.8278,-5.7146,-5.5708,-5.4123,-5.303,-5.2173,-5.151,-5.089,-5.032,-4.9556,-4.7985,-4.7629,-4.7594,-4.6746,-4.6007,-4.5597,-4.6252,-4.5186,-4.3907,-4.3554,-4.2875,-4.2222,-4.2031,-4.2004,-4.1965,-4.1829,-4.1787,-4.1521,-4.0597,-3.9078,-3.7637,-3.6828,-3.6721,-3.6713,-3.6742,-3.6742,-3.6792,-3.6829,-3.7498,-3.7927,-3.7826,-3.9165,-4.031,-4.1046,-4.1714,-4.2553,-4.3549,-4.4448,-4.4942,-4.5046,-4.6688,-4.7536,-4.7481,-4.914,-5.0065,-5.0268,-5.1767,-5.2507,-5.7025,-5.9003,-6.061,-6.0961,-6.0612,-6.008,-5.9637,-5.818,-5.5895,-5.2302,-4.9953,-4.7328,0.0,0.0,0.0,-4.5041,-4.7256,0.0,-5.3024,-5.3928,0.0,-5.8122,0.0,-6.0377,-6.1707,-6.3025,0.0,0.0,-6.3911,-6.4512,-6.6167,-6.7047,-6.7866,-6.8756,-6.8922,-6.9069,-6.9266,-6.9065,-6.8757,-6.8311,-6.7948,-6.779,-6.7757,-6.7306,-6.7105,-6.6973,-6.5388,-6.4558,-6.4256,-6.3009,-6.1876,-6.0856,-5.9952,-5.9053,-5.8003,-5.583,-5.4733,-5.4066,-5.2447,-5.1881,-5.1715,-5.0922,-5.0666,-5.0218,-4.8124,-4.7947,-4.8161,-4.6876,-4.639,-4.6313,-4.6367,-4.5643,-4.463,-4.3718,-4.3328,-4.2951,-4.2181,-4.1965,-4.1911,-4.1815,-4.1702,-4.1578,-4.1326,-4.042,-3.9649,-3.9449,-3.8869,-3.8224,-3.7603,-3.757,-3.7846,-3.8481,-3.8755,-3.9073,-3.9526,-3.9926,-4.0717,-4.203,-4.2894,-4.3771,-4.4663,-4.6729,-4.7579,-4.7003,-4.9785,-5.0898,-5.0195,-5.2011,-5.3181,-5.3738,-5.4222,-5.4799,-5.8865,-6.046,-6.1478,-6.1402,-6.0514,-5.9326,-5.8081,-5.5825,-5.2908,-4.9041,-4.6512,0.0,0.0,0.0,0.0,0.0,0.0,0.0,-5.2723,-5.4504,-5.641,0.0,-6.1136,0.0,-6.3618,-6.5272,-6.6134,0.0,-6.5213,-6.5324,-6.6273,-6.6719,-6.7152,-6.7655,-6.7624,-6.7581,-6.7525,-6.7641,-6.7438,-6.6895,-6.678,-6.6461,-6.6036,-6.5901,-6.5606,-6.5154,0.0,-6.3441,-6.2949,-6.1664,-6.0643,-5.9811,-5.853,-5.7498,-5.6488,-5.4651,-5.3478,-5.266,-5.1635,-5.112,-5.0898,-5.0792,-5.0568,-5.009,-4.8542,-4.8441,-4.8654,-4.788,-4.7401,-4.721,-4.7503,-4.6923,-4.6104,-4.5407,-4.518,-4.4836,-4.3925,-4.3591,-4.3352,-4.2828,-4.2389,-4.2069,-4.2023,-4.1386,-4.0896,-4.0903,-4.0494,-4.0034,-3.9523,-3.8883,-3.8627,-3.9141,-3.9215,-3.9662,-4.0854,-4.0937,-4.1898,-4.4246,-4.4804,-4.5648,-4.693,-4.8716,-4.9513,-4.9059,-5.1887,-5.3104,-5.2529,-5.4205,-5.5472,-5.6254,-5.6233,-5.6456,-5.9777,-6.0861,-6.1478,-6.1292,-5.9988,-5.8192,-5.6173,-5.2962,-4.9448,-4.5978,0.0,-4.0953,-3.9384,-3.9985,-4.1299,-4.3102,0.0,-4.8544,-5.2147,-5.4791,-5.7389,-6.0205,-6.2727,-6.4645,-6.5615,-6.6967,-6.7487,-6.6742,-6.6514,-6.6367,-6.6331,-6.6274,-6.6195,-6.6185,-6.6175,-6.6123,-6.6013,-6.6551,-6.6378,-6.5494,-6.5368,-6.4791,-6.379,-6.3812,-6.3251,-6.237,0.0,0.0,-6.0837,-5.989,-5.9133,-5.8337,-5.6646,-5.5593,-5.4821,-5.383,-5.2439,-5.108,-5.0952,-5.0386,-4.9834,-5.0463,-5.0214,-4.9613,-4.8973,-4.8983,-4.9158,-4.9125,-4.8563,-4.8143,-4.8907,-4.8357,-4.7565,-4.7516,-4.7339,-4.7,-4.6214,-4.5871,-4.5402,-4.431,-4.3505,-4.2955,-4.2728,-4.2109,-4.1683,-4.1757,-4.1646,-4.1609,-4.1609,-4.0308,-3.9445,-3.9527,-3.9527,-4.0229,-4.1924,-4.2033,-4.3343,-4.6487,-4.6727,-4.7544,-4.922,-5.0213,-5.0808,-5.0982,-5.3236,-5.4467,-5.4568,-5.5959,-5.7077,-5.7937,-5.7759,-5.7756,-5.9933,-6.0861,-6.1322,-6.0577,-5.916,-5.6894,-5.3077,-4.9461,0.0,0.0,0.0,-3.7638,-3.6571,-3.8805,0.0,-4.3129,0.0,0.0,0.0,0.0,-5.8714,0.0,0.0,0.0,0.0,0.0,0.0,0.0,0.0,0.0,-6.6381,-6.6301,-6.6274,-6.6185,-6.6144,-6.608,-6.6001,-6.5936,-6.5803,-6.5494,-6.5368,-6.4823,-6.3889,-6.3685,-6.3183,-6.2294,0.0,0.0,-5.9743,-5.8216,-5.7498,-5.7272,-5.6355,-5.5933,-5.5593,-5.4118,-5.3002,-5.212,-5.1287,-5.0478,-4.9876,-4.9944,-4.9877,-4.9669,-4.8986,-4.9327,-4.9783,-4.9266,-4.8995,-4.8907,-4.9071,-4.8357,-4.7565,-4.7516,-4.7339,-4.715,-4.693,-4.669,-4.62,-4.5228,-4.4936,-4.4602,-4.3865,-4.3101,-4.2597,-4.2575,-4.2017,-4.1609,-4.1609,-4.1349,-4.1221,-4.1348,-4.1362,-4.1833,-4.2972,-4.306,-4.3928,-4.6021,-4.6814,-4.7645,-4.864,-5.0113,-5.1269,-5.1926,-5.3682,-5.5145,-5.6344,-5.734,-5.8109,-5.8696,-5.8656,-5.8967,-5.9054,-6.0149,-6.0705,-6.0316,-5.8642,-5.5844,-5.1076,0.0,0.0,0.0,0.0,-3.5059,-3.5035,0.0,0.0,0.0,0.0,0.0,0.0,0.0,0.0,0.0,0.0,0.0,0.0,0.0,0.0,0.0,0.0,0.0,-6.6445,-6.6358,-6.6293,-6.6264,-6.6175,-6.6102,-6.6013,-6.5858,-6.5663,-6.5435,-6.5305,-6.4742,-6.3736,-6.3217,-6.2538,-6.1667,0.0,0.0,-5.9723,-5.8543,-5.7763,-5.727,-5.652,-5.5677,-5.4804,-5.405,-5.299,-5.1901,-5.1887,-5.1355,-5.0735,-5.0748,-5.0352,-4.9844,-4.9631,-4.9883,-5.0123,-4.9813,-4.971,-4.9721,-4.9794,-4.9334,-4.8909,-4.8883,-4.8338,-4.7787,-4.7612,-4.7124,-4.6504,-4.5873,-4.5449,-4.5057,-4.4601,-4.3892,-4.3383,-4.3429,-4.3095,-4.285,-4.2932,-4.2947,-4.2671,-4.1917,-4.1897,-4.2331,-4.3404,-4.3882,-4.4726,-4.6139,-4.7441,-4.8314,-4.8681,-5.0312,-5.1589,-5.2395,-5.4004,-5.5366,-5.6446,-5.7592,-5.8465,-5.9118,-5.9002,-5.9553,-5.7759,-5.9137,-5.9894,-5.9699,-5.7809,-5.4585,-4.9412,-4.4868,0.0,0.0,-3.4478,-3.3489,-3.4483,0.0,0.0,0.0,0.0,0.0,0.0,0.0,0.0,0.0,0.0,0.0,0.0,0.0,0.0,0.0,0.0,0.0,0.0,-6.6338,-6.6331,-6.6303,-6.6215,-6.6134,-6.6013,-6.5883,-6.569,-6.5444,-6.5274,-6.4676,-6.3617,-6.2783,-6.1966,-6.1093,0.0,0.0,0.0,-5.8957,-5.8149,-5.7311,-5.6719,-5.5551,-5.4242,-5.4256,-5.334,-5.2133,-5.2806,-5.25,-5.1813,-5.1861,-5.1306,-5.0621,-5.0579,-5.0703,-5.0818,-5.0627,-5.0588,-5.0562,-5.0428,-5.0262,-5.0076,-5.0089,-4.9373,-4.8587,-4.8322,-4.7719,-4.7085,-4.6621,-4.6066,-4.5527,-4.5127,-4.4584,-4.4167,-4.4008,-4.4002,-4.407,-4.4184,-4.4229,-4.3855,-4.2851,-4.2618,-4.3026,-4.4156,-4.4849,-4.563,-4.6622,-4.8107,-4.8945,-4.8921,-5.052,-5.1776,-5.2576,-5.4016,-5.5198,-5.6095,-5.7213,-5.8194,-5.9046,-5.8858,-5.96,-5.6352,-5.7787,-5.8843,-5.8125,-5.6026,-5.2788,-4.7616,0.0,0.0,-3.6471,-3.4446,-3.3688,-3.5277,-3.6317,0.0,0.0,0.0,0.0,0.0,0.0,0.0,0.0,0.0,0.0,0.0,0.0,0.0,0.0,0.0,0.0,0.0,-6.6398,-6.6355,-6.6312,-6.6215,-6.6134,-6.6013,-6.5883,-6.5717,-6.5494,-6.5352,-6.4775,-6.3757,-6.2884,-6.2048,-6.1191,0.0,0.0,0.0,-5.813,-5.7319,-5.6608,-5.6728,-5.6141,-5.5261,-5.5477,-5.4902,-5.4031,-5.412,-5.356,-5.2786,-5.2786,-5.2662,-5.2398,-5.1684,-5.2002,-5.2422,-5.1697,-5.1467,-5.1326,-5.0581,-5.0262,-5.0025,-4.9807,-4.9646,-4.9491,-4.9166,-4.9027,-4.87,-4.7755,-4.7499,-4.6979,-4.553,-4.5233,-4.4915,-4.4135,-4.4085,-4.4184,-4.4199,-4.4318,-4.4665,-4.5368,-4.478,-4.4799,-4.5887,-4.6162,-4.666,-4.7613,-4.8552,-4.9064,-4.8993,-5.0595,-5.1828,-5.2576,-5.3514,-5.4686,-5.6095,-5.6216,-5.6949,-5.8221,-5.8165,-5.8914,-5.4037,-5.6106,-5.7439,-5.7629,-5.5372,-5.1905,-4.7267,0.0,-3.8892,-3.5766,-3.4089,-3.3571,-3.472,-3.5189,-3.5936,0.0,0.0,0.0,0.0,0.0,0.0,0.0,0.0,0.0,0.0,0.0,0.0,0.0,0.0,0.0,0.0,-6.5887,-6.6389,-6.6355,-6.6312,-6.6185,-6.6069,-6.5943,-6.5718,-6.5494,-6.4894,-6.4321,-6.3802,-6.2449,-6.165,-6.1308,0.0,0.0,0.0,-5.8997,-5.8195,-5.7405,-5.6982,-5.629,-5.5508,-5.5626,-5.5066,-5.4384,-5.4917,-5.4472,-5.3736,-5.3736,-5.4058,-5.4176,-5.28,-5.2573,-5.2614,-5.1849,-5.1608,-5.1429,-5.0574,-5.0619,-5.0823,-5.0539,-5.0453,-5.0335,-5.0092,-4.962,-4.9052,-4.8621,-4.807,-4.7516,-4.6847,-4.5918,-4.534,-4.5536,-4.5211,-4.5124,-4.5738,-4.5889,-4.6081,-4.6581,-4.5957,-4.5911,-4.6947,-4.7627,-4.814,-4.8563,-4.9862,-5.0347,-4.9828,-5.1393,-5.2399,-5.2666,-5.3504,-5.4452,-5.5449,-5.5837,-5.6269,-5.6694,-5.7546,-5.8501,-5.094,-5.3559,-5.5355,-5.5735,-5.3631,-5.0433,0.0,-4.2345,-3.8586,-3.5611,-3.4245,-3.3838,-3.4638,-3.4763,-3.5168,0.0,0.0,-3.9036,0.0,0.0,0.0,0.0,0.0,0.0,0.0,0.0,0.0,0.0,0.0,0.0,0.0,0.0,-6.5809,-6.6057,-6.623,-6.6245,-6.6102,-6.5743,-6.5461,-6.5183,-6.4255,-6.3732,-6.3581,-6.2147,-6.1499,0.0,0.0,0.0,0.0,-5.9639,-5.8846,-5.804,-5.7193,-5.6383,-5.5649,-5.5682,-5.5264,-5.4786,-5.5396,-5.5231,-5.4698,-5.4687,-5.5059,-5.5305,-5.407,-5.3604,-5.3416,-5.2575,-5.199,-5.1455,-5.0832,-5.1052,-5.1406,-5.1405,-5.1351,-5.1141,-5.0735,-5.0081,-4.9513,-4.9156,-4.8567,-4.8032,-4.7772,-4.6768,-4.6169,-4.6563,-4.6184,-4.6097,-4.6847,-4.6952,-4.7206,-4.7937,-4.7526,-4.7454,-4.7945,-4.8841,-4.9522,-4.9824,-5.1162,-5.1697,-5.1047,-5.2398,-5.3251,-5.3429,-5.3987,-5.4628,-5.535,-5.5753,-5.5842,-5.5697,-5.721,-5.8257,-4.6984,-5.001,-5.2416,-5.1585,-5.0098,-4.7939,0.0,-4.102,-3.8004,-3.6242,-3.5142,-3.4734,-3.5548,-3.5702,-3.5704,-3.5704,0.0,0.0,0.0,0.0,0.0,0.0,0.0,0.0,0.0,0.0,0.0,0.0,0.0,0.0,0.0,0.0,-6.4394,-6.5211,-6.5979,-6.6311,-6.6102,-6.5252,-6.4706,-6.4513,-6.3564,-6.3061,-6.2992,-6.2112,0.0,0.0,0.0,0.0,0.0,-5.9739,-5.8918,-5.8123,-5.739,-5.6515,-5.5714,-5.5855,-5.5797,-5.5703,-5.5703,-5.5703,-5.5654,-5.5599,-5.5577,-5.5566,-5.5497,-5.5427,-5.5212,-5.4333,-5.2881,-5.1558,-5.1509,-5.1434,-5.1572,-5.2233,-5.2265,-5.191,-5.0927,-5.0628,-5.0289,-4.9284,-4.9101,-4.8787,-4.793,-4.7781,-4.7532,-4.6807,-4.6809,-4.6922,-4.6974,-4.7061,-4.7792,-4.9676,-4.9922,-4.9657,-4.8959,-4.9754,-5.0665,-5.1544,-5.2346,-5.2766,-5.2766,-5.3582,-5.4369,-5.517,-5.5033,-5.5336,-5.6095,-5.5885,-5.5743,-5.5665,-5.7191,-5.8181,-4.2463,-4.4758,-4.6465,-4.6178,-4.5253,-4.3663,-4.0794,-3.8828,-3.7139,-3.5359,-3.4734,-3.4734,-3.5548,-3.5694,-3.625,-3.7998,-3.875,0.0,0.0,0.0,0.0,0.0,0.0,0.0,0.0,0.0,0.0,0.0,0.0,0.0,0.0,0.0,-6.3534,-6.4357,-6.4535,-6.4575,-6.4474,-6.4134,-6.388,-6.3668,-6.2771,-6.2273,-6.2155,-6.1312,0.0,0.0,0.0,0.0,0.0,-5.8954,-5.8131,-5.7297,-5.6483,-5.5976,-5.5766,-5.5807,-5.5766,-5.5703,-5.566,-5.5615,-5.5581,-5.5558,-5.5508,-5.5497,-5.5437,-5.5427,-5.5224,-5.4345,-5.3301,-5.241,-5.2336,-5.2716,-5.3131,-5.3205,-5.3135,-5.2906,-5.257,-5.1914,-5.1145,-5.031,-5.0056,-4.9724,-4.8903,-4.8306,-4.8093,-4.8496,-4.8618,-4.8935,-4.9631,-5.0264,-5.0932,-5.1684,-5.1762,-5.17,-5.1523,-5.1801,-5.2384,-5.3263,-5.3531,-5.3926,-5.4409,-5.526,-5.5802,-5.5969,-5.63,-5.6592,-5.6792,-5.6541,-5.6574,-5.6927,-5.7212,-5.7693,-3.7802,-4.0409,-4.2157,-4.1827,-4.1326,-4.0313,-3.8022,-3.6835,-3.5883,-3.4792,-3.4524,-3.4768,-3.5539,-3.5684,-3.6211,-3.7804,-3.8634,0.0,0.0,0.0,0.0,0.0,0.0,0.0,0.0,0.0,0.0,0.0,0.0,0.0,0.0,0.0,-6.2528,-6.3054,-6.3565,-6.3787,-6.368,-6.3352,-6.3047,-6.2879,-6.2044,-6.1574,-6.1464,0.0,0.0,0.0,0.0,0.0,0.0,-5.8611,-5.7802,-5.6907,-5.6049,-5.5724,-5.5756,-5.5756,-5.5735,-5.5692,-5.5577,-5.5531,-5.5508,-5.5461,-5.5461,-5.5473,-5.5437,-5.5376,-5.5161,-5.4333,-5.3722,-5.3289,-5.3213,-5.3516,-5.393,-5.4083,-5.402,-5.3789,-5.344,-5.2543,-5.1586,-5.075,-5.0251,-4.9824,-4.937,-4.9123,-4.9224,-4.9867,-5.032,-5.0816,-5.1481,-5.2082,-5.262,-5.3123,-5.3123,-5.3403,-5.4116,-5.362,-5.3531,-5.4065,-5.4677,-5.5262,-5.5719,-5.6505,-5.7016,-5.7188,-5.7191,-5.7461,-5.8017,-5.7679,-5.7615,-5.783,-5.7639,-5.7892,0.0,-3.6543,-3.8873,-3.8005,-3.7856,-3.7507,-3.5838,-3.4925,0.0,-3.4344,-3.4318,-3.4609,-3.5596,-3.5725,-3.5825,-3.6168,-3.7594,0.0,0.0,0.0,0.0,0.0,0.0,0.0,0.0,0.0,0.0,0.0,0.0,0.0,0.0,0.0,0.0,-6.149,-6.2938,-6.3643,-6.3545,-6.2723,-6.224,-6.2116,-6.1345,-6.0997,-6.0987,0.0,0.0,0.0,0.0,0.0,0.0,-5.8571,-5.7692,-5.683,-5.6099,-5.5742,-5.5703,-5.578,-5.5742,-5.5682,-5.552,-5.5558,-5.5581,-5.5425,-5.5425,-5.5473,-5.5485,-5.5351,-5.5071,-5.4397,-5.418,-5.4167,-5.4091,-5.4011,-5.4172,-5.4824,-5.4822,-5.4462,-5.3594,-5.2661,-5.1727,-5.0783,-4.9996,-4.9412,-4.9415,-5.0159,-5.0785,-5.09,-5.1817,-5.2513,-5.261,-5.2767,-5.3251,-5.4193,-5.4218,-5.4855,-5.6549,-5.5212,-5.4295,-5.4371,-5.5823,-5.6702,-5.6778,-5.7444,-5.8113,-5.8858,-5.7905,-5.8134,-5.9589,-5.9151,-5.8784,-5.8556,-5.8385,-5.8676,-2.8555,0.0,-3.1793,-3.0929,-3.1708,-3.2406,0.0,-3.1831,-3.2586,-3.252,-3.2503,-3.3389,-3.6172,-3.6144,-3.6991,-4.0893,0.0,0.0,0.0,0.0,0.0,0.0,0.0,0.0,0.0,0.0,0.0,0.0,0.0,0.0,0.0,0.0,0.0,-6.1484,-6.1873,-6.1991,-6.1857,-6.1591,-6.1396,-6.1291,-6.1098,-6.1,-6.0987,0.0,0.0,0.0,0.0,0.0,-5.7688,-5.7454,-5.6855,-5.6113,-5.6533,-5.6291,-5.578,-5.6445,-5.6258,-5.5626,-5.5547,-5.5499,-5.5425,-5.5389,-5.5389,-5.5413,-5.5461,-5.5413,-5.5301,-5.5122,-5.5097,-5.5071,-5.4901,-5.4822,-5.4857,-5.4903,-5.4814,-5.4478,-5.3656,-5.3192,-5.257,-5.1095,-5.0659,-5.032,-4.9747,-5.0334,-5.0988,-5.1112,-5.2503,-5.359,-5.3722,-5.4333,-5.5147,-5.605,-5.6066,-5.6408,-5.7428,-5.6534,-5.6229,-5.6969,-5.739,-5.7859,-5.8415,-5.9115,-5.9832,-6.0508,-6.0435,-6.0479,-6.0657,-6.0315,-6.0089,-5.9903,-5.9784,-5.9774,-2.6405,-2.8515,-3.0622,-3.0149,-3.104,-3.1924,-3.1371,-3.1343,-3.1505,-3.1829,0.0,0.0,-3.5382,0.0,0.0,0.0,0.0,0.0,0.0,0.0,0.0,0.0,0.0,0.0,0.0,0.0,0.0,0.0,0.0,0.0,0.0,0.0,0.0,0.0,-6.1549,-6.1466,-6.1283,-6.122,-6.1152,-6.107,-6.1051,-6.0867,-6.049,0.0,0.0,0.0,0.0,0.0,-5.713,-5.7139,-5.6849,-5.6482,-5.6883,-5.6746,-5.64,-5.684,-5.6401,-5.5604,-5.5508,-5.5693,-5.5874,-5.553,-5.567,-5.5937,-5.5614,-5.5413,-5.5339,-5.5376,-5.5415,-5.5364,-5.5154,-5.5113,-5.5085,-5.4912,-5.4829,-5.4639,-5.4178,-5.3405,-5.2551,-5.1722,-5.0906,-5.0293,-4.991,-5.0875,-5.1726,-5.1847,-5.3375,-5.4548,-5.4626,-5.5479,-5.6242,-5.6714,-5.7035,-5.7529,-5.829,-5.7877,-5.7648,-5.7794,-5.8217,-5.8623,-5.904,-6.0121,-6.0963,-6.1547,-6.1919,-6.174,-6.1041,-6.1601,-6.1356,-6.0419,-6.064,-6.0699,-2.6133,-2.9138,-3.1981,-3.1586,-3.2545,-3.3535,-3.334,0.0,0.0,0.0,0.0,0.0,0.0,-3.6638,0.0,0.0,0.0,0.0,0.0,0.0,0.0,0.0,0.0,0.0,0.0,0.0,0.0,0.0,0.0,0.0,0.0,0.0,0.0,0.0,-6.1205,-6.1123,-6.0971,-6.1142,-6.1199,-6.1182,-6.102,-6.0576,-5.988,-5.9609,0.0,0.0,0.0,0.0,-5.7041,-5.7148,-5.7197,-5.7188,-5.7271,-5.7212,-5.7097,-5.7005,-5.6401,-5.5604,-5.5508,-5.5987,-5.6512,-5.5658,-5.6014,-5.6562,-5.5741,-5.5427,-5.5288,-5.539,-5.5403,-5.5313,-5.5154,-5.5127,-5.5099,-5.4941,-5.4875,-5.4776,-5.4663,-5.3467,-5.2394,-5.2332,-5.1173,-5.0282,-5.0379,-5.1697,-5.2764,-5.2844,-5.4244,-5.539,-5.5505,-5.6294,-5.6879,-5.7098,-5.771,-5.8394,-5.914,-5.9115,-5.8796,-5.8092,-5.8811,-5.9359,-5.9598,-6.0837,-6.1814,-6.239,-6.2818,-6.2491,-6.144,-6.2715,-6.2446,-6.0786,-6.1336,-6.1576,-2.82,-3.0533,-3.1576,-2.9351,-3.1638,-3.4226,-3.3475,-3.4188,0.0,0.0,0.0,0.0,0.0,0.0,0.0,0.0,0.0,0.0,0.0,0.0,0.0,0.0,0.0,0.0,0.0,0.0,0.0,0.0,0.0,0.0,0.0,0.0,0.0,0.0,0.0,-5.9367,-5.9355,-6.0635,-6.1267,-6.1182,-6.0449,-6.0035,-5.9841,-5.8372,-5.7628,0.0,0.0,-5.6313,-5.6227,-5.6925,-5.7216,-5.7245,-5.787,-5.7685,-5.7097,-5.7005,-5.6401,-5.5604,-5.5508,-5.6048,-5.6611,-5.5756,-5.6074,-5.6623,-5.5753,-5.5427,-5.5275,-5.5288,-5.5249,-5.5222,-5.5102,-5.513,-5.513,-5.5014,-5.4927,-5.4716,-5.4034,-5.3602,-5.32,-5.2589,-5.233,-5.2207,-5.226,-5.315,-5.3887,-5.3924,-5.4839,-5.5756,-5.6484,-5.6688,-5.7352,-5.8757,-5.8909,-5.9248,-6.0088,-6.0036,-5.987,-5.9733,-5.9862,-6.0525,-6.1847,-6.2012,-6.2596,-6.3791,-6.3691,-6.3453,-6.3034,-6.306,-6.2831,-6.2413,-6.2398,-6.2709,-2.5778,-2.7991,-2.9923,-2.9628,-3.312,-3.6683,-3.6724,-3.6616,0.0,0.0,0.0,0.0,0.0,0.0,0.0,0.0,0.0,0.0,0.0,0.0,0.0,0.0,0.0,0.0,0.0,0.0,0.0,0.0,0.0,0.0,0.0,0.0,0.0,0.0,0.0,0.0,-5.8997,-5.9646,-5.9933,-5.983,-5.9413,-5.8952,-5.8488,-5.7666,-5.7048,0.0,0.0,-5.6012,-5.6081,-5.6914,-5.7253,-5.7321,-5.8105,-5.7901,-5.7061,-5.6515,-5.6017,-5.5654,-5.608,-5.6786,-5.7364,-5.6482,-5.6764,-5.72,-5.5895,-5.5339,-5.5183,-5.5261,-5.5183,-5.5116,-5.5071,-5.5085,-5.5085,-5.5014,-5.4971,-5.4842,-5.4544,-5.4102,-5.366,-5.3362,-5.2971,-5.2743,-5.2817,-5.3604,-5.4226,-5.4261,-5.5358,-5.6316,-5.6702,-5.7544,-5.8362,-5.9127,-5.957,-6.0127,-6.0924,-6.0889,-6.0639,-6.0137,-6.0555,-6.1292,-6.2416,-6.2717,-6.3369,-6.4346,-6.4021,-6.378,-6.3624,-6.3709,-6.369,-6.3541,-6.3339,-6.3675,-2.4567,-2.6232,-2.8432,-3.0728,-3.4445,-3.7934,-3.9582,-3.8965,-3.836,0.0,0.0,0.0,0.0,0.0,0.0,0.0,0.0,0.0,0.0,0.0,0.0,0.0,0.0,0.0,0.0,0.0,0.0,0.0,0.0,0.0,0.0,0.0,0.0,0.0,0.0,0.0,-5.8379,-5.8254,-5.835,-5.87,-5.8432,-5.7955,-5.728,-5.7086,-5.6622,-5.6012,-5.6012,-5.6012,-5.6089,-5.6932,-5.728,-5.7357,-5.7969,-5.7641,-5.6772,-5.5987,-5.5692,-5.5753,-5.6598,-5.7459,-5.7987,-5.7143,-5.7402,-5.7723,-5.601,-5.5314,-5.5116,-5.517,-5.5143,-5.5099,-5.5028,-5.5014,-5.5028,-5.5,-5.5,-5.5014,-5.5057,-5.4618,-5.4215,-5.4255,-5.3811,-5.3527,-5.379,-5.4411,-5.4983,-5.5186,-5.6326,-5.7172,-5.7302,-5.8425,-5.9228,-5.9376,-6.0179,-6.0991,-6.1758,-6.1629,-6.1256,-6.0746,-6.1095,-6.1755,-6.2698,-6.3227,-6.384,-6.4539,-6.4353,-6.4214,-6.4122,-6.4564,-6.4696,-6.4599,-6.4141,-6.449,-2.8276,-2.8106,-2.7963,-3.2099,-3.4014,-3.5927,-3.9906,-4.0713,-4.1335,-4.3821,0.0,0.0,0.0,0.0,0.0,0.0,0.0,0.0,0.0,0.0,0.0,0.0,0.0,0.0,0.0,0.0,0.0,0.0,0.0,0.0,0.0,0.0,0.0,0.0,0.0,0.0,-5.6588,-5.6466,-5.7186,-5.87,-5.7876,-5.74,-5.728,-5.6467,-5.6051,-5.6012,-5.6012,-5.6012,-5.6089,-5.6932,-5.728,-5.7318,-5.7312,-5.6734,-5.5874,-5.5825,-5.5756,-5.5818,-5.6703,-5.755,-5.8154,-5.7269,-5.7509,-5.7759,-5.6022,-5.5351,-5.5183,-5.5183,-5.5143,-5.5099,-5.5028,-5.5057,-5.5099,-5.5014,-5.5,-5.4985,-5.4912,-5.5033,-5.5107,-5.5107,-5.5237,-5.5573,-5.6449,-5.6652,-5.7021,-5.7873,-5.8058,-5.8345,-5.9038,-5.9141,-5.9471,-6.0231,-6.1019,-6.1831,-6.2635,-6.1972,-6.1789,-6.2474,-6.163,-6.1801,-6.3381,-6.3477,-6.3747,-6.4324,-6.5035,-6.5287,-6.5111,-6.5649,-6.5882,-6.5845,-6.4818,-6.5139,-2.4525,-2.6188,-2.8349,-3.1026,-3.392,-3.7133,-4.0878,-4.2539,-4.4054,-4.6618,-4.6885,0.0,0.0,0.0,0.0,0.0,0.0,0.0,0.0,0.0,0.0,0.0,0.0,0.0,0.0,0.0,0.0,0.0,0.0,0.0,0.0,0.0,0.0,0.0,0.0,0.0,0.0,-5.55,-5.5514,-5.5596,-5.6265,-5.6557,-5.6467,-5.6158,-5.6012,-5.6012,-5.6012,-5.6012,-5.6089,-5.6932,-5.697,-5.6506,-5.6462,-5.6222,-5.5914,-5.5817,-5.6123,-5.6669,-5.7522,-5.8357,-5.8973,-5.8665,-5.87,-5.8526,-5.6827,-5.6155,-5.5922,-5.5336,-5.5143,-5.5075,-5.5085,-5.5099,-5.5088,-5.5102,-5.5102,-5.5154,-5.5192,-5.5694,-5.6129,-5.6129,-5.6714,-5.727,-5.7651,-5.7724,-5.7912,-5.8231,-5.8685,-5.906,-5.9343,-5.9741,-6.0313,-6.1128,-6.2424,-6.335,-6.3664,-6.2841,-6.2872,-6.4213,-6.2835,-6.2492,-6.3634,-6.406,-6.435,-6.4558,-6.4706,-6.4755,-6.4649,-6.5724,-6.6178,-6.6017,-6.6049,-6.6347,-2.3273,-2.5361,-2.8333,-3.0547,-3.4142,-3.8132,-4.2116,-4.3938,-4.5608,-4.8444,-4.881,-4.8282,0.0,0.0,0.0,0.0,0.0,0.0,0.0,0.0,0.0,0.0,0.0,0.0,0.0,0.0,0.0,0.0,0.0,0.0,0.0,0.0,0.0,0.0,0.0,0.0,0.0,-5.4613,-5.4291,-5.3715,-5.5055,-5.5707,-5.5659,-5.5904,-5.6012,-5.6029,-5.6029,-5.6012,-5.6063,-5.6661,-5.6545,-5.6003,-5.6007,-5.5989,-5.6009,-5.6175,-5.6626,-5.724,-5.8352,-5.9061,-5.9511,-5.9511,-5.943,-5.8974,-5.7299,-5.6665,-5.6368,-5.549,-5.5222,-5.5181,-5.5181,-5.5154,-5.5165,-5.5486,-5.5576,-5.5666,-5.6011,-5.66,-5.7086,-5.7111,-5.7683,-5.8304,-5.8558,-5.8631,-5.8781,-5.905,-5.9515,-5.9826,-5.9814,-6.0265,-6.0954,-6.2011,-6.3384,-6.422,-6.4206,-6.3611,-6.3734,-6.4863,-6.3708,-6.3346,-6.4204,-6.4655,-6.4815,-6.4761,-6.4879,-6.4897,-6.476,-6.6223,-6.6814,-6.6657,-6.7053,-6.7295,-2.5925,-2.6323,-2.779,-3.1209,0.0,0.0,-4.3666,-4.4831,-4.5802,-4.9227,-4.9269,-4.8695,-4.8702,0.0,0.0,0.0,0.0,0.0,0.0,0.0,0.0,0.0,0.0,0.0,0.0,0.0,0.0,0.0,0.0,0.0,0.0,0.0,0.0,0.0,0.0,0.0,0.0,-5.3724,-5.3676,-5.3676,-5.4491,-5.489,-5.4931,-5.5659,-5.6037,-5.6117,-5.6078,-5.6068,-5.598,-5.5986,-5.6012,-5.6012,-5.6012,-5.6016,-5.6096,-5.6907,-5.7188,-5.7356,-5.9023,-5.9557,-5.9511,-5.9511,-5.943,-5.8987,-5.7337,-5.6703,-5.6447,-5.5632,-5.5403,-5.5403,-5.5403,-5.526,-5.5355,-5.6193,-5.6421,-5.6635,-5.7434,-5.7791,-5.7951,-5.8017,-5.8143,-5.8508,-5.9346,-5.9511,-5.9819,-6.0666,-6.0781,-6.0796,-6.0736,-6.0736,-6.1288,-6.2828,-6.3772,-6.4279,-6.4206,-6.4191,-6.4191,-6.4206,-6.4077,-6.4381,-6.5177,-6.5215,-6.5116,-6.4888,-6.5684,-6.5992,-6.5784,-6.728,-6.7964,-6.8002,-6.7725,-6.7924,-2.5762,-2.8512,0.0,-3.4902,0.0,0.0,0.0,-4.7489,0.0,0.0,-5.0165,-4.9629,0.0,0.0,0.0,0.0,0.0,0.0,0.0,0.0,0.0,0.0,0.0,0.0,0.0,0.0,0.0,0.0,0.0,0.0,0.0,0.0,0.0,0.0,0.0,0.0,0.0,0.0,-5.2472,-5.1891,-5.2679,-5.3698,-5.4893,-5.5141,-5.5568,-5.6126,-5.5537,-5.5599,-5.6125,-5.6101,-5.6037,-5.6051,-5.6661,-5.6923,-5.703,-5.7814,-5.8481,-5.905,-5.9468,-5.9975,-6.0492,-6.0408,-6.0349,-5.9969,-5.828,-5.7721,-5.734,-5.5885,-5.5463,-5.5463,-5.5463,-5.5861,-5.6295,-5.6509,-5.703,-5.7527,-5.7742,-5.832,-5.8821,-5.8834,-5.9409,-5.9971,-6.0213,-6.0252,-6.0367,-6.061,-6.061,-6.0802,-6.1402,-6.2055,-6.2849,-6.3869,-6.4102,-6.4144,-6.4129,-6.3474,-6.3383,-6.4076,-6.4039,-6.4359,-6.5258,-6.5248,-6.5182,-6.5133,-6.5361,-6.5373,-6.5178,-6.6182,-6.6821,-6.7079,-6.7616,-6.7875,-2.734,-3.0706,0.0,-3.8222,-4.2624,-4.68,-4.9528,0.0,0.0,0.0,0.0,0.0,0.0,0.0,0.0,0.0,0.0,0.0,0.0,0.0,0.0,0.0,0.0,0.0,0.0,0.0,0.0,0.0,0.0,0.0,0.0,0.0,0.0,0.0,0.0,0.0,0.0,0.0,0.0,-5.1133,-5.1935,-5.2845,-5.3906,-5.4226,-5.4808,-5.5659,-5.5467,-5.5699,-5.618,-5.6133,-5.6264,-5.6604,-5.7121,-5.7547,-5.7964,-5.877,-5.936,-5.9843,-6.0082,-6.0481,-6.09,-6.0866,-6.0757,-6.039,-5.8726,-5.8141,-5.7747,-5.5983,-5.5485,-5.5485,-5.5485,-5.6381,-5.7251,-5.7188,-5.7798,-5.8459,-5.8803,-5.9035,-5.919,-5.9178,-5.9409,-5.9664,-6.0009,-6.0086,-6.0201,-6.0546,-6.0852,-6.1222,-6.172,-6.2899,-6.3731,-6.3817,-6.4063,-6.3876,-6.3159,-6.3184,-6.336,-6.3618,-6.4222,-6.4802,-6.5337,-6.529,-6.5274,-6.5274,-6.5242,-6.5182,-6.501,-6.5758,-6.639,-6.7007,-6.7755,-6.8173,-2.9762,0.0,0.0,-4.1145,-4.453,0.0,0.0,0.0,0.0,0.0,0.0,0.0,0.0,0.0,0.0,0.0,0.0,0.0,0.0,0.0,0.0,0.0,0.0,0.0,0.0,0.0,0.0,0.0,0.0,0.0,0.0,0.0,0.0,0.0,0.0,0.0,0.0,0.0,0.0,0.0,-5.1864,-5.22,-5.2305,-5.3049,-5.3909,-5.4827,-5.573,-5.6149,-5.6218,-5.6219,-5.6691,-5.742,-5.7558,-5.8123,-5.8906,-5.9705,-5.9968,-6.0007,-6.0732,-6.098,-6.0922,-6.0922,-6.0804,-6.0402,-5.8711,-5.8165,-5.7759,-5.5995,-5.5535,-5.5535,-5.5535,-5.6762,-5.8003,-5.803,-5.8641,-5.9415,-6.0141,-5.9644,-5.9084,-5.9088,-5.8489,-5.8272,-5.9141,-5.9268,-5.9575,-6.0444,-6.1262,-6.1799,-6.1875,-6.3384,-6.4047,-6.3225,-6.3733,-6.3499,-6.186,-6.3144,-6.3756,-6.3045,-6.452,-6.5413,-6.5429,-6.5429,-6.5413,-6.5398,-6.5321,-6.528,-6.5215,-6.5752,-6.6498,-6.7428,-6.7959,-6.859,-2.9033,-3.2583,0.0,0.0,0.0,0.0,0.0,0.0,0.0,0.0,0.0,0.0,0.0,0.0,0.0,0.0,0.0,0.0,0.0,0.0,0.0,0.0,0.0,0.0,0.0,0.0,0.0,0.0,0.0,0.0,0.0,0.0,0.0,0.0,0.0,0.0,-5.118,-5.1136,-5.1076,0.0,-5.1249,-5.1319,-5.1344,-5.2172,-5.3032,-5.3977,-5.5511,-5.6202,-5.6257,-5.6907,-5.7288,-5.7537,-5.8803,-5.9413,-5.9749,-6.0471,-6.0809,-6.0828,-6.0945,-6.0992,-6.0962,-6.0987,-6.0933,-6.053,-5.8798,-5.8253,-5.7889,-5.617,-5.5671,-5.5671,-5.5671,-5.6395,-5.7309,-5.7999,-5.9205,-6.0056,-5.9505,-5.9224,-5.8918,-5.8295,-5.8028,-5.8181,-5.8997,-5.915,-5.9417,-6.0311,-6.1155,-6.1948,-6.2651,-6.3702,-6.4304,-6.4137,-6.3566,-6.3035,-6.2639,-6.2811,-6.3215,-6.3809,-6.478,-6.5398,-6.5552,-6.5474,-6.5383,-6.5321,-6.529,-6.528,-6.5215,-6.5318,-6.6091,-6.739,-6.7543,-6.828,0.0,0.0,0.0,0.0,0.0,0.0,0.0,0.0,0.0,0.0,0.0,0.0,0.0,0.0,0.0,0.0,0.0,0.0,0.0,0.0,0.0,0.0,0.0,0.0,0.0,0.0,0.0,0.0,0.0,0.0,0.0,0.0,0.0,0.0,0.0,0.0,-5.0627,-5.0975,-5.113,-5.1094,-5.1114,-5.1296,-5.1709,-5.2583,-5.3456,-5.4369,-5.5721,-5.6304,-5.6363,-5.7165,-5.7741,-5.8231,-5.9451,-6.0145,-6.0562,-6.0915,-6.106,-6.1041,-6.1002,-6.0982,-6.1,-6.1,-6.0997,-6.0685,-5.9374,-5.8697,-5.8088,-5.6788,-5.6133,-5.5776,-5.5756,-5.6379,-5.722,-5.8008,-5.9038,-5.9854,-5.9775,-5.9098,-5.8421,-5.7963,-5.7237,-5.7097,-5.8347,-5.9267,-5.9969,-6.0441,-6.1196,-6.2065,-6.2946,-6.3817,-6.4227,-6.3806,-6.3316,-6.2853,-6.2432,-6.2691,-6.325,-6.4193,-6.4962,-6.5267,-6.5001,-6.5244,-6.5413,-6.5413,-6.5368,-6.5305,-6.5264,-6.5232,-6.5969,-6.7463,-6.7408,-6.796,0.0,0.0,-3.8464,0.0,0.0,0.0,0.0,0.0,0.0,0.0,0.0,0.0,0.0,0.0,0.0,0.0,0.0,0.0,0.0,0.0,0.0,0.0,0.0,0.0,0.0,0.0,0.0,0.0,0.0,0.0,0.0,0.0,0.0,0.0,0.0,-5.0084,-5.0192,-5.085,-5.1185,-5.1196,-5.1264,-5.1785,-5.2646,-5.3545,-5.4334,-5.5058,-5.5981,-5.6381,-5.6453,-5.7378,-5.8182,-5.8966,-5.9863,-6.0605,-6.1164,-6.1109,-6.1031,-6.0997,-6.0982,-6.1,-6.1008,-6.1041,-6.1021,-6.0843,-5.9986,-5.9204,-5.8451,-5.7651,-5.6792,-5.6126,-5.6048,-5.6578,-5.7307,-5.8054,-5.8743,-5.9447,-6.0123,-5.9152,-5.8117,-5.7965,-5.6932,-5.6524,-5.7979,-5.9562,-6.061,-6.061,-6.1301,-6.2093,-6.2784,-6.3767,-6.4074,-6.3192,-6.323,-6.3039,-6.2387,-6.2924,-6.3614,-6.4342,-6.4977,-6.4949,-6.413,-6.4838,-6.5259,-6.5303,-6.5367,-6.5352,-6.529,-6.5226,-6.5943,-6.7324,-6.7253,-6.7543,0.0,0.0,0.0,0.0,0.0,0.0,0.0,0.0,0.0,0.0,0.0,0.0,0.0,0.0,0.0,0.0,0.0,0.0,0.0,0.0,0.0,0.0,0.0,0.0,0.0,0.0,0.0,0.0,0.0,0.0,0.0,0.0,-4.8251,-4.9884,-4.9971,0.0,-5.1021,-5.1167,-5.118,-5.1136,-5.1869,-5.269,-5.3575,-5.4436,-5.4891,-5.5067,-5.5946,-5.6308,-5.643,-5.8037,-5.8752,-5.8972,-6.0476,-6.1053,-6.1118,-6.1049,-6.1008,-6.0997,-6.0982,-6.1,-6.1018,-6.1127,-6.107,-6.0853,-6.0027,-5.965,-5.9349,-5.85,-5.7651,-5.7033,-5.7023,-5.7101,-5.7389,-5.8126,-5.8907,-5.9442,-5.9447,-5.9268,-5.8911,-5.8195,-5.8463,-5.8859,-5.9151,-6.002,-6.0697,-6.0746,-6.1401,-6.194,-6.2055,-6.3424,-6.4074,-6.3192,-6.3767,-6.4189,-6.4074,-6.4151,-6.4266,-6.4381,-6.4496,-6.4175,-6.3294,-6.4085,-6.4517,-6.4461,-6.5039,-6.529,-6.529,-6.5274,-6.5721,-6.6535,-6.6518,-6.6835,-2.7321,0.0,0.0,0.0,0.0,0.0,0.0,0.0,0.0,0.0,0.0,0.0,0.0,0.0,0.0,0.0,0.0,0.0,0.0,0.0,0.0,0.0,0.0,0.0,0.0,0.0,0.0,0.0,0.0,0.0,0.0,-4.6811,-4.7886,-4.8605,-4.9556,0.0,-5.0512,-5.1018,-5.1239,-5.122,-5.1609,-5.2227,-5.3122,-5.394,-5.4858,-5.5808,-5.6208,-5.637,-5.6486,-5.8168,-5.8843,-5.8965,-6.0593,-6.1208,-6.1109,-6.106,-6.1049,-6.0997,-6.0982,-6.1002,-6.106,-6.1155,-6.1203,-6.1107,-6.0765,-6.0282,-5.9782,-5.9368,-5.8644,-5.795,-5.7892,-5.7872,-5.8094,-5.8841,-5.9331,-5.9716,-6.0161,-5.9737,-5.9076,-5.8307,-5.8865,-5.9462,-5.9523,-6.0288,-6.0888,-6.0911,-6.1208,-6.1724,-6.2687,-6.3433,-6.3909,-6.3988,-6.4334,-6.4539,-6.4501,-6.4078,-6.4001,-6.4462,-6.4001,-6.3373,-6.2516,-6.3717,-6.4175,-6.3636,-6.48,-6.5383,-6.529,-6.529,-6.5699,-6.64,-6.6349,-6.6435,0.0,0.0,0.0,0.0,0.0,0.0,0.0,0.0,0.0,0.0,0.0,0.0,0.0,0.0,0.0,0.0,0.0,0.0,0.0,0.0,0.0,0.0,0.0,0.0,0.0,0.0,0.0,0.0,0.0,0.0,-4.5269,-4.6747,-4.7668,-4.7835,-4.9292,-5.0169,-5.0346,-5.0969,-5.1285,-5.1289,-5.1511,-5.1966,-5.2611,-5.3662,-5.4845,-5.6058,-5.6303,-5.6391,-5.6542,-5.8162,-5.8823,-5.8951,-6.0639,-6.1208,-6.106,-6.106,-6.1041,-6.0997,-6.0982,-6.1022,-6.109,-6.1164,-6.1199,-6.1217,-6.1272,-6.0807,-6.0256,-6.0214,-5.9598,-5.8904,-5.879,-5.8781,-5.8925,-5.9541,-5.9871,-6.0238,-6.0882,-6.0315,-5.9557,-5.9011,-5.9485,-5.9973,-5.9994,-6.0604,-6.1059,-6.1079,-6.1059,-6.1512,-6.2748,-6.3074,-6.3505,-6.432,-6.4594,-6.4663,-6.4614,-6.4025,-6.3743,-6.3935,-6.3295,-6.254,-6.1771,-6.331,-6.386,-6.3168,-6.4764,-6.5494,-6.5352,-6.5352,-6.5633,-6.6129,-6.6045,-6.5959,0.0,0.0,0.0,0.0,0.0,0.0,0.0,0.0,0.0,0.0,0.0,0.0,0.0,0.0,0.0,0.0,0.0,0.0,0.0,0.0,0.0,0.0,0.0,0.0,0.0,0.0,0.0,0.0,0.0,0.0,-4.6133,-4.7024,-4.7868,-4.8716,-4.9616,-5.0442,-5.1203,-5.1281,-5.1292,-5.131,-5.213,-5.2533,-5.2567,-5.4246,-5.5063,-5.5132,-5.6014,-5.6391,-5.6542,-5.8209,-5.881,-5.8869,-6.0616,-6.1178,-6.1012,-6.1012,-6.101,-6.0997,-6.0982,-6.101,-6.1029,-6.1175,-6.1127,-6.1032,-6.1164,-6.1116,-6.105,-6.1041,-6.046,-5.9812,-5.9809,-5.9826,-5.9818,-5.9856,-6.0515,-6.1098,-6.1029,-6.0948,-6.092,-6.0866,-6.0876,-6.0993,-6.1077,-6.1173,-6.1191,-6.1281,-6.1247,-6.1212,-6.1328,-6.195,-6.2702,-6.3541,-6.4293,-6.4713,-6.4686,-6.4588,-6.3858,-6.2332,-6.2186,-6.1785,-6.0977,-6.2601,-6.3465,-6.3308,-6.4923,-6.5703,-6.5494,-6.5494,-6.5444,-6.535,-6.527,-6.5137,0.0,0.0,0.0,0.0,0.0,0.0,0.0,0.0,0.0,0.0,0.0,0.0,0.0,0.0,0.0,0.0,0.0,0.0,0.0,0.0,0.0,0.0,0.0,0.0,0.0,0.0,0.0,0.0,0.0,0.0,-4.5391,-4.7339,-4.8538,-4.8794,-5.0174,-5.1041,-5.132,-5.1296,-5.1307,-5.1314,-5.1661,-5.181,-5.1795,-5.351,-5.4308,-5.4383,-5.573,-5.6331,-5.6446,-5.7573,-5.835,-5.8831,-5.939,-6.0256,-6.1059,-6.049,-6.0635,-6.1147,-6.1127,-6.1164,-6.1208,-6.1259,-6.1275,-6.1267,-6.1275,-6.1267,-6.1203,-6.1182,-6.0943,-6.0663,-6.0708,-6.0726,-6.0743,-6.0833,-6.1089,-6.1306,-6.1259,-6.1182,-6.1109,-6.1137,-6.1152,-6.1397,-6.1973,-6.2121,-6.23,-6.2859,-6.2463,-6.2284,-6.2873,-6.315,-6.3592,-6.4347,-6.4612,-6.4729,-6.4698,-6.3661,-6.2752,-6.2139,-6.1609,-6.1219,-6.0911,-6.2551,-6.3168,-6.2629,-6.4251,-6.5244,-6.5566,-6.5025,-6.47,-6.4641,-6.4504,-6.4378,-2.0742,0.0,0.0,0.0,0.0,0.0,0.0,0.0,0.0,0.0,0.0,0.0,0.0,0.0,0.0,0.0,0.0,0.0,0.0,0.0,0.0,0.0,0.0,0.0,0.0,0.0,0.0,0.0,0.0,0.0,-4.4922,-4.6911,-4.8265,-4.8786,-5.0204,-5.092,-5.0899,-5.119,-5.1317,-5.133,-5.1369,-5.1366,-5.1398,-5.2802,-5.3607,-5.3966,-5.5355,-5.609,-5.6362,-5.7237,-5.7903,-5.8404,-5.8963,-5.9855,-6.0743,-6.0485,-6.0726,-6.1208,-6.1208,-6.125,-6.1299,-6.1299,-6.1322,-6.1376,-6.1306,-6.1299,-6.1291,-6.1264,-6.1191,-6.1182,-6.1225,-6.1242,-6.136,-6.173,-6.1648,-6.1499,-6.1823,-6.1546,-6.1259,-6.1275,-6.1337,-6.1659,-6.2528,-6.2407,-6.2627,-6.3794,-6.3236,-6.2983,-6.385,-6.393,-6.4061,-6.453,-6.4463,-6.4243,-6.3885,-6.2799,-6.1982,-6.1678,-6.1185,-6.0911,-6.0911,-6.2243,-6.2728,-6.2221,-6.3576,-6.4484,-6.4858,-6.4241,-6.389,-6.3886,-6.397,-6.4114,0.0,0.0,0.0,0.0,0.0,0.0,0.0,0.0,0.0,0.0,0.0,0.0,0.0,0.0,0.0,0.0,0.0,0.0,0.0,0.0,0.0,0.0,0.0,0.0,0.0,0.0,0.0,0.0,0.0,-4.3125,-4.4883,-4.5855,-4.7126,-4.8761,-4.9627,-5.0045,-5.0098,-5.0885,-5.133,-5.1399,-5.133,-5.1323,-5.1414,-5.2236,-5.3075,-5.3935,-5.483,-5.5623,-5.6386,-5.7223,-5.756,-5.7674,-5.9335,-5.9972,-6.0057,-6.091,-6.122,-6.1267,-6.1306,-6.1306,-6.1306,-6.1306,-6.1306,-6.1306,-6.1306,-6.1306,-6.1306,-6.1297,-6.1297,-6.1314,-6.1314,-6.1352,-6.1666,-6.2484,-6.2127,-6.1768,-6.2619,-6.2049,-6.1408,-6.1396,-6.1466,-6.1768,-6.2658,-6.2099,-6.2119,-6.3872,-6.3385,-6.3169,-6.4026,-6.3982,-6.3898,-6.3883,-6.3719,-6.3194,-6.2281,-6.2132,-6.1716,-6.087,-6.0888,-6.0911,-6.0911,-6.1747,-6.2204,-6.2193,-6.3031,-6.3433,-6.3338,-6.3206,-6.3078,-6.2968,-6.3685,-6.4405,-1.924,0.0,0.0,0.0,0.0,0.0,0.0,0.0,0.0,0.0,0.0,0.0,0.0,0.0,0.0,0.0,0.0,0.0,0.0,0.0,0.0,0.0,0.0,0.0,0.0,0.0,0.0,0.0,0.0,-4.2266,-4.3984,-4.6634,-4.8332,-4.88,-5.0235,-5.0732,-5.0098,-5.0946,-5.1391,-5.1399,-5.1399,-5.1362,-5.1442,-5.2264,-5.3157,-5.4008,-5.4853,-5.5652,-5.6445,-5.6597,-5.702,-5.754,-5.7352,-5.8054,-5.9165,-5.9336,-5.984,-6.0523,-6.1112,-6.1322,-6.1383,-6.1383,-6.1383,-6.1337,-6.1314,-6.1306,-6.1299,-6.1306,-6.1297,-6.133,-6.1415,-6.1918,-6.2507,-6.2767,-6.2659,-6.2595,-6.2812,-6.218,-6.1534,-6.1466,-6.1515,-6.1846,-6.2712,-6.2656,-6.3101,-6.4852,-6.438,-6.4095,-6.4919,-6.4443,-6.4021,-6.3899,-6.324,-6.2665,-6.2305,-6.1685,-6.119,-6.0955,-6.0969,-6.0962,-6.0962,-6.1821,-6.1986,-6.133,-6.2138,-6.2249,-6.1604,-6.2053,-6.226,-6.2207,-6.2204,-6.2688,-2.1953,-2.2621,-2.3949,0.0,0.0,0.0,0.0,0.0,0.0,0.0,0.0,0.0,0.0,0.0,0.0,0.0,0.0,0.0,0.0,0.0,0.0,0.0,0.0,0.0,0.0,0.0,0.0,0.0,-4.035,-4.1522,-4.3593,-4.6595,-4.8254,-4.8262,-4.9583,-5.0082,-4.9565,-5.0411,-5.0852,-5.0857,-5.1215,-5.1414,-5.1414,-5.2312,-5.3171,-5.4066,-5.4872,-5.5725,-5.6539,-5.6441,-5.6665,-5.7097,-5.6891,-5.7638,-5.8823,-5.8789,-5.9566,-6.0667,-6.0769,-6.1048,-6.1412,-6.1412,-6.1412,-6.1373,-6.1352,-6.1344,-6.1337,-6.1353,-6.1322,-6.1366,-6.146,-6.2135,-6.279,-6.2854,-6.2886,-6.291,-6.2889,-6.2521,-6.2176,-6.2102,-6.2148,-6.2587,-6.3797,-6.3695,-6.4055,-6.5764,-6.5283,-6.4907,-6.5338,-6.4938,-6.4273,-6.3433,-6.284,-6.2316,-6.1785,-6.1291,-6.099,-6.0997,-6.099,-6.101,-6.101,-6.1512,-6.1523,-6.1002,-6.1474,-6.1422,-6.0911,-6.1269,-6.1619,-6.1927,-6.1701,-6.2104,-2.6409,-2.6292,-2.6833,0.0,0.0,0.0,0.0,-2.4839,0.0,0.0,0.0,0.0,0.0,0.0,0.0,0.0,0.0,0.0,0.0,0.0,0.0,0.0,0.0,0.0,0.0,0.0,0.0,-3.9568,-3.9916,-4.1166,-4.3554,-4.6205,-4.7593,-4.7494,-4.8457,-4.8917,-4.8797,-4.9672,-5.0115,-5.0124,-5.0984,-5.1414,-5.1414,-5.2312,-5.3171,-5.4068,-5.4927,-5.5786,-5.6604,-5.6539,-5.6457,-5.6475,-5.7245,-5.8003,-5.8637,-5.8842,-5.9847,-6.1046,-6.0469,-6.0766,-6.1381,-6.1419,-6.1412,-6.1412,-6.1412,-6.1412,-6.1412,-6.1381,-6.1415,-6.1408,-6.149,-6.2163,-6.2797,-6.2829,-6.2851,-6.2935,-6.3029,-6.2943,-6.2917,-6.3021,-6.3101,-6.3613,-6.5097,-6.4752,-6.4831,-6.642,-6.5895,-6.5358,-6.5394,-6.5166,-6.4409,-6.2781,-6.246,-6.1986,-6.1119,-6.1021,-6.1029,-6.1029,-6.1029,-6.1029,-6.1029,-6.1018,-6.1,-6.1012,-6.1002,-6.098,-6.0922,-6.0843,-6.1168,-6.1825,-6.1657,-6.2013,0.0,0.0,0.0,0.0,0.0,0.0,0.0,-2.392,0.0,0.0,0.0,0.0,0.0,0.0,0.0,0.0,0.0,0.0,0.0,0.0,0.0,0.0,0.0,0.0,0.0,0.0,-3.7607,-3.7808,-4.035,-4.2422,-4.3632,-4.683,-4.8263,-4.7533,-4.9022,-4.9523,-4.8797,-4.9642,-5.0083,-5.0124,-5.0984,-5.1414,-5.1414,-5.2312,-5.3171,-5.4068,-5.4927,-5.5786,-5.6604,-5.6599,-5.6533,-5.648,-5.6597,-5.6762,-5.7048,-5.8398,-5.9099,-5.956,-6.0735,-6.1272,-6.1421,-6.1388,-6.1412,-6.1412,-6.1412,-6.1412,-6.1381,-6.1415,-6.1447,-6.149,-6.1564,-6.2219,-6.2906,-6.2942,-6.2964,-6.3174,-6.3886,-6.2921,-6.2342,-6.375,-6.4059,-6.4169,-6.4481,-6.4404,-6.4634,-6.5592,-6.4999,-6.4665,-6.5333,-6.4159,-6.3124,-6.2709,-6.1989,-6.143,-6.1264,-6.1255,-6.1247,-6.1247,-6.1247,-6.1247,-6.1247,-6.1203,-6.1127,-6.106,-6.1021,-6.0997,-6.0976,-6.0793,-6.075,-6.0866,-6.084,-6.0917,0.0,0.0,0.0,-3.243,0.0,0.0,0.0,0.0,0.0,0.0,0.0,0.0,0.0,0.0,0.0,0.0,0.0,0.0,0.0,0.0,0.0,0.0,0.0,0.0,0.0,0.0,-3.6351,-3.7214,-4.0116,-4.2187,-4.3007,-4.5933,-4.7559,-4.7502,-4.8359,-4.8818,-4.8797,-4.9215,-4.9655,-5.0124,-5.0984,-5.1648,-5.2078,-5.2936,-5.3834,-5.4693,-5.5552,-5.6216,-5.6606,-5.6606,-5.655,-5.6482,-5.6464,-5.671,-5.7186,-5.799,-5.887,-5.971,-6.0538,-6.1065,-6.1396,-6.1415,-6.1408,-6.1408,-6.1408,-6.1415,-6.1441,-6.1439,-6.1518,-6.1559,-6.1608,-6.2258,-6.2782,-6.241,-6.2974,-6.3535,-6.3113,-6.3005,-6.3125,-6.3551,-6.3983,-6.4297,-6.4297,-6.4297,-6.4451,-6.483,-6.4503,-6.416,-6.412,-6.333,-6.26,-6.2065,-6.157,-6.1306,-6.1306,-6.1297,-6.1297,-6.1297,-6.1297,-6.1297,-6.1297,-6.1272,-6.1199,-6.1155,-6.108,-6.1041,-6.1041,-6.0872,-6.0781,-6.0808,-6.071,-6.076,0.0,0.0,0.0,0.0,0.0,-3.4145,0.0,0.0,0.0,0.0,0.0,0.0,0.0,0.0,0.0,0.0,0.0,0.0,0.0,0.0,0.0,0.0,0.0,0.0,0.0,0.0,-3.4906,-3.6661,-3.8748,-4.0586,-4.2106,-4.4644,-4.658,-4.7703,-4.7732,-4.8189,-4.9031,-4.9059,-4.9384,-5.0127,-5.1143,-5.2003,-5.2749,-5.3762,-5.4621,-5.5365,-5.622,-5.6608,-5.6608,-5.6606,-5.656,-5.6511,-5.6509,-5.692,-5.7552,-5.7693,-5.8724,-6.0064,-6.0199,-6.0756,-6.1427,-6.1421,-6.1415,-6.1408,-6.1408,-6.1466,-6.1501,-6.1539,-6.1578,-6.1615,-6.1605,-6.2128,-6.2491,-6.1793,-6.2748,-6.3465,-6.222,-6.293,-6.3627,-6.3115,-6.3425,-6.3894,-6.4248,-6.4292,-6.4296,-6.4295,-6.4083,-6.3653,-6.2912,-6.2652,-6.2225,-6.1422,-6.1329,-6.1322,-6.133,-6.1322,-6.1322,-6.1322,-6.1322,-6.1322,-6.1322,-6.1314,-6.1259,-6.1217,-6.1155,-6.1137,-6.1155,-6.0846,-6.0773,-6.0976,-6.085,-6.0762,0.0,0.0,0.0,0.0,-3.8286,0.0,0.0,0.0,0.0,0.0,0.0,0.0,0.0,0.0,0.0,0.0,0.0,0.0,0.0,0.0,0.0,0.0,0.0,0.0,0.0,0.0,0.0,-3.4876,-3.5273,-3.7148,-4.1133,-4.3742,-4.6227,-4.856,-4.8632,-4.9089,-4.9931,-4.9957,-5.0012,-5.0137,-5.1779,-5.2603,-5.2764,-5.4405,-5.5225,-5.5342,-5.6232,-5.6619,-5.6618,-5.661,-5.6604,-5.6563,-5.6511,-5.6575,-5.6751,-5.7492,-5.8386,-5.9357,-6.004,-6.0837,-6.1554,-6.1489,-6.1501,-6.1478,-6.1478,-6.1501,-6.15,-6.1582,-6.1573,-6.1605,-6.1686,-6.1777,-6.1824,-6.1713,-6.1835,-6.2148,-6.2733,-6.2414,-6.2209,-6.2872,-6.2473,-6.2473,-6.4012,-6.4292,-6.4296,-6.4295,-6.3575,-6.2987,-6.2829,-6.2146,-6.157,-6.1419,-6.1405,-6.1405,-6.1405,-6.1405,-6.1405,-6.1405,-6.1405,-6.1405,-6.1405,-6.1329,-6.1314,-6.1306,-6.1225,-6.1217,-6.1299,-6.0381,-6.0238,-6.0834,-6.0872,-6.0431,0.0,0.0,0.0,0.0,0.0,0.0,0.0,0.0,-3.3351,0.0,0.0,0.0,0.0,0.0,0.0,0.0,0.0,0.0,0.0,0.0,0.0,0.0,0.0,0.0,0.0,0.0,0.0,0.0,0.0,-3.4881,-3.8747,-4.1349,-4.4149,-4.7198,-4.7767,-4.8706,-5.0092,-5.0098,-5.0613,-5.1634,-5.2338,-5.3236,-5.4211,-5.4953,-5.5578,-5.6085,-5.6434,-5.6588,-5.6588,-5.6585,-5.6584,-5.6584,-5.6579,-5.6523,-5.6614,-5.7473,-5.8364,-5.9215,-6.0063,-6.0906,-6.1586,-6.1564,-6.1568,-6.1543,-6.1543,-6.1603,-6.1634,-6.1648,-6.1671,-6.1651,-6.1702,-6.171,-6.1714,-6.1716,-6.2109,-6.2421,-6.2264,-6.2373,-6.2399,-6.2275,-6.1957,-6.1918,-6.267,-6.28,-6.277,-6.2773,-6.2446,-6.217,-6.2106,-6.1739,-6.1495,-6.1447,-6.148,-6.148,-6.148,-6.148,-6.148,-6.148,-6.146,-6.1439,-6.1456,-6.1447,-6.1421,-6.1421,-6.1344,-6.1074,-6.0546,-6.0079,-5.9725,-5.9464,-5.9503,-5.9539,-4.0038,0.0,0.0,0.0,0.0,0.0,0.0,0.0,0.0,0.0,0.0,0.0,0.0,0.0,0.0,0.0,0.0,0.0,0.0,0.0,0.0,0.0,0.0,0.0,0.0,0.0,0.0,0.0,0.0,0.0,-3.6357,-3.8993,-4.2151,-4.6069,-4.7299,-4.8673,-5.0423,-5.0697,-5.1441,-5.2694,-5.3163,-5.4061,-5.5308,-5.5543,-5.6011,-5.6597,-5.6596,-5.6595,-5.6595,-5.6593,-5.6593,-5.6593,-5.6593,-5.6584,-5.6641,-5.7499,-5.8353,-5.9204,-6.0102,-6.0948,-6.1634,-6.1612,-6.1627,-6.1651,-6.1651,-6.1666,-6.1681,-6.1688,-6.1701,-6.1709,-6.1712,-6.1716,-6.1718,-6.1718,-6.2187,-6.2459,-6.1831,-6.2213,-6.2473,-6.1837,-6.1718,-6.1718,-6.1718,-6.1697,-6.1711,-6.1717,-6.1708,-6.1668,-6.1627,-6.1534,-6.1479,-6.1484,-6.1484,-6.1484,-6.1484,-6.149,-6.1501,-6.1507,-6.1489,-6.151,-6.149,-6.1489,-6.1507,-6.1546,-6.1246,-6.0734,-6.0053,-5.949,-5.9008,-5.8519,-5.8491,-5.8674,0.0,0.0,0.0,-3.8845,0.0,0.0,0.0,0.0,-3.7006,0.0,0.0,0.0,0.0,0.0,-2.9516,-2.7059,0.0,0.0,0.0,0.0,0.0,0.0,0.0,0.0,0.0,0.0,0.0,0.0,0.0,0.0,-3.448,-3.7198,-4.0902,-4.603,-4.7854,-4.9618,-5.1359,-5.2184,-5.2655,-5.2734,-5.4414,-5.5234,-5.5312,-5.6172,-5.6562,-5.6601,-5.66,-5.6599,-5.6599,-5.6595,-5.6593,-5.6593,-5.6593,-5.6592,-5.6709,-5.7568,-5.8427,-5.9208,-6.0108,-6.0962,-6.1694,-6.1681,-6.1718,-6.1718,-6.1718,-6.1718,-6.1686,-6.1704,-6.1708,-6.1711,-6.1718,-6.1719,-6.1719,-6.1717,-6.1714,-6.1747,-6.1701,-6.1729,-6.172,-6.1718,-6.1718,-6.1718,-6.1718,-6.1697,-6.1709,-6.1709,-6.1713,-6.1674,-6.1621,-6.1552,-6.1479,-6.1484,-6.1484,-6.1484,-6.1484,-6.1512,-6.15,-6.1486,-6.149,-6.149,-6.149,-6.149,-6.1529,-6.1607,-6.0695,-6.0233,-6.02,-5.8422,-5.7916,-5.8604,-5.8548,-5.7978,0.0,0.0,-4.379,-4.0492,0.0,0.0,0.0,0.0,0.0,0.0,0.0,0.0,0.0,-3.1494,-2.9924,-2.8574,-2.6979,-2.5184,0.0,0.0,0.0,0.0,0.0,0.0,0.0,0.0,0.0,0.0,0.0,0.0,0.0,-3.7035,-4.0945,-4.4438,-4.7323,-4.964,-5.1366,-5.2264,-5.3277,-5.4445,-5.5032,-5.5308,-5.5312,-5.621,-5.6289,-5.5781,-5.6367,-5.6601,-5.6601,-5.6601,-5.6601,-5.6601,-5.6601,-5.6601,-5.6717,-5.7572,-5.8428,-5.9327,-6.0772,-6.1435,-6.1704,-6.1696,-6.1701,-6.1708,-6.1702,-6.1708,-6.1715,-6.1717,-6.1717,-6.1718,-6.1719,-6.1718,-6.1718,-6.1717,-6.171,-6.1701,-6.1699,-6.169,-6.1718,-6.1718,-6.1718,-6.1718,-6.1718,-6.1694,-6.1705,-6.1713,-6.1718,-6.1662,-6.1627,-6.1591,-6.1552,-6.1588,-6.1559,-6.1564,-6.1564,-6.1552,-6.1576,-6.1634,-6.1634,-6.1638,-6.1612,-6.1042,-6.0754,-6.0797,-5.9893,-5.9098,-5.8465,-5.7875,-5.73,-5.6818,-5.6256,-5.6049,-4.3329,-4.4286,0.0,0.0,-4.1532,0.0,-3.7095,0.0,0.0,0.0,0.0,0.0,0.0,0.0,-3.1358,-3.021,-2.8203,-2.601,0.0,0.0,0.0,0.0,0.0,0.0,0.0,0.0,-2.2263,-2.3474,0.0,0.0,0.0,0.0,-3.9935,-4.3153,-4.6553,-4.9179,-5.093,-5.2097,-5.3266,-5.4397,-5.4706,-5.4831,-5.4879,-5.5738,-5.5818,-5.5351,-5.6211,-5.6601,-5.6601,-5.6601,-5.6601,-5.6601,-5.6601,-5.6601,-5.6718,-5.7576,-5.8434,-5.9332,-6.0738,-6.1245,-6.1285,-6.1594,-6.1716,-6.1718,-6.1717,-6.1719,-6.1717,-6.1717,-6.1717,-6.1717,-6.1717,-6.1716,-6.1714,-6.1712,-6.1705,-6.1697,-6.1694,-6.1686,-6.1718,-6.1718,-6.1718,-6.1601,-6.1291,-6.1221,-6.1351,-6.1635,-6.1719,-6.1556,-6.1217,-6.1431,-6.1407,-6.0789,-6.1226,-6.1623,-6.1623,-6.1638,-6.1651,-6.1705,-6.1707,-6.1554,-6.1249,-6.0648,-6.0204,-5.996,-5.9034,-5.8082,-5.7124,-5.6842,-5.613,-5.5019,-5.4503,-5.4348]},{"header":{"parameterUnit":"m.s-1","parameterCategory":1,"la1":30.6,"la2":29.2853,"lo1":-89.7004,"lo2":-87.6739,"dy":0.0162,"dx":0.0183,"nx":112,"ny":82,"refTime":"2025-05-16T00:00:00:Z","depth":0,"parameterNumber":3,"parameterNumberName":"V-component_of_WINDS"},"data":[0.0,0.0,0.0,0.0,0.0,0.0,0.0,0.0,0.0,0.0,0.0,0.0,0.0,0.0,0.0,0.0,0.0,0.0,0.0,0.0,0.0,0.0,0.0,0.0,0.0,0.0,0.0,0.0,0.0,0.0,0.0,0.0,0.0,0.0,0.0,0.0,0.0,0.0,0.0,0.0,0.0,0.0,0.0,0.0,0.0,0.0,0.0,0.0,0.0,0.0,0.0,0.0,0.0,0.0,0.0,0.0,0.0,0.0,0.0,0.0,0.0,0.0,0.0,0.0,0.0,0.0,0.0,0.0,0.0,0.0,0.0,0.0,0.0,0.0,0.0,0.0,0.0,0.0,0.0,0.0,0.0,0.0,0.0,0.0,0.0,0.0,0.0,0.0,0.0,0.0,0.0,-0.7088,-0.786,-0.8097,-0.7795,-0.673,-0.5256,-0.3344,0.0,0.0,0.0,0.0,0.0,0.0,0.0,0.0,0.0,0.0,0.0,0.0,0.0,0.0,0.0,0.0,0.0,0.0,0.0,0.0,0.0,0.0,0.0,0.0,0.0,0.0,0.0,0.0,0.0,0.0,0.0,0.0,0.0,0.0,0.0,0.0,0.0,0.0,0.0,0.0,0.0,0.0,0.0,0.0,0.0,0.0,0.0,0.0,0.0,0.0,0.0,0.0,0.0,0.0,0.0,0.0,0.0,0.0,0.0,0.0,0.0,0.0,0.0,0.0,0.0,0.0,0.0,0.0,0.0,0.0,0.0,0.0,0.0,0.0,0.0,0.0,0.0,0.0,0.0,0.0,0.0,0.0,0.0,0.0,0.0,0.0,0.0,0.0,0.0,0.0,0.0,0.0,0.0,0.0,0.0,0.0,0.0,0.0,0.0,0.0,0.0,0.0,0.0,0.0,-0.4798,-0.7272,-0.8336,-0.8518,-0.7614,-0.6596,-0.5218,-0.3393,0.0,0.0,0.0,0.0,0.0,0.0,0.0,0.0,0.0,0.0,0.0,0.0,0.0,0.0,0.0,0.0,0.0,0.0,0.0,0.0,0.0,0.0,0.0,0.0,0.0,0.0,0.0,0.0,0.0,0.0,0.0,0.0,0.0,0.0,0.0,0.0,0.0,0.0,0.0,0.0,0.0,0.0,0.0,0.0,0.0,0.0,0.0,0.0,0.0,0.0,0.0,0.0,0.0,0.0,0.0,0.0,0.0,0.0,0.0,0.0,0.0,0.0,0.0,0.0,0.0,0.0,0.0,0.0,0.0,0.0,0.0,0.0,0.0,0.0,0.0,0.0,0.0,0.0,0.0,0.0,0.0,0.0,0.0,0.0,0.0,0.0,0.0,0.0,0.0,0.0,0.0,0.0,0.0,0.0,0.0,0.0,0.0,0.0,0.0,0.0,0.0,0.0,0.0,-0.4422,-0.5837,-0.7805,-0.8505,-0.8499,-0.7718,-0.6625,-0.5239,-0.3408,-0.2355,0.0,0.0,0.0,0.0,0.0,0.0,0.0,0.0,0.0,0.0,0.0,0.0,0.0,0.0,0.0,0.0,0.0,0.0,0.0,0.0,0.0,0.0,0.0,0.0,0.0,0.0,0.0,0.0,0.0,0.0,0.0,0.0,0.0,0.0,0.0,0.0,0.0,0.0,0.0,0.0,0.0,0.0,0.0,0.0,0.0,0.0,0.0,0.0,0.0,0.0,0.0,0.0,0.0,0.0,0.0,0.0,0.0,0.0,0.0,0.0,0.0,0.0,0.0,0.0,0.0,0.0,0.0,0.0,0.0,0.0,0.0,0.0,0.0,0.0,0.0,0.0,0.0,0.0,0.0,0.0,0.0,0.0,0.0,0.0,0.0,0.0,0.0,0.0,0.0,0.0,0.0,0.0,0.0,0.0,0.0,0.0,0.0,0.0,0.0,0.0,0.0,0.0,-0.565,-0.6699,-0.8059,-0.8365,-0.8322,-0.7817,-0.6518,-0.5028,-0.3404,-0.1973,0.0,0.0,0.0,0.0,0.0,0.0,0.0,0.0,0.0,0.0,0.0,0.0,0.0,0.0,0.0,0.0,0.0,0.0,0.0,0.0,0.0,0.0,0.0,0.0,0.0,0.0,0.0,0.0,0.0,0.0,0.0,0.0,0.0,0.0,0.0,0.0,0.0,0.0,0.0,0.0,0.0,0.0,0.0,0.0,0.0,0.0,0.0,0.0,0.0,0.0,0.0,0.0,0.0,0.0,0.0,0.0,0.0,0.0,0.0,0.0,0.0,0.0,0.0,0.0,0.0,0.0,0.0,0.0,0.0,0.0,0.0,0.0,0.0,0.0,0.0,0.0,0.0,0.0,0.0,0.0,0.0,0.0,0.0,0.0,0.0,0.0,0.0,0.0,0.0,0.0,0.0,0.0,0.0,0.0,0.0,0.0,0.0,0.0,0.0,0.0,0.0,0.0,-0.4894,-0.6305,-0.754,-0.7799,-0.7855,-0.7825,-0.5993,-0.4425,-0.3356,-0.1576,0.0,0.0,0.0,0.0,0.0,0.0,0.0,0.0,0.0,0.0,0.0,0.0,0.0,0.0,0.0,0.0,0.0,0.0,0.0,0.0,0.0,0.0,0.0,0.0,0.0,0.0,0.0,0.0,0.0,0.0,0.0,0.0,0.0,0.0,0.0,0.0,0.0,0.0,0.0,0.0,0.0,0.0,0.0,0.0,0.0,0.0,0.0,0.0,0.0,0.0,0.0,0.0,0.0,0.0,0.0,0.0,0.0,0.0,0.0,0.0,0.0,0.0,0.0,0.0,0.0,0.0,0.0,0.0,0.0,0.0,0.0,0.0,0.0,0.0,0.0,0.0,0.0,0.0,0.0,0.0,0.0,0.0,0.0,0.0,0.0,0.0,0.0,0.0,0.0,0.0,0.0,0.0,0.0,0.0,0.0,0.0,0.0,0.0,0.0,0.0,0.0,0.0,-0.439,-0.5747,0.0,-0.7864,-0.8169,-0.8169,-0.6868,-0.5349,-0.3702,0.0,0.0,0.0,0.0,0.0,0.0,0.0,0.0,0.0,0.0,0.0,0.0,0.0,0.0,0.0,0.0,0.0,0.0,0.0,0.0,0.0,0.0,0.0,0.0,0.0,0.0,0.0,0.0,0.0,0.0,0.0,0.0,0.0,0.0,0.0,0.0,0.0,0.0,0.0,0.0,0.0,0.0,0.0,0.0,0.0,0.0,0.0,0.0,0.0,0.0,0.0,0.0,0.0,0.0,0.0,0.0,0.0,0.0,0.0,0.0,0.0,0.0,0.0,0.0,0.0,0.0,0.0,0.0,0.0,0.0,0.0,0.0,0.0,0.0,0.0,0.0,0.0,0.0,0.0,0.0,0.0,0.0,0.0,0.0,0.0,0.0,0.0,0.0,0.0,0.0,0.0,0.0,0.0,0.0,0.0,0.0,0.0,0.0,0.0,0.0,0.0,0.0,-0.3067,-0.4253,-0.5608,0.0,-0.7976,-0.8399,-0.8399,-0.7256,-0.5732,-0.3912,0.0,0.0,0.0,0.0,0.0,0.0,0.0,0.0,0.0,0.0,0.0,0.0,0.0,0.0,0.0,0.0,0.0,0.0,0.0,0.0,0.0,0.0,0.0,0.0,0.0,0.0,0.0,0.0,0.0,0.0,0.0,0.0,0.0,0.0,0.0,0.0,0.0,0.0,0.0,0.0,0.0,0.0,0.0,0.0,0.0,0.0,0.0,0.0,0.0,0.0,0.0,0.0,0.0,0.0,0.0,0.0,0.0,0.0,0.0,0.0,0.0,0.0,0.0,0.0,0.0,0.0,0.0,0.0,0.0,0.0,0.0,0.0,0.0,0.0,0.0,0.0,0.0,0.0,0.0,0.0,0.0,0.0,0.0,0.0,0.0,0.0,0.0,0.0,0.0,0.0,0.0,0.0,0.0,0.0,0.0,0.0,0.0,0.0,0.0,0.0,0.0,0.0,-0.2984,-0.4505,-0.5966,-0.7186,-0.7976,-0.8399,-0.8399,-0.688,-0.5319,0.0,0.0,0.0,0.0,0.0,0.0,0.0,0.0,0.0,0.0,0.0,0.0,0.0,0.0,0.0,0.0,0.0,0.0,0.0,0.0,0.0,0.0,0.0,0.0,0.0,0.0,0.0,0.0,0.0,0.0,0.0,0.0,0.0,0.0,0.0,0.0,0.0,0.0,0.0,0.0,0.0,0.0,0.0,0.0,0.0,0.0,0.0,0.0,0.0,0.0,0.0,0.0,0.0,0.0,0.0,0.0,0.0,0.0,0.0,0.0,0.0,0.0,0.0,0.0,0.0,0.0,0.0,0.0,0.0,0.0,0.0,0.0,0.0,0.0,0.0,0.0,0.0,0.0,0.0,0.0,0.0,0.0,0.0,0.0,0.0,0.0,0.0,0.0,0.0,0.0,0.0,0.0,0.0,0.0,0.0,0.0,0.0,0.0,0.0,0.0,0.0,0.0,0.0,-0.2857,-0.4621,-0.6205,-0.7147,-0.7798,-0.8273,-0.8532,-0.7403,-0.5953,-0.4257,0.0,0.0,0.0,0.0,0.0,0.0,0.0,0.0,0.0,0.0,0.0,0.0,0.0,0.0,0.0,0.0,0.0,0.0,0.0,0.0,0.0,0.0,0.0,0.0,0.0,0.0,0.0,0.0,0.0,0.0,0.0,0.0,0.0,0.0,0.0,0.0,0.0,0.0,0.0,0.0,0.0,0.0,0.0,0.0,0.0,0.0,0.0,0.0,0.0,0.0,0.0,0.0,0.0,0.0,0.0,0.0,0.0,0.0,0.0,0.0,0.0,0.0,0.0,0.0,0.0,0.0,0.0,0.0,0.0,0.0,0.0,0.0,0.0,0.0,0.0,0.0,0.0,0.0,0.0,0.0,0.0,0.0,0.0,0.0,0.0,0.0,0.0,0.0,0.0,0.0,0.0,0.0,0.0,0.0,0.0,0.0,0.0,0.0,0.0,0.0,0.0,0.0,-0.3208,-0.4941,-0.6474,-0.7333,-0.8096,-0.8571,-0.8594,-0.795,-0.6696,-0.4703,0.0,0.0,0.0,0.0,0.0,0.0,0.0,0.0,0.0,0.0,0.0,0.0,0.0,0.0,0.0,0.0,0.0,0.0,0.0,0.0,0.0,0.0,0.0,0.0,0.0,0.0,0.0,0.0,0.0,0.0,0.0,0.0,0.0,0.0,0.0,0.0,0.0,0.0,0.0,0.0,0.0,0.0,0.0,0.0,0.0,0.0,0.0,0.0,0.0,0.0,0.0,0.0,0.0,0.0,0.0,0.0,0.0,0.0,0.0,0.0,0.0,0.0,0.0,0.0,0.0,0.0,0.0,0.0,0.0,0.0,0.0,0.0,0.0,0.0,0.0,0.0,0.0,0.0,0.0,0.0,0.0,0.0,0.0,0.0,0.0,0.0,0.0,0.0,0.0,0.0,0.0,0.0,0.0,0.0,0.0,0.0,0.0,0.0,0.0,0.0,0.0,0.0,-0.3904,-0.5423,-0.6819,-0.7711,-0.862,-0.9034,-0.8684,-0.8446,-0.741,-0.5314,0.0,0.0,0.0,0.0,0.0,0.0,0.0,0.0,0.0,0.0,0.0,0.0,0.0,0.0,0.0,0.0,0.0,0.0,0.0,0.0,0.0,0.0,0.0,0.0,0.0,0.0,0.0,0.0,0.0,0.0,0.0,0.0,0.0,0.0,0.0,0.0,0.0,0.0,0.0,0.0,0.0,0.0,0.0,0.0,0.0,0.0,0.0,0.0,0.0,0.0,0.0,0.0,0.0,0.0,0.0,0.0,0.0,0.0,0.0,0.0,-1.5911,0.0,0.0,0.0,0.0,0.0,0.0,0.0,0.0,0.0,0.0,0.0,0.0,0.0,0.0,0.0,0.0,0.0,0.0,0.0,0.0,0.0,0.0,0.0,0.0,0.0,0.0,0.0,0.0,0.0,0.0,0.0,0.0,0.0,0.0,0.0,0.0,0.0,0.0,0.0,0.0,0.0,-0.4543,-0.635,-0.772,-0.7949,-0.8518,-0.8994,-0.9197,-0.8279,-0.735,-0.6552,0.0,0.0,0.0,0.0,0.0,0.0,0.0,0.0,0.0,0.0,0.0,0.0,0.0,0.0,0.0,0.0,0.0,0.0,0.0,0.0,0.0,0.0,0.0,0.0,0.0,0.0,0.0,0.0,0.0,0.0,0.0,0.0,0.0,0.0,0.0,0.0,0.0,0.0,0.0,0.0,0.0,0.0,0.0,0.0,0.0,0.0,0.0,0.0,0.0,0.0,0.0,0.0,0.0,0.0,0.0,0.0,0.0,0.0,0.0,0.0,0.0,-1.6218,0.0,0.0,0.0,0.0,0.0,0.0,0.0,0.0,0.0,0.0,0.0,0.0,0.0,0.0,0.0,0.0,0.0,0.0,0.0,0.0,0.0,0.0,0.0,0.0,0.0,0.0,0.0,0.0,0.0,0.0,0.0,0.0,0.0,0.0,0.0,0.0,0.0,0.0,0.0,0.0,-0.533,-0.6774,-0.7866,-0.8204,-0.8646,-0.8986,-0.9172,-0.8603,-0.7899,-0.7094,-0.6492,0.0,0.0,0.0,0.0,0.0,0.0,0.0,0.0,0.0,0.0,0.0,0.0,0.0,0.0,0.0,0.0,0.0,0.0,0.0,0.0,0.0,0.0,0.0,0.0,0.0,0.0,0.0,0.0,0.0,0.0,0.0,0.0,0.0,0.0,0.0,0.0,0.0,0.0,0.0,0.0,0.0,0.0,0.0,0.0,0.0,0.0,0.0,0.0,0.0,0.0,0.0,0.0,0.0,0.0,-1.4004,-1.4393,-1.5229,-1.5842,-1.622,-1.6544,-1.6691,-1.6613,0.0,0.0,0.0,0.0,0.0,0.0,0.0,0.0,0.0,0.0,0.0,0.0,0.0,0.0,0.0,0.0,0.0,0.0,0.0,0.0,0.0,0.0,0.0,0.0,0.0,-0.8056,-0.7852,0.0,0.0,0.0,0.0,0.0,0.0,0.0,0.0,0.0,0.0,0.0,0.0,-0.62,-0.7124,-0.7911,-0.8463,-0.8894,-0.9195,-0.9274,-0.9206,-0.874,-0.7786,-0.744,-0.6941,0.0,0.0,0.0,0.0,0.0,0.0,0.0,0.0,0.0,0.0,0.0,0.0,0.0,0.0,0.0,0.0,0.0,0.0,0.0,0.0,0.0,0.0,0.0,0.0,0.0,0.0,0.0,0.0,0.0,0.0,0.0,0.0,-0.6515,-0.686,0.0,0.0,0.0,0.0,0.0,0.0,0.0,0.0,0.0,0.0,0.0,0.0,0.0,0.0,-1.1297,-1.175,-1.2572,-1.3666,-1.383,-1.4308,-1.5099,-1.5189,-1.5561,-1.6132,-1.6675,0.0,-1.6687,-1.6388,0.0,0.0,0.0,0.0,0.0,0.0,0.0,0.0,0.0,0.0,0.0,0.0,0.0,0.0,0.0,0.0,0.0,0.0,0.0,0.0,0.0,0.0,-1.013,-0.9883,-0.9469,-0.9059,0.0,-0.7509,-0.6257,-0.5808,0.0,0.0,0.0,0.0,0.0,0.0,0.0,0.0,-0.7011,-0.8009,-0.8603,-0.8506,-0.9312,-1.002,-1.0456,-0.998,-0.9725,-0.979,-0.8648,-0.7696,-0.7043,-0.6682,0.0,0.0,0.0,0.0,0.0,0.0,0.0,0.0,0.0,0.0,0.0,0.0,0.0,0.0,0.0,0.0,0.0,0.0,0.0,0.0,0.0,0.0,0.0,0.0,0.0,0.0,0.0,0.0,0.0,-0.5556,-0.629,-0.588,-0.5706,-0.5803,0.0,0.0,0.0,0.0,0.0,0.0,0.0,0.0,0.0,-0.9847,-1.0038,-1.0712,-1.1836,-1.1852,-1.2419,-1.3578,-1.3784,-1.4099,-1.448,-1.4731,-1.514,-1.5591,-1.6146,-1.6564,-1.681,-1.662,-1.6239,-1.5763,0.0,0.0,0.0,0.0,0.0,-1.2805,-1.295,0.0,0.0,0.0,0.0,0.0,0.0,0.0,0.0,0.0,0.0,0.0,0.0,0.0,0.0,-1.0519,-1.0075,-0.9728,-1.0096,-0.9283,-0.8198,0.0,-0.6857,-0.634,-0.5116,0.0,0.0,0.0,0.0,0.0,-0.7467,-0.8163,-0.8679,-0.8765,-0.96,-1.0321,-1.0728,-1.0286,-1.0014,-1.009,-0.9029,-0.8204,-0.7783,-0.7154,-0.6518,0.0,0.0,0.0,0.0,0.0,0.0,0.0,0.0,0.0,0.0,0.0,0.0,0.0,0.0,0.0,0.0,0.0,0.0,0.0,0.0,0.0,0.0,0.0,0.0,0.0,0.0,0.0,0.0,-0.5774,-0.6086,-0.5285,-0.5244,-0.5587,0.0,0.0,0.0,0.0,0.0,0.0,-1.0082,-1.0432,-1.0612,-1.051,-1.0518,-1.1081,-1.2164,-1.199,-1.2467,-1.3577,-1.3732,-1.3898,-1.3956,-1.4302,-1.465,-1.4888,-1.5597,-1.6145,-1.6552,-1.669,-1.6809,-1.6734,-1.6009,-1.5432,-1.4986,-1.5105,-1.4544,-1.3755,-1.4077,-1.3429,-1.2373,-1.1826,0.0,-0.9845,-0.9028,0.0,0.0,0.0,0.0,-0.9861,-0.9837,0.0,-1.0306,-1.0848,-1.051,-1.0213,-1.0721,-1.0431,-0.9681,0.0,-0.8333,-0.7997,-0.6489,0.0,0.0,0.0,0.0,-0.7532,-0.7824,-0.8268,-0.8701,-0.9049,-0.9957,-1.0667,-1.0996,-1.0787,-1.0551,-1.0314,-0.9389,-0.866,-0.8281,-0.7578,-0.7109,-0.6927,0.0,0.0,0.0,0.0,0.0,0.0,0.0,0.0,0.0,0.0,0.0,0.0,0.0,0.0,0.0,0.0,0.0,0.0,0.0,0.0,0.0,0.0,0.0,0.0,0.0,0.0,0.0,0.0,0.0,-0.5524,-0.5022,0.0,0.0,0.0,0.0,-0.9045,-0.9909,-1.0439,-1.0641,-1.086,-1.0755,-1.0248,-1.1067,-1.1592,-1.1618,-1.2404,-1.3094,-1.3715,-1.3725,-1.3838,-1.3977,-1.414,-1.4232,-1.4301,-1.5416,-1.5817,-1.5709,-1.6634,-1.702,-1.7041,-1.6429,-1.5839,-1.5423,-1.5681,-1.5232,-1.4584,-1.4931,-1.3994,-1.273,-1.3143,-1.2283,-1.0989,-1.0334,-1.0161,0.0,0.0,-1.0143,-1.0786,-1.0508,-1.0807,-1.1151,-1.1179,-1.0858,-1.0556,-1.0621,-1.0592,-1.0371,0.0,-0.9115,-0.8588,-0.8001,0.0,-0.7567,-0.7884,-0.7837,-0.7899,-0.8224,-0.8559,-0.8907,-0.9265,-1.0464,-1.1344,-1.1529,-1.195,-1.1874,-1.1091,-1.01,-0.9198,-0.8433,-0.7971,-0.7695,-0.7561,-0.7198,0.0,0.0,0.0,0.0,0.0,0.0,0.0,0.0,0.0,0.0,0.0,0.0,0.0,0.0,0.0,0.0,0.0,0.0,0.0,0.0,0.0,0.0,0.0,0.0,0.0,0.0,0.0,0.0,-0.5202,-0.5097,0.0,0.0,-0.7158,-0.8262,-1.0213,-1.0605,-1.0869,-1.1011,-1.1081,-1.1062,-1.1,-1.13,-1.1768,-1.2413,-1.2931,-1.3384,-1.3901,-1.3648,-1.3624,-1.3689,-1.3607,-1.3564,-1.3633,-1.4569,-1.4983,-1.5033,-1.5899,-1.6402,-1.6617,-1.6275,-1.5851,-1.5486,-1.5397,-1.5389,-1.5361,-1.5104,-1.4548,-1.3708,-1.2503,-1.1792,-1.13,-1.0766,-1.0725,-1.0754,-1.0283,-1.0335,-1.0557,-1.0436,-1.0556,-1.0757,-1.11,-1.0981,-1.0745,-1.0649,-1.0493,-1.027,-0.9724,-0.9696,-0.9406,-0.8276,-0.8292,-0.8376,-0.81,-0.808,-0.8192,-0.8341,-0.8613,-0.9019,-0.9565,-1.0862,-1.1797,-1.2042,-1.2133,-1.1927,-1.1335,-0.9939,-0.8979,-0.8616,-0.8051,-0.7822,-0.8053,-0.8106,-0.7757,0.0,0.0,0.0,0.0,0.0,0.0,0.0,0.0,0.0,0.0,0.0,0.0,0.0,0.0,0.0,0.0,0.0,0.0,0.0,0.0,0.0,0.0,0.0,0.0,0.0,0.0,-0.6214,-0.5262,-0.5269,-0.5831,-0.701,-0.7501,-0.8585,-1.0664,-1.0854,-1.1002,-1.1317,-1.1279,-1.1325,-1.1405,-1.1714,-1.216,-1.2835,-1.3398,-1.3821,-1.4222,-1.3899,-1.3837,-1.3839,-1.3689,-1.3587,-1.3606,-1.4356,-1.4599,-1.4541,-1.535,-1.5628,-1.5669,-1.6046,-1.6025,-1.5818,-1.5731,-1.5856,-1.5965,-1.5366,-1.4867,-1.4211,-1.2587,-1.1841,-1.1544,-1.1244,-1.1154,-1.11,-1.0659,-1.0462,-1.0462,-1.0609,-1.056,-1.056,-1.1198,-1.1086,-1.0839,-1.0622,-1.0551,-1.0371,-0.9724,-0.981,-0.9647,-0.8579,-0.867,-0.8744,-0.8343,-0.837,-0.8435,-0.8392,-0.8689,-0.9173,-0.9896,-1.122,-1.2166,-1.2429,-1.2673,-1.2454,-1.1681,-1.0464,-0.9561,-0.9053,-0.8524,-0.8397,-0.8726,-0.9141,-0.9099,-0.864,0.0,0.0,0.0,0.0,0.0,0.0,0.0,0.0,0.0,0.0,0.0,0.0,0.0,0.0,0.0,0.0,0.0,0.0,0.0,0.0,0.0,0.0,0.0,-0.6028,-0.6325,-0.6294,-0.5758,-0.5567,-0.5867,-0.6773,-0.7346,-0.8449,-1.035,-1.059,-1.0907,-1.1573,-1.1479,-1.1422,-1.1422,-1.2308,-1.2793,-1.2793,-1.38,-1.4367,-1.4565,-1.4358,-1.4367,-1.4565,-1.4411,-1.4307,-1.4326,-1.4842,-1.475,-1.4264,-1.4842,-1.4674,-1.4217,-1.5648,-1.6295,-1.6414,-1.6574,-1.6609,-1.647,-1.5712,-1.4865,-1.4105,-1.3478,-1.2641,-1.1822,-1.1813,-1.1529,-1.1159,-1.0864,-1.0609,-1.0511,-1.1051,-1.0806,-1.0609,-1.1394,-1.124,-1.0839,-1.0622,-1.0824,-1.0726,-0.9776,-0.9437,-0.923,-0.9023,-0.8845,-0.8703,-0.8703,-0.8703,0.0,-0.8429,-0.8811,-0.9405,-1.0193,-1.1495,-1.2434,-1.2802,-1.3586,-1.3504,-1.2207,-1.169,-1.0951,-0.9797,-0.9467,-0.9412,-0.9632,-1.0317,-1.057,-1.0399,0.0,0.0,0.0,0.0,0.0,0.0,0.0,0.0,0.0,0.0,0.0,0.0,0.0,0.0,0.0,0.0,0.0,0.0,0.0,0.0,0.0,0.0,-0.5453,-0.5639,-0.6049,-0.6178,-0.5673,-0.5712,-0.6306,-0.7554,-0.8099,-0.909,-1.0816,-1.0937,-1.1126,-1.1564,-1.1479,-1.1529,-1.1894,-1.22,-1.2544,-1.2935,-1.3761,-1.4189,-1.4244,-1.4189,-1.4189,-1.4235,-1.4024,-1.3806,-1.3618,-1.3987,-1.3798,-1.325,-1.3861,-1.4014,-1.3951,-1.4586,-1.5142,-1.5566,-1.5718,-1.6005,-1.6238,-1.583,-1.5055,-1.4113,-1.3318,-1.2587,-1.2029,-1.1874,-1.1633,-1.1375,-1.1075,-1.0726,-1.0462,-1.0806,-1.0659,-1.056,-1.1149,-1.1231,-1.1019,-1.0668,-1.0642,-1.0543,-1.0009,-0.9705,-0.9399,-0.9051,-0.8845,-0.8703,-0.8703,0.0,0.0,-0.8429,-0.8811,-0.9405,-1.0193,-1.1395,-1.2508,-1.3327,-1.3472,-1.3224,0.0,-1.122,-1.0497,-1.057,-0.9744,-0.9796,-1.0887,-1.1668,-1.2237,0.0,0.0,0.0,0.0,0.0,0.0,0.0,0.0,0.0,0.0,0.0,0.0,0.0,0.0,0.0,0.0,0.0,0.0,0.0,0.0,0.0,0.0,-0.4764,-0.5424,-0.5496,-0.5828,-0.5928,-0.5655,-0.6048,-0.6807,-0.7878,-0.8754,-0.9712,-1.1008,-1.1258,-1.1431,-1.1573,-1.138,-1.146,-1.1906,-1.2012,-1.2336,-1.2888,-1.3779,-1.4235,-1.4235,-1.4364,-1.4299,-1.4041,-1.3915,-1.3541,0.0,-1.35,-1.3363,-1.2853,-1.3573,-1.3824,0.0,0.0,0.0,0.0,0.0,-1.6294,-1.6364,-1.6172,-1.5367,-1.4256,-1.3624,-1.2869,-1.2235,-1.2029,-1.1716,-1.1387,-1.1337,-1.0848,-1.0511,-1.1002,-1.0757,-1.056,-1.1198,-1.1279,-1.1067,-1.0715,-1.0596,-1.0474,-1.0086,0.0,0.0,-0.9415,-0.9056,-0.8807,-0.8713,-0.8703,-0.8683,0.0,-0.8942,-0.957,-1.056,-1.1542,-1.251,-1.3477,-1.3472,0.0,0.0,0.0,-1.1519,-1.1797,-1.0837,0.0,0.0,0.0,0.0,0.0,0.0,0.0,0.0,-1.4826,-1.539,0.0,0.0,0.0,0.0,0.0,0.0,0.0,0.0,0.0,0.0,0.0,0.0,0.0,0.0,0.0,0.0,-0.4693,-0.5405,-0.5508,-0.5615,-0.5688,-0.5768,-0.6491,-0.7296,-0.8064,-0.9183,-1.0272,-1.1126,-1.1564,-1.1766,-1.1663,0.0,0.0,0.0,0.0,-1.2083,-1.2729,-1.3729,-1.425,-1.4342,-1.4604,-1.4473,-1.3875,-1.3809,-1.3416,-1.2758,-1.3261,-1.3244,-1.2914,-1.3785,-1.3949,-1.3697,-1.4442,-1.5371,-1.6397,-1.7079,-1.6971,0.0,0.0,0.0,0.0,-1.428,-1.3396,-1.243,-1.2316,-1.182,-1.1325,-1.1521,-1.1021,-1.0609,-1.1394,-1.1002,-1.06,-1.1414,-1.1384,-1.1075,-1.0677,-1.0603,-1.0489,-1.0076,-0.9833,-0.9708,-0.9866,-0.9407,-0.8949,-0.8846,-0.8814,0.0,-0.902,-0.9256,-0.9829,-1.1057,0.0,0.0,-1.3444,-1.3522,-1.3482,-1.3383,-1.3356,-1.3264,-1.3122,-1.2532,-1.2711,-1.3782,-1.4318,-1.4906,-1.5577,-1.7013,-1.7666,-1.7436,-1.6123,-1.6224,0.0,0.0,0.0,0.0,0.0,0.0,0.0,0.0,0.0,0.0,0.0,0.0,0.0,0.0,0.0,-0.374,-0.4264,-0.4864,-0.5508,-0.5589,-0.5743,-0.6144,-0.675,-0.7585,-0.8723,-0.9572,-1.0539,-1.1764,-1.1873,-1.1954,-1.2135,-1.1421,0.0,-1.1854,-1.1492,-1.1588,-1.2367,-1.3029,-1.3596,-1.4006,0.0,0.0,-1.3875,-1.3276,-1.2824,-1.2437,-1.2807,-1.3062,-1.3276,-1.3557,-1.4052,-1.4644,-1.4852,-1.5385,-1.6013,-1.6353,-1.608,-1.5704,-1.6051,-1.5364,-1.4299,-1.463,-1.4058,-1.3121,-1.2911,-1.2341,0.0,-1.1554,-1.0983,-1.0609,-1.1394,-1.1002,-1.0614,-1.1423,-1.1452,-1.1175,-1.0684,-1.0647,-1.0566,-1.0091,-1.0037,-1.0033,-0.9907,-0.9407,-0.9145,-0.9608,-0.9394,-0.9231,-0.9395,-0.9684,-1.0176,-1.0929,-1.1536,-1.2363,-1.3623,-1.3345,-1.3333,-1.3831,-1.4008,-1.3817,-1.3203,-1.4629,-1.5115,-1.4525,-1.5772,-1.6475,-1.661,-1.7542,-1.8423,-1.9124,-1.8801,-1.8754,0.0,0.0,0.0,0.0,0.0,0.0,0.0,0.0,0.0,0.0,0.0,-0.249,-0.295,0.0,-0.301,-0.3427,-0.388,-0.4388,-0.5077,-0.5436,-0.5767,-0.6311,-0.7153,-0.8082,-0.8929,-1.0031,-1.1087,-1.2073,-1.2024,-1.1998,-1.2086,-1.1209,-1.1035,-1.17,-1.13,-1.1456,-1.2115,-1.2677,-1.3004,-1.3095,-1.3087,-1.3021,-1.2832,-1.2495,-1.2041,-1.1512,-1.2239,-1.2718,-1.2994,-1.3861,-1.4557,-1.5125,-1.5084,-1.5365,-1.5843,-1.5942,-1.5727,-1.5444,-1.5689,-1.5254,-1.4593,-1.4492,-1.403,-1.3361,-1.2823,-1.2152,-1.1508,-1.1409,-1.0879,-1.0511,-1.1051,-1.1002,-1.0925,-1.1308,-1.1462,-1.1421,-1.1035,-1.0889,-1.0702,-1.0248,-1.0389,-1.0501,-1.026,-1.0056,-0.9943,-0.9894,-0.9707,-0.9732,-1.016,-1.0284,-1.0674,-1.1507,-1.1862,-1.2383,-1.3236,-1.3216,-1.3297,-1.3672,-1.3967,-1.4263,-1.4643,-1.5294,-1.5713,-1.5913,-1.6446,-1.6935,-1.7382,-1.8035,-1.8598,-1.9225,-1.9426,-1.9434,0.0,0.0,0.0,0.0,0.0,0.0,0.0,0.0,-0.2418,-0.2953,-0.2809,-0.2803,-0.337,-0.3114,-0.2872,-0.3157,-0.3515,-0.3953,-0.4595,-0.5098,-0.5641,-0.6218,-0.7446,-0.8487,-0.9041,-1.0448,-1.1585,-1.2226,-1.2126,-1.2004,-1.1877,-1.094,-1.0804,-1.1494,-1.1184,-1.133,-1.2011,-1.2421,-1.2574,-1.2406,-1.2531,-1.2332,-1.1873,-1.1777,-1.143,-1.1024,-1.215,-1.2718,-1.288,-1.4299,-1.5075,-1.5429,-1.5247,-1.5427,-1.5801,-1.5659,-1.5423,-1.5164,-1.5221,-1.5,-1.4647,-1.4277,-1.3793,-1.322,-1.2505,-1.1756,-1.11,-1.1002,-1.0609,-1.0314,-1.0659,-1.0904,-1.1091,-1.1239,-1.1512,-1.1614,-1.139,-1.1162,-1.0907,-1.0498,-1.0783,-1.0995,-1.0759,-1.0897,-1.0858,-1.0247,-1.0162,-1.0417,-1.1006,-1.1071,-1.1382,-1.2205,-1.2349,-1.2507,-1.2752,-1.3027,-1.3251,-1.34,-1.378,-1.4624,-1.5973,-1.5607,-1.5865,-1.694,-1.6826,-1.709,-1.7828,-1.8291,-1.8712,-1.9141,-1.9545,-1.9385,0.2199,0.0103,-0.1678,-0.207,-0.2482,-0.2908,0.0,0.0,-0.3773,-0.4203,-0.4013,-0.379,-0.4043,-0.3612,-0.3204,-0.3109,-0.3144,-0.3428,-0.4061,-0.4583,-0.5115,-0.5714,-0.7119,-0.8376,-0.9287,-1.0585,-1.1594,-1.199,-1.2275,-1.2214,-1.1689,-1.0998,-1.0972,-1.1629,-1.1073,-1.1157,-1.197,-1.206,-1.2278,-1.262,-1.2072,-1.1935,-1.2133,-1.1728,-1.1663,-1.1903,-1.3305,-1.3852,-1.3886,-1.4533,-1.5103,-1.545,-1.5119,-1.544,-1.5987,-1.5281,-1.4695,-1.4291,-1.4523,-1.4202,-1.3735,-1.4129,-1.3648,-1.2846,-1.2515,-1.1657,-1.0757,-1.0265,-0.992,-0.9821,-1.0314,-1.0462,-1.0663,-1.1403,-1.1636,-1.1629,-1.1431,-1.1191,-1.0992,-1.0907,-1.1102,-1.1327,-1.1457,-1.1615,-1.1544,-1.1041,-1.1118,-1.1353,-1.1761,-1.2093,-1.2364,-1.2525,-1.266,-1.2711,-1.2614,-1.2775,-1.3007,-1.3367,-1.4004,-1.4782,-1.5806,-1.6366,-1.6661,-1.6562,-1.7048,-1.7409,-1.7634,-1.8206,-1.9154,-2.038,-2.0352,-1.9477,-0.023,-0.1527,0.0,0.0,-0.3578,-0.3609,-0.3545,-0.3917,-0.4395,-0.4796,-0.4578,-0.4457,-0.479,-0.394,-0.3274,0.0,-0.3213,-0.3332,-0.4023,-0.4623,-0.5162,-0.5727,-0.7118,-0.8249,-0.8973,-1.0285,-1.1321,-1.1778,-1.184,-1.1813,-1.1768,-1.1354,-1.1358,-1.1934,-1.1934,-1.2102,-1.2447,-1.2763,-1.2864,-1.2763,-1.2578,-1.2455,-1.241,-1.2405,-1.2762,-1.3451,-1.3829,-1.4187,-1.4433,-1.4457,-1.4821,-1.5412,-1.5432,-1.5803,-1.6198,-1.5296,-1.4833,-1.4614,-1.4385,-1.4245,-1.4143,-1.4046,-1.3536,-1.277,-1.1731,-1.1011,-1.0413,-0.9715,-0.9575,-0.9723,-1.0265,-1.0413,-1.0592,-1.1424,-1.1519,-1.1512,-1.1738,-1.1485,-1.1176,-1.1155,-1.1462,-1.1657,-1.1577,-1.1924,-1.204,-1.1515,-1.1515,-1.1709,-1.2153,-1.2431,-1.2729,-1.2979,-1.2884,-1.2692,-1.249,-1.2858,-1.315,-1.3321,-1.4201,-1.4997,-1.5708,-1.6152,-1.6458,-1.6629,-1.6871,-1.7208,-1.7728,-1.7786,-1.8374,-1.9394,-1.9492,-1.9052,-0.214,0.0,0.0,-0.4287,-0.4395,-0.4255,-0.3993,-0.4309,-0.4767,-0.5237,-0.5093,-0.4947,-0.5316,-0.4306,-0.3484,-0.3584,-0.3329,-0.3293,-0.3868,-0.4608,-0.5296,-0.575,-0.7122,-0.8159,-0.8615,-0.9822,-1.0841,-1.1308,-1.1251,-1.1233,-1.1391,-1.1418,-1.1507,-1.188,-1.2431,-1.2743,-1.2809,-1.3273,-1.3346,-1.3034,-1.3154,-1.3137,-1.3001,-1.3397,-1.3984,-1.4563,-1.4409,-1.4538,-1.4804,-1.448,-1.4725,-1.5363,-1.5678,-1.6106,-1.6348,-1.5619,-1.53,-1.5132,-1.4559,-1.4352,-1.4307,-1.3751,-1.3133,-1.2382,-1.1203,-1.0547,-1.0128,-0.9385,-0.9278,-0.9525,-1.0019,-1.0173,-1.0422,-1.1308,-1.1405,-1.145,-1.1906,-1.1639,-1.1338,-1.146,-1.1784,-1.1951,-1.183,-1.2209,-1.2386,-1.1967,-1.1877,-1.2004,-1.2334,-1.2522,-1.2732,-1.3029,-1.276,-1.2526,-1.2357,-1.2857,-1.3247,-1.3439,-1.4279,-1.5073,-1.5715,-1.5998,-1.6333,-1.6666,-1.6776,-1.7063,-1.7614,-1.7441,-1.7781,-1.8568,-1.8804,-1.8799,0.0,0.0,-0.5293,-0.4718,-0.476,-0.4937,-0.5005,-0.4837,-0.4837,-0.5776,-0.5582,-0.533,-0.5475,-0.471,-0.3984,-0.3635,-0.3329,-0.3221,-0.3458,-0.4411,-0.5206,-0.5463,-0.6995,-0.8088,0.0,-0.9275,-1.006,-1.0383,-1.0517,-1.0502,-1.0229,-1.0938,-1.1376,-1.1444,-1.1963,-1.2491,-1.2863,-1.3096,-1.3326,-1.3544,-1.3551,-1.3687,-1.3874,-1.4618,-1.4946,-1.4973,-1.5099,-1.5035,-1.4866,-1.4741,-1.4969,-1.5508,-1.5824,-1.6198,-1.6571,-1.6392,-1.6107,-1.5692,-1.4941,-1.4349,-1.3793,-1.3194,-1.2287,-1.1414,-1.1152,-1.0534,-0.9793,-0.9333,-0.9031,-0.8924,-0.9476,-0.9689,-0.9979,-1.0991,-1.1323,-1.1447,-1.167,-1.1477,-1.1435,-1.1897,-1.1995,-1.2155,-1.2589,-1.2581,-1.2473,-1.25,-1.2374,-1.2291,-1.2291,-1.2362,-1.2431,-1.2417,-1.2183,-1.206,-1.2201,-1.26,-1.3098,-1.3746,-1.4252,-1.4927,-1.5872,-1.6362,-1.6583,-1.6618,-1.6853,-1.7055,-1.7206,-1.7289,-1.7776,-1.8671,-1.8699,-1.889,0.0,0.0,-0.4878,-0.5196,-0.5339,-0.5403,-0.5238,-0.5436,-0.5784,-0.6168,-0.6056,-0.5822,-0.5859,-0.5054,-0.4236,-0.3934,-0.365,-0.3535,-0.3584,-0.463,-0.5487,-0.5582,-0.7035,0.0,0.0,0.0,0.0,-0.9736,-1.0003,-1.0235,-1.037,-1.0798,-1.112,-1.1351,-1.2016,-1.2504,-1.2657,-1.3664,-1.4129,-1.4122,-1.453,-1.4893,-1.5268,-1.5686,-1.6087,-1.6291,-1.587,-1.5611,-1.5545,-1.4869,-1.4849,-1.5338,-1.5668,-1.6159,-1.6614,-1.6859,-1.6903,-1.6704,-1.5727,-1.5009,-1.4492,-1.3919,-1.2989,-1.1959,-1.0819,-1.0331,-0.9995,-0.9176,-0.8874,-0.9023,-0.992,-0.9723,-0.9697,-1.1115,-1.1275,-1.1162,-1.1602,-1.1477,-1.1435,-1.1909,-1.1995,-1.2109,-1.2565,-1.2589,-1.2525,-1.2351,-1.2298,-1.2409,-1.2722,-1.2767,-1.2818,-1.2847,-1.2797,-1.2782,-1.2863,-1.3231,-1.3662,-1.4174,-1.4623,-1.5073,-1.5494,-1.5887,-1.6053,-1.595,-1.6438,-1.6707,-1.6747,-1.6586,-1.6859,-1.7585,-1.7798,-1.8061,-0.4754,-0.5043,-0.4998,-0.5657,-0.5804,-0.566,-0.549,-0.5839,-0.6192,-0.6196,-0.6167,-0.6005,-0.5873,-0.5141,-0.4468,-0.4175,-0.4024,-0.3995,-0.4092,-0.5078,-0.5867,-0.6124,-0.7261,0.0,0.0,0.0,0.0,-0.924,-0.9305,-0.9596,-1.0078,-1.0449,-1.0745,-1.0962,-1.1625,-1.2139,-1.2501,-1.3453,-1.4044,-1.4267,-1.4918,-1.5434,-1.5799,-1.6058,-1.6409,-1.6822,-1.6263,-1.6002,-1.5848,-1.5234,-1.5082,-1.5224,-1.5688,-1.6029,-1.6308,-1.671,-1.6902,-1.6851,-1.6251,-1.5715,-1.5119,-1.45,-1.3552,-1.2415,-1.1046,-1.0535,-1.0247,-0.9411,-0.9069,-0.9195,-1.0252,-0.992,-0.9738,-1.1259,-1.1288,-1.1171,-1.1719,-1.1704,-1.1728,-1.2168,-1.2312,-1.2394,-1.2735,-1.2696,-1.2515,-1.2323,-1.2286,-1.2349,-1.257,-1.2622,-1.2622,-1.2659,-1.2774,-1.2906,-1.3093,-1.3615,-1.4158,-1.4639,-1.5146,-1.5461,-1.5428,-1.5784,-1.5865,-1.5648,-1.6245,-1.6543,-1.653,-1.6587,-1.6717,-1.6889,-1.7404,-1.7702,-0.5006,-0.538,-0.5601,-0.6149,-0.6058,-0.5814,-0.5886,-0.5969,-0.6049,-0.5921,-0.5907,-0.5875,0.0,0.0,-0.4538,-0.4407,-0.4448,-0.4598,-0.5006,-0.5639,-0.6305,0.0,0.0,0.0,0.0,0.0,0.0,-0.8951,0.0,-0.8635,-0.9219,-0.9787,-1.0133,-1.0266,-1.0754,-1.1492,-1.2481,-1.2558,-1.3096,-1.408,-1.4745,-1.5254,-1.555,-1.5803,-1.6148,-1.649,-1.6344,-1.6135,-1.5946,-1.5927,-1.567,-1.5281,-1.5728,-1.5768,-1.5684,-1.6117,-1.6171,-1.6161,-1.653,-1.6262,-1.5625,-1.4833,-1.3837,-1.2758,-1.1797,-1.1105,-1.0551,-1.0043,-0.957,-0.9432,-1.0466,-1.0224,-1.0036,-1.1315,-1.1438,-1.1462,-1.2002,-1.2094,-1.2232,-1.2689,-1.2825,-1.2893,-1.3093,-1.2839,-1.2593,-1.2546,-1.2376,-1.2151,-1.1938,-1.1938,-1.191,-1.1922,-1.2139,-1.2461,-1.2886,-1.3677,-1.4423,-1.5143,-1.57,-1.591,-1.5689,-1.5959,-1.597,-1.5676,-1.6304,-1.66,-1.6639,-1.7221,-1.7178,-1.6698,-1.751,-1.776,-0.524,-0.5487,-0.5503,-0.5937,-0.5903,-0.5719,-0.5414,-0.5474,-0.5567,-0.5382,-0.5305,-0.5236,0.0,0.0,0.0,-0.4585,-0.481,0.0,-0.4814,-0.5609,0.0,-0.643,0.0,-0.7949,-0.7713,-0.7878,0.0,0.0,-0.8343,-0.8565,-0.8858,-0.9348,-0.9689,-0.9816,-1.03,-1.0631,-1.0893,-1.21,-1.3132,-1.3976,-1.4753,-1.5106,-1.5254,-1.6159,-1.6653,-1.6698,-1.691,-1.6997,-1.6917,-1.6589,-1.6291,-1.6022,-1.5924,-1.5961,-1.595,-1.5746,-1.5888,-1.6079,-1.6035,-1.5614,-1.5074,-1.4722,-1.4051,-1.3163,-1.1887,-1.1456,-1.123,-1.0178,-0.9649,-0.9633,-1.0492,-1.0328,-1.0201,-1.1306,-1.1559,-1.1609,-1.2045,-1.2232,-1.2415,-1.2734,-1.3099,-1.3359,-1.3378,-1.3133,-1.2978,-1.2961,-1.2723,-1.2558,-1.2445,-1.2298,-1.2206,-1.2272,-1.2312,-1.2601,-1.3225,-1.3505,-1.397,-1.4832,-1.5084,-1.5178,-1.5107,-1.5579,-1.5747,-1.5499,-1.6417,-1.6907,-1.6917,-1.7025,-1.7216,-1.7525,-1.7552,-1.7673,-0.5279,-0.5423,-0.5446,-0.5845,-0.5694,-0.5386,-0.4826,-0.5068,-0.5211,-0.4614,-0.4786,0.0,0.0,0.0,0.0,0.0,0.0,0.0,-0.5483,-0.609,-0.6614,0.0,-0.7236,0.0,-0.753,-0.7509,-0.7535,0.0,-0.8007,-0.8383,-0.8652,-0.9154,-0.9438,-0.9508,-0.973,-1.0025,-1.0393,-1.1851,-1.2956,-1.3686,-1.4423,-1.4962,-1.5246,-1.5821,-1.6205,-1.6245,0.0,-1.6481,-1.6353,-1.6019,-1.5754,-1.5538,-1.5342,-1.5272,-1.5268,-1.5028,-1.5019,-1.5038,-1.4928,-1.4598,-1.4235,-1.4325,-1.3964,-1.3188,-1.1822,-1.1406,-1.1177,-1.0341,-0.9967,-0.9927,-1.0422,-1.051,-1.0591,-1.1321,-1.1737,-1.2119,-1.2337,-1.2654,-1.3048,-1.3555,-1.3773,-1.3872,-1.401,-1.3697,-1.3436,-1.329,-1.3157,-1.3056,-1.2985,-1.2681,-1.2457,-1.2388,-1.2412,-1.2553,-1.293,-1.3055,-1.3513,-1.4377,-1.4558,-1.4612,-1.4572,-1.501,-1.5078,-1.4824,-1.5863,-1.6426,-1.6562,-1.7091,-1.749,-1.7737,-1.7933,-1.8004,-0.5164,-0.5325,-0.5446,-0.5767,-0.5446,-0.4899,-0.4174,-0.4634,-0.487,-0.377,0.0,-0.4938,-0.4574,-0.5131,-0.5621,-0.5388,0.0,-0.6553,-0.6403,-0.6667,-0.6983,-0.7126,-0.7078,-0.7151,-0.7258,-0.7112,-0.7019,-0.7015,-0.7652,-0.8222,-0.8512,-0.8946,-0.923,-0.9302,-0.9374,-0.9735,-1.0455,-1.1735,-1.2677,-1.3325,-1.4118,-1.4735,-1.5241,-1.532,-1.5477,-1.5623,0.0,0.0,-1.531,-1.5071,-1.4881,-1.468,-1.4518,-1.4377,-1.4241,-1.4172,-1.3929,-1.3568,-1.3593,-1.3442,-1.3237,-1.3758,-1.3631,-1.3004,-1.1701,-1.114,-1.0898,-1.0498,-1.0322,-1.0233,-1.0396,-1.0721,-1.1036,-1.1243,-1.1968,-1.2648,-1.2708,-1.3207,-1.3827,-1.4558,-1.4504,-1.4425,-1.4608,-1.4243,-1.3795,-1.3568,-1.3532,-1.3519,-1.3519,-1.3097,-1.2721,-1.2463,-1.2463,-1.2443,-1.2369,-1.2551,-1.2942,-1.3605,-1.3897,-1.4027,-1.3997,-1.4221,-1.4269,-1.4079,-1.5014,-1.5682,-1.6034,-1.7108,-1.7723,-1.7851,-1.8419,-1.8557,-0.5178,-0.5325,-0.5432,-0.5433,-0.5046,-0.4478,-0.3653,-0.3838,0.0,0.0,0.0,-0.4371,-0.4409,-0.4808,0.0,-0.5487,0.0,0.0,0.0,0.0,-0.6755,0.0,0.0,0.0,0.0,0.0,0.0,0.0,0.0,0.0,-0.7783,-0.8435,-0.8946,-0.9302,-0.959,-1.0023,-1.0527,-1.1626,-1.2567,-1.3325,-1.4118,-1.4594,-1.4823,-1.551,-1.5753,-1.5604,0.0,0.0,-1.5799,-1.5463,-1.5272,-1.5212,-1.4706,-1.4465,-1.4377,-1.3681,-1.3153,-1.2814,-1.3085,-1.2937,-1.2609,-1.2974,-1.3073,-1.2788,-1.1647,-1.1388,-1.1322,-1.0584,-1.0358,-1.0396,-1.0375,-1.0721,-1.1036,-1.1243,-1.1968,-1.2689,-1.2905,-1.3609,-1.429,-1.4641,-1.4655,-1.4546,-1.4411,-1.4108,-1.3892,-1.3833,-1.3652,-1.3519,-1.3519,-1.3435,-1.3195,-1.279,-1.2744,-1.254,-1.2119,-1.2094,-1.2182,-1.2224,-1.2434,-1.2655,-1.2863,-1.3252,-1.3618,-1.4035,-1.4573,-1.5293,-1.6223,-1.6713,-1.742,-1.8436,-1.8564,-1.8875,-0.5361,-0.5395,-0.5311,-0.5277,-0.468,-0.3844,-0.3124,0.0,0.0,0.0,0.0,-0.4227,-0.4418,0.0,0.0,0.0,0.0,0.0,0.0,0.0,0.0,0.0,0.0,0.0,0.0,0.0,0.0,0.0,0.0,0.0,-0.757,-0.8295,-0.8801,-0.9018,-0.9374,-0.9879,-1.0455,-1.139,-1.2466,-1.3611,-1.4403,-1.4947,-1.5302,-1.5615,-1.5593,-1.5375,0.0,0.0,-1.5098,-1.4664,-1.4402,-1.4279,-1.3896,-1.356,-1.3347,-1.2976,-1.2538,-1.2221,-1.2278,-1.2152,-1.1888,-1.1833,-1.2147,-1.2254,-1.1287,-1.1059,-1.1055,-1.0645,-1.0566,-1.0512,-1.0357,-1.0824,-1.1291,-1.1229,-1.1996,-1.3028,-1.3653,-1.4071,-1.4496,-1.5182,-1.5097,-1.4912,-1.4923,-1.458,-1.4253,-1.4111,-1.4002,-1.3871,-1.3743,-1.3696,-1.3403,-1.2666,-1.246,-1.2088,-1.1427,-1.1451,-1.1463,-1.129,-1.1554,-1.1767,-1.1912,-1.2311,-1.2683,-1.3003,-1.3653,-1.4319,-1.5125,-1.5972,-1.6903,-1.7863,-1.8109,-1.8706,-0.5371,-0.5304,-0.5174,-0.5157,-0.4296,-0.3339,-0.2806,-0.2892,0.0,0.0,-0.3434,-0.4186,-0.4425,0.0,0.0,0.0,0.0,0.0,0.0,0.0,0.0,0.0,0.0,0.0,0.0,0.0,0.0,0.0,0.0,0.0,0.0,-0.8145,-0.8512,-0.8729,-0.9085,-0.9663,-1.0455,-1.1247,-1.2323,-1.3761,-1.4546,-1.5229,-1.5788,-1.5581,-1.5306,-1.5091,0.0,0.0,0.0,-1.3611,-1.3291,-1.31,-1.2704,-1.2379,-1.2149,-1.1904,-1.1703,-1.1558,-1.1405,-1.1339,-1.1191,-1.0964,-1.1316,-1.1687,-1.0982,-1.0777,-1.0802,-1.0761,-1.0753,-1.069,-1.0374,-1.097,-1.1618,-1.1564,-1.2367,-1.336,-1.4428,-1.4532,-1.4733,-1.5656,-1.5469,-1.5233,-1.5319,-1.4972,-1.4618,-1.4352,-1.4244,-1.416,-1.3931,-1.3786,-1.3408,-1.2541,-1.2221,-1.1781,-1.1009,-1.0974,-1.0902,-1.0603,-1.0941,-1.1131,-1.1238,-1.1605,-1.1894,-1.2078,-1.2781,-1.3379,-1.3986,-1.513,-1.6139,-1.7001,-1.7504,-1.8293,-0.4868,-0.5056,-0.5083,-0.4766,-0.4041,-0.3286,-0.2756,0.0,0.0,-0.259,-0.3355,-0.4174,-0.4371,-0.4862,0.0,0.0,0.0,0.0,0.0,0.0,0.0,0.0,0.0,0.0,0.0,0.0,0.0,0.0,0.0,0.0,0.0,-0.7638,-0.8,-0.8657,-0.9085,-0.9663,-1.0455,-1.1247,-1.218,-1.3325,-1.4189,-1.4806,-1.538,-1.517,-1.4968,-1.4691,0.0,0.0,0.0,-1.302,-1.2707,-1.2485,-1.1542,-1.1294,-1.1306,-1.0407,-1.0299,-1.0686,-1.0642,-1.0654,-1.0739,-1.0739,-1.0954,-1.1257,-1.1045,-1.1053,-1.1143,-1.0988,-1.094,-1.0851,-1.0406,-1.097,-1.1837,-1.2881,-1.3186,-1.3609,-1.4739,-1.4931,-1.5064,-1.5459,-1.5491,-1.5321,-1.4849,-1.4752,-1.4594,-1.434,-1.4112,-1.3931,-1.3883,-1.3497,-1.3019,-1.2688,-1.2471,-1.2109,-1.1494,-1.1029,-1.0612,-1.0283,-1.0375,-1.0597,-1.0918,-1.1275,-1.1668,-1.2078,-1.2355,-1.3003,-1.3986,-1.4147,-1.506,-1.6763,-1.6816,-1.7591,-0.4431,-0.4539,-0.4521,-0.4599,-0.3872,-0.3004,-0.2684,0.0,-0.2677,-0.2579,-0.3395,-0.4159,-0.4417,-0.475,-0.505,0.0,0.0,0.0,0.0,0.0,0.0,0.0,0.0,0.0,0.0,0.0,0.0,0.0,0.0,0.0,0.0,-0.7289,-0.7711,-0.8,-0.8657,-0.9302,-1.0095,-1.0887,-1.1958,-1.3325,-1.372,-1.4333,-1.5023,-1.4633,-1.4446,-1.4366,0.0,0.0,0.0,-1.2339,-1.1972,-1.1744,-1.127,-1.0942,-1.0664,-1.0247,-1.0268,-1.051,-1.0426,-1.0465,-1.0567,-1.0567,-1.0753,-1.0961,-1.0862,-1.0995,-1.1183,-1.1021,-1.1028,-1.0932,-1.0634,-1.1164,-1.2026,-1.3012,-1.3342,-1.3782,-1.4778,-1.4993,-1.5114,-1.5447,-1.5503,-1.5439,-1.5221,-1.492,-1.4677,-1.4576,-1.4309,-1.4065,-1.3929,-1.3702,-1.3323,-1.2699,-1.2314,-1.1873,-1.1271,-1.0941,-1.0617,-1.0322,-1.0599,-1.0759,-1.0762,-1.11,-1.1437,-1.1857,-1.2045,-1.2634,-1.3504,-1.4051,-1.488,-1.599,-1.6705,-1.7607,-0.3953,-0.4039,-0.4114,-0.4264,-0.3574,-0.2753,0.0,-0.2544,-0.2571,-0.2568,-0.3411,-0.423,-0.4445,-0.4692,-0.4903,0.0,0.0,-0.5443,0.0,0.0,0.0,0.0,0.0,0.0,0.0,0.0,0.0,0.0,0.0,0.0,0.0,0.0,-0.728,-0.7526,-0.8059,-0.8868,-0.9879,-1.0413,-1.1395,-1.2892,-1.3146,-1.3547,-1.4241,-1.3849,-1.3704,0.0,0.0,0.0,0.0,-1.1728,-1.1305,-1.115,-1.0794,-1.045,-1.0126,-0.9943,-1.0056,-1.0278,-1.0205,-1.0236,-1.0323,-1.0383,-1.0516,-1.0688,-1.0694,-1.1028,-1.1354,-1.1175,-1.111,-1.0996,-1.0921,-1.1376,-1.2105,-1.2936,-1.346,-1.3943,-1.4668,-1.4954,-1.5078,-1.544,-1.5488,-1.5491,-1.5407,-1.5083,-1.4779,-1.457,-1.4341,-1.4093,-1.3766,-1.3685,-1.3369,-1.2621,-1.2181,-1.1667,-1.1124,-1.0884,-1.0696,-1.059,-1.0875,-1.0988,-1.085,-1.1257,-1.1562,-1.1845,-1.2216,-1.2738,-1.3416,-1.4224,-1.4963,-1.5642,-1.6743,-1.7741,-0.344,-0.3826,-0.4125,-0.372,-0.3119,-0.2565,0.0,-0.2464,-0.2491,-0.2495,-0.3461,-0.4303,-0.4404,-0.474,-0.5018,-0.5018,0.0,0.0,0.0,0.0,0.0,0.0,0.0,0.0,0.0,0.0,0.0,0.0,0.0,0.0,0.0,0.0,-0.6555,-0.7358,-0.7517,-0.8362,-0.9879,-0.9752,-1.0466,-1.203,-1.2212,-1.2544,-1.2887,-1.2707,0.0,0.0,0.0,0.0,0.0,-1.1207,-1.092,-1.0707,-0.9926,-0.9711,-0.9761,-0.9159,-0.9275,-0.9822,-0.9822,-0.9822,-0.9876,-1.0179,-1.0301,-1.0361,-1.0725,-1.1277,-1.1736,-1.1549,-1.124,-1.1077,-1.1301,-1.1638,-1.2084,-1.2842,-1.3517,-1.4092,-1.4423,-1.4757,-1.5075,-1.5421,-1.5482,-1.5441,-1.517,-1.5123,-1.4873,-1.431,-1.4032,-1.3788,-1.347,-1.3162,-1.2862,-1.2443,-1.21,-1.1693,-1.1247,-1.0916,-1.0769,-1.0956,-1.1126,-1.1216,-1.1216,-1.1695,-1.2116,-1.2294,-1.2895,-1.3477,-1.3986,-1.4648,-1.5328,-1.5896,-1.6805,-1.7857,-0.1761,-0.2052,-0.2333,-0.2572,-0.2322,-0.205,-0.2316,-0.246,-0.2556,-0.2783,-0.3612,-0.4303,-0.4404,-0.4501,-0.4772,-0.5256,-0.5231,0.0,0.0,0.0,0.0,0.0,0.0,0.0,0.0,0.0,0.0,0.0,0.0,0.0,0.0,0.0,-0.6118,-0.6906,-0.7424,-0.8072,-0.8846,-0.9299,-1.0189,-1.1441,-1.1351,-1.1682,-1.2293,-1.2126,0.0,0.0,0.0,0.0,0.0,-1.0727,-1.0446,-1.0232,-0.9896,-0.9619,-0.9457,-0.9214,-0.9457,-0.9822,-1.0065,-1.0308,-1.049,-1.0611,-1.0664,-1.0725,-1.1027,-1.1277,-1.1487,-1.149,-1.133,-1.12,-1.1543,-1.1989,-1.245,-1.3142,-1.3742,-1.43,-1.4641,-1.4947,-1.5211,-1.5142,-1.5304,-1.5321,-1.5068,-1.4884,-1.4646,-1.425,-1.4113,-1.3859,-1.3241,-1.3292,-1.3053,-1.2289,-1.2129,-1.1877,-1.1599,-1.1247,-1.1135,-1.1321,-1.1378,-1.1585,-1.1938,-1.2251,-1.2691,-1.3179,-1.3972,-1.457,-1.4886,-1.5813,-1.6825,-1.7812,-1.8589,-1.9374,-0.0866,-0.1279,-0.161,-0.2009,-0.1849,-0.176,-0.2201,-0.2414,-0.2588,-0.3006,-0.3743,-0.4346,-0.4482,-0.4579,-0.4767,-0.5229,-0.5215,0.0,0.0,0.0,0.0,0.0,0.0,0.0,0.0,0.0,0.0,0.0,0.0,0.0,0.0,0.0,-0.5539,-0.621,-0.6962,-0.7761,-0.8596,-0.8974,-0.9704,-1.0734,-1.0522,-1.0719,-1.1114,0.0,0.0,0.0,0.0,0.0,0.0,-1.0203,-1.0062,-0.997,-0.9883,-0.97,-0.9518,-0.9518,-0.964,-0.9883,-1.0301,-1.0543,-1.0664,-1.0906,-1.0906,-1.0846,-1.1027,-1.1329,-1.1599,-1.1549,-1.1419,-1.1388,-1.1736,-1.2171,-1.2637,-1.3172,-1.3908,-1.4476,-1.4569,-1.488,-1.5097,-1.5033,-1.5064,-1.4995,-1.4741,-1.4609,-1.4406,-1.4005,-1.3837,-1.3497,-1.2955,-1.2805,-1.2572,-1.196,-1.196,-1.1962,-1.1812,-1.152,-1.1378,-1.1492,-1.1622,-1.1872,-1.2162,-1.2591,-1.3163,-1.3796,-1.4591,-1.5262,-1.5749,-1.6948,-1.8097,-1.921,-1.9776,-2.0358,0.0,-0.1196,-0.1612,-0.1784,-0.1611,-0.1556,-0.2074,-0.2289,0.0,-0.3194,-0.3834,-0.4364,-0.4647,-0.4862,-0.4995,-0.5083,-0.5033,0.0,0.0,0.0,0.0,0.0,0.0,0.0,0.0,0.0,0.0,0.0,0.0,0.0,0.0,0.0,0.0,-0.5312,-0.6199,-0.7321,-0.8719,-0.8676,-0.9024,-0.9838,-0.9716,-0.9661,-0.9728,0.0,0.0,0.0,0.0,0.0,0.0,-0.9736,-0.9784,-0.9957,-0.9829,-0.9829,-0.9822,-0.9836,-0.9829,-0.9943,-1.0604,-1.0611,-1.049,-1.1088,-1.1088,-1.0846,-1.0785,-1.145,-1.202,-1.1624,-1.1516,-1.1575,-1.193,-1.2283,-1.2631,-1.3099,-1.3923,-1.4529,-1.4298,-1.4604,-1.4893,-1.4922,-1.4691,-1.4461,-1.4169,-1.4265,-1.4203,-1.3639,-1.322,-1.285,-1.2449,-1.194,-1.1562,-1.1457,-1.171,-1.191,-1.202,-1.1736,-1.1541,-1.1557,-1.1866,-1.2052,-1.2069,-1.2867,-1.3617,-1.4199,-1.511,-1.5917,-1.6806,-1.8155,-1.9313,-2.0234,-2.0604,-2.1067,0.0031,0.0,-0.0486,-0.0742,-0.083,-0.1025,0.0,-0.2296,-0.2672,-0.3382,-0.3883,-0.4359,-0.4762,-0.4678,-0.4829,-0.5702,0.0,0.0,0.0,0.0,0.0,0.0,0.0,0.0,0.0,0.0,0.0,0.0,0.0,0.0,0.0,0.0,0.0,-0.4906,-0.5413,-0.6242,-0.7458,-0.7699,-0.8287,-0.9297,-0.9267,-0.9389,-0.9728,0.0,0.0,0.0,0.0,0.0,-0.933,-0.955,-0.9578,-0.9516,-0.9841,-0.9862,-0.9836,-0.9889,-1.0046,-1.0247,-1.0671,-1.0914,-1.1088,-1.1269,-1.1269,-1.1148,-1.0906,-1.1148,-1.1503,-1.1403,-1.1523,-1.1831,-1.2423,-1.2594,-1.2791,-1.3435,-1.4112,-1.447,-1.4064,-1.4439,-1.4641,-1.411,-1.393,-1.3837,-1.3563,-1.3487,-1.3305,-1.2981,-1.2726,-1.2372,-1.1787,-1.1549,-1.1282,-1.1149,-1.1662,-1.2119,-1.2207,-1.2275,-1.2208,-1.2109,-1.2199,-1.243,-1.2817,-1.3444,-1.4157,-1.5016,-1.6973,-1.849,-1.9489,-2.0401,-2.1058,-2.1581,-2.1907,-2.2274,0.023,-0.0062,-0.0401,-0.0658,-0.0948,-0.1359,-0.2159,-0.2536,-0.293,-0.3591,0.0,0.0,-0.4776,0.0,0.0,0.0,0.0,0.0,0.0,0.0,0.0,0.0,0.0,0.0,0.0,0.0,0.0,0.0,0.0,0.0,0.0,0.0,0.0,0.0,-0.4574,-0.558,-0.6982,-0.7517,-0.8051,-0.8651,-0.8784,-0.8961,-0.9108,0.0,0.0,0.0,0.0,0.0,-0.8857,-0.905,-0.9131,-0.9199,-0.9647,-0.9751,-0.9691,-0.9895,-1.0135,-1.0368,-1.0664,-1.1141,-1.1622,-1.155,-1.1453,-1.1317,-1.0936,-1.1148,-1.1511,-1.1329,-1.1526,-1.1957,-1.2543,-1.2724,-1.2844,-1.3564,-1.4052,-1.4321,-1.4074,-1.4248,-1.4266,-1.3738,-1.3462,-1.3182,-1.2792,-1.2802,-1.2777,-1.2447,-1.2261,-1.2031,-1.1673,-1.1413,-1.1187,-1.1217,-1.1798,-1.2294,-1.2656,-1.2897,-1.2846,-1.2548,-1.2441,-1.2594,-1.2886,-1.3604,-1.4636,-1.5846,-1.7755,-1.9171,-2.0202,-2.0986,-2.1577,-2.1991,-2.2522,-2.2921,0.0114,-0.035,-0.0837,-0.1,-0.1457,-0.1978,-0.2551,0.0,0.0,0.0,0.0,0.0,0.0,-0.5108,0.0,0.0,0.0,0.0,0.0,0.0,0.0,0.0,0.0,0.0,0.0,0.0,0.0,0.0,0.0,0.0,0.0,0.0,0.0,0.0,-0.3878,-0.5012,-0.661,-0.7507,-0.7989,-0.8123,-0.844,-0.8513,-0.8416,-0.8378,0.0,0.0,0.0,0.0,-0.8398,-0.8477,-0.8676,-0.8994,-0.9456,-0.9574,-0.9555,-0.9859,-1.0135,-1.0368,-1.0664,-1.1264,-1.1819,-1.1704,-1.1524,-1.1379,-1.0898,-1.1277,-1.1752,-1.1458,-1.1587,-1.201,-1.2543,-1.2664,-1.2784,-1.3444,-1.3873,-1.4102,-1.4073,-1.4014,-1.3794,-1.3412,-1.3056,-1.2595,-1.2037,-1.2233,-1.2303,-1.1957,-1.1777,-1.1647,-1.1671,-1.1325,-1.1185,-1.1487,-1.2004,-1.2545,-1.2976,-1.3444,-1.3439,-1.3012,-1.2836,-1.2888,-1.3076,-1.3975,-1.5269,-1.6936,-1.8161,-1.9255,-2.0112,-2.0984,-2.1654,-2.2124,-2.278,-2.3252,-0.04,-0.0933,-0.1275,-0.1185,-0.1623,-0.2206,-0.2818,-0.3179,0.0,0.0,0.0,0.0,0.0,0.0,0.0,0.0,0.0,0.0,0.0,0.0,0.0,0.0,0.0,0.0,0.0,0.0,0.0,0.0,0.0,0.0,0.0,0.0,0.0,0.0,0.0,-0.4412,-0.5062,-0.644,-0.7455,-0.8123,-0.8294,-0.8437,-0.841,-0.8204,-0.8163,0.0,0.0,-0.7977,-0.8027,-0.8381,-0.8551,-0.8619,-0.9425,-0.9588,-0.9555,-0.9859,-1.0135,-1.0368,-1.0664,-1.0958,-1.1132,-1.1027,-1.1027,-1.1071,-1.0837,-1.1277,-1.1812,-1.1752,-1.1933,-1.2242,-1.2595,-1.2475,-1.2475,-1.3144,-1.3504,-1.3706,-1.3535,-1.3489,-1.3326,-1.2868,-1.2443,-1.2113,-1.1705,-1.1661,-1.1577,-1.1216,-1.1033,-1.1027,-1.1171,-1.1147,-1.1213,-1.1554,-1.2186,-1.2661,-1.2841,-1.3447,-1.3822,-1.3722,-1.3683,-1.4112,-1.5134,-1.5605,-1.6773,-1.8593,-1.9472,-2.0235,-2.1015,-2.179,-2.2327,-2.2794,-2.3175,-2.368,-0.0422,-0.0977,-0.1503,-0.1877,-0.2352,-0.2887,-0.3334,-0.3647,0.0,0.0,0.0,0.0,0.0,0.0,0.0,0.0,0.0,0.0,0.0,0.0,0.0,0.0,0.0,0.0,0.0,0.0,0.0,0.0,0.0,0.0,0.0,0.0,0.0,0.0,0.0,0.0,-0.4643,-0.6137,-0.7094,-0.7611,-0.8086,-0.8285,-0.822,-0.8169,-0.8081,0.0,0.0,-0.7872,-0.7944,-0.8189,-0.8301,-0.8375,-0.8943,-0.9235,-0.9293,-0.9711,-1.0066,-1.0315,-1.0584,-1.0845,-1.115,-1.0979,-1.1162,-1.1378,-1.0928,-1.1511,-1.2234,-1.2062,-1.2234,-1.2535,-1.2904,-1.2844,-1.2844,-1.3144,-1.3324,-1.3356,-1.3095,-1.2926,-1.2759,-1.232,-1.1925,-1.1512,-1.1166,-1.1028,-1.0909,-1.0732,-1.0823,-1.1011,-1.1279,-1.1446,-1.1741,-1.2097,-1.2458,-1.2849,-1.3228,-1.3569,-1.3791,-1.3884,-1.398,-1.4432,-1.5273,-1.6001,-1.6906,-1.8072,-1.9192,-2.011,-2.0596,-2.1704,-2.2475,-2.2892,-2.3445,-2.3886,-0.0402,-0.0973,-0.1583,-0.2385,-0.2938,-0.3402,-0.3811,-0.4095,-0.4243,0.0,0.0,0.0,0.0,0.0,0.0,0.0,0.0,0.0,0.0,0.0,0.0,0.0,0.0,0.0,0.0,0.0,0.0,0.0,0.0,0.0,0.0,0.0,0.0,0.0,0.0,0.0,-0.453,-0.593,-0.6842,-0.7207,-0.7758,-0.8081,-0.8114,-0.8086,-0.8021,-0.7872,-0.7872,-0.7872,-0.7883,-0.8065,-0.8114,-0.8125,-0.8534,-0.8872,-0.9119,-0.9557,-0.9883,-1.0207,-1.0362,-1.0649,-1.1009,-1.0849,-1.1158,-1.1547,-1.0951,-1.1631,-1.2535,-1.2294,-1.2414,-1.2784,-1.3084,-1.3144,-1.3084,-1.3204,-1.3204,-1.3144,-1.2964,-1.261,-1.2268,-1.209,-1.1561,-1.1012,-1.0699,-1.0576,-1.0501,-1.0477,-1.0757,-1.1113,-1.1463,-1.182,-1.2185,-1.2621,-1.2791,-1.3103,-1.3621,-1.3663,-1.372,-1.4024,-1.4245,-1.4684,-1.527,-1.6058,-1.6808,-1.752,-1.8757,-1.9632,-2.0064,-2.1368,-2.2198,-2.248,-2.3187,-2.3712,-0.0524,-0.1043,-0.1588,-0.2385,-0.2938,-0.3459,-0.4106,-0.4279,-0.4344,-0.4606,0.0,0.0,0.0,0.0,0.0,0.0,0.0,0.0,0.0,0.0,0.0,0.0,0.0,0.0,0.0,0.0,0.0,0.0,0.0,0.0,0.0,0.0,0.0,0.0,0.0,0.0,-0.4391,-0.5748,-0.6705,-0.7207,-0.7491,-0.7812,-0.8114,-0.7999,-0.7877,-0.7872,-0.7872,-0.7872,-0.7883,-0.8065,-0.8114,-0.8119,-0.8438,-0.8859,-0.9287,-0.9342,-0.9518,-0.9842,-0.9998,-1.0148,-1.032,-1.0163,-1.0594,-1.1162,-1.089,-1.145,-1.2234,-1.2234,-1.2414,-1.2784,-1.3084,-1.2964,-1.2784,-1.3144,-1.3204,-1.3264,-1.3564,-1.2895,-1.2217,-1.2217,-1.1426,-1.0739,-1.0526,-1.05,-1.044,-1.0335,-1.063,-1.1011,-1.1543,-1.1831,-1.2167,-1.2734,-1.297,-1.3284,-1.3814,-1.3739,-1.384,-1.4352,-1.4867,-1.548,-1.6244,-1.6342,-1.7006,-1.8293,-1.8649,-1.9184,-1.9906,-2.0935,-2.1486,-2.1474,-2.2082,-2.2827,-0.0562,-0.1086,-0.1672,-0.2578,-0.3117,-0.3575,-0.4206,-0.4471,-0.463,-0.49,-0.4979,0.0,0.0,0.0,0.0,0.0,0.0,0.0,0.0,0.0,0.0,0.0,0.0,0.0,0.0,0.0,0.0,0.0,0.0,0.0,0.0,0.0,0.0,0.0,0.0,0.0,0.0,-0.5589,-0.6202,-0.6519,-0.7158,-0.7634,-0.7999,-0.7955,-0.7872,-0.7872,-0.7872,-0.7872,-0.7883,-0.8065,-0.807,-0.8004,-0.8312,-0.8591,-0.8793,-0.9153,-0.9455,-0.9738,-1.0078,-1.029,-1.0399,-1.0344,-1.0813,-1.131,-1.1046,-1.1616,-1.2334,-1.2268,-1.2414,-1.2715,-1.2844,-1.2784,-1.2655,-1.2595,-1.2595,-1.2543,-1.2552,-1.2092,-1.1739,-1.1739,-1.1217,-1.0808,-1.0685,-1.0503,-1.0342,-1.0333,-1.0678,-1.1013,-1.12,-1.1816,-1.2339,-1.2645,-1.3126,-1.3465,-1.3678,-1.3788,-1.401,-1.4456,-1.4868,-1.5292,-1.5718,-1.6269,-1.6867,-1.7298,-1.7945,-1.8492,-1.8997,-2.0172,-2.0945,-2.145,-2.21,-2.2683,-0.0635,-0.1218,-0.1919,-0.2673,-0.325,-0.3798,-0.438,-0.4618,-0.4794,-0.5092,-0.4969,-0.4755,0.0,0.0,0.0,0.0,0.0,0.0,0.0,0.0,0.0,0.0,0.0,0.0,0.0,0.0,0.0,0.0,0.0,0.0,0.0,0.0,0.0,0.0,0.0,0.0,0.0,-0.5439,-0.5886,-0.612,-0.676,-0.721,-0.7575,-0.7795,-0.7872,-0.775,-0.775,-0.7872,-0.8066,-0.8026,-0.801,-0.7933,-0.8183,-0.8305,-0.8433,-0.8897,-0.9286,-0.9643,-1.0092,-1.0348,-1.0493,-1.0493,-1.0948,-1.1463,-1.1073,-1.1657,-1.2303,-1.2112,-1.2242,-1.2423,-1.2423,-1.2543,-1.2672,-1.2492,-1.2448,-1.2405,-1.2289,-1.1966,-1.1744,-1.1619,-1.1147,-1.0806,-1.0721,-1.0536,-1.0365,-1.0412,-1.0695,-1.0953,-1.1018,-1.1578,-1.2125,-1.2616,-1.3112,-1.3504,-1.3574,-1.3739,-1.3911,-1.4231,-1.4562,-1.4916,-1.5192,-1.5821,-1.631,-1.6523,-1.7157,-1.7693,-1.8188,-1.9459,-2.0347,-2.0857,-2.1545,-2.2191,-0.0792,-0.1524,-0.237,-0.273,0.0,0.0,-0.4589,-0.4712,-0.4814,-0.512,-0.469,-0.41,-0.3512,0.0,0.0,0.0,0.0,0.0,0.0,0.0,0.0,0.0,0.0,0.0,0.0,0.0,0.0,0.0,0.0,0.0,0.0,0.0,0.0,0.0,0.0,0.0,0.0,-0.5291,-0.576,-0.6116,-0.6208,-0.6497,-0.6806,-0.7575,-0.7689,-0.7388,-0.7383,-0.7755,-0.8366,-0.8055,-0.7872,-0.7872,-0.7872,-0.8122,-0.8384,-0.8505,-0.8994,-0.9662,-0.9877,-1.0234,-1.0493,-1.0493,-1.0948,-1.1399,-1.108,-1.1472,-1.1934,-1.1825,-1.1776,-1.1776,-1.1776,-1.2251,-1.2716,-1.2909,-1.2961,-1.3075,-1.326,-1.2746,-1.2186,-1.187,-1.1236,-1.0778,-1.0531,-1.0493,-1.0548,-1.0697,-1.0717,-1.0857,-1.1188,-1.1188,-1.1636,-1.2711,-1.2974,-1.3224,-1.3574,-1.3644,-1.3644,-1.3574,-1.3986,-1.442,-1.4972,-1.4981,-1.5408,-1.6178,-1.6377,-1.6913,-1.7704,-1.8896,-1.9488,-1.9499,-2.0302,-2.1254,-0.0984,-0.1557,0.0,-0.3092,0.0,0.0,0.0,-0.4834,0.0,0.0,-0.4334,-0.3688,0.0,0.0,0.0,0.0,0.0,0.0,0.0,0.0,0.0,0.0,0.0,0.0,0.0,0.0,0.0,0.0,0.0,0.0,0.0,0.0,0.0,0.0,0.0,0.0,0.0,0.0,-0.5631,-0.5912,-0.6235,-0.6593,-0.6801,-0.7015,-0.7069,-0.7016,-0.7004,-0.7135,-0.7327,-0.751,-0.7689,-0.7877,-0.8026,-0.8127,-0.8205,-0.8511,-0.8805,-0.9221,-0.9818,-1.0104,-1.0326,-1.0584,-1.0913,-1.125,-1.0933,-1.1154,-1.1471,-1.118,-1.1095,-1.1095,-1.1095,-1.1492,-1.1902,-1.2205,-1.2383,-1.249,-1.2603,-1.233,-1.2034,-1.197,-1.1682,-1.1454,-1.1432,-1.1439,-1.1461,-1.1439,-1.1644,-1.1888,-1.2074,-1.1782,-1.179,-1.2487,-1.3114,-1.3488,-1.3558,-1.3999,-1.4052,-1.362,-1.3977,-1.4342,-1.4617,-1.4839,-1.5123,-1.5337,-1.539,-1.5845,-1.6629,-1.7116,-1.8061,-1.9314,-1.9708,-2.0347,-0.1523,-0.2147,0.0,-0.368,-0.401,-0.4249,-0.4442,0.0,0.0,0.0,0.0,0.0,0.0,0.0,0.0,0.0,0.0,0.0,0.0,0.0,0.0,0.0,0.0,0.0,0.0,0.0,0.0,0.0,0.0,0.0,0.0,0.0,0.0,0.0,0.0,0.0,0.0,0.0,0.0,-0.5656,-0.6204,-0.6489,-0.65,-0.6778,-0.6851,-0.6649,-0.6933,-0.6962,-0.6898,-0.7266,-0.747,-0.7578,-0.7837,-0.7896,-0.8017,-0.8456,-0.8739,-0.8944,-0.9449,-0.9918,-1.0259,-1.0459,-1.085,-1.1125,-1.0884,-1.1038,-1.1225,-1.0882,-1.0785,-1.0785,-1.0785,-1.1087,-1.1518,-1.183,-1.2154,-1.2426,-1.2499,-1.2347,-1.2177,-1.204,-1.1885,-1.18,-1.1665,-1.168,-1.1702,-1.1769,-1.2035,-1.2178,-1.2277,-1.2155,-1.2172,-1.2549,-1.3107,-1.3432,-1.3425,-1.3863,-1.3974,-1.3522,-1.3871,-1.4144,-1.4261,-1.4474,-1.4546,-1.4546,-1.4688,-1.5123,-1.5683,-1.6243,-1.7092,-1.8268,-1.879,-1.9468,-0.2212,0.0,0.0,-0.4279,-0.419,0.0,0.0,0.0,0.0,0.0,0.0,0.0,0.0,0.0,0.0,0.0,0.0,0.0,0.0,0.0,0.0,0.0,0.0,0.0,0.0,0.0,0.0,0.0,0.0,0.0,0.0,0.0,0.0,0.0,0.0,0.0,0.0,0.0,0.0,0.0,-0.6139,-0.6294,-0.6075,-0.6749,-0.6798,-0.6368,-0.7028,-0.7143,-0.6903,-0.7214,-0.7212,-0.705,-0.7514,-0.7717,-0.7755,-0.8258,-0.8628,-0.8901,-0.9076,-0.9522,-1.0127,-1.0127,-1.0585,-1.1059,-1.0749,-1.0912,-1.1162,-1.0821,-1.0732,-1.0732,-1.0732,-1.0969,-1.134,-1.1609,-1.2131,-1.2629,-1.2783,-1.2678,-1.2491,-1.2089,-1.19,-1.1789,-1.163,-1.1588,-1.1648,-1.1886,-1.1977,-1.2082,-1.2097,-1.2321,-1.2594,-1.272,-1.2967,-1.3136,-1.3149,-1.3494,-1.3624,-1.3401,-1.3788,-1.3904,-1.3833,-1.3833,-1.3904,-1.3975,-1.4332,-1.4697,-1.4981,-1.5937,-1.6503,-1.6812,-1.7734,-1.87,-0.1998,-0.2707,0.0,0.0,0.0,0.0,0.0,0.0,0.0,0.0,0.0,0.0,0.0,0.0,0.0,0.0,0.0,0.0,0.0,0.0,0.0,0.0,0.0,0.0,0.0,0.0,0.0,0.0,0.0,0.0,0.0,0.0,0.0,0.0,0.0,0.0,-0.4815,-0.5262,-0.5819,0.0,-0.6349,-0.6415,-0.6532,-0.6521,-0.657,-0.6568,-0.657,-0.6714,-0.6908,-0.6735,-0.6844,-0.7065,-0.7937,-0.8086,-0.7932,-0.8701,-0.8817,-0.8684,-0.8972,-0.9183,-0.9383,-0.9728,-1.006,-1.0333,-1.0037,-1.0206,-1.0468,-1.0094,-1.0004,-1.0004,-1.0004,-1.0389,-1.0816,-1.0946,-1.1709,-1.2423,-1.258,-1.2588,-1.2523,-1.2258,-1.2202,-1.2234,-1.2339,-1.2371,-1.2426,-1.2545,-1.2512,-1.2533,-1.2604,-1.2527,-1.2499,-1.254,-1.3005,-1.3255,-1.3243,-1.3925,-1.4087,-1.3563,-1.4065,-1.3975,-1.3039,-1.3619,-1.4047,-1.4332,-1.4474,-1.4697,-1.4981,-1.523,-1.5867,-1.6802,-1.6997,-1.7738,0.0,0.0,0.0,0.0,0.0,0.0,0.0,0.0,0.0,0.0,0.0,0.0,0.0,0.0,0.0,0.0,0.0,0.0,0.0,0.0,0.0,0.0,0.0,0.0,0.0,0.0,0.0,0.0,0.0,0.0,0.0,0.0,0.0,0.0,0.0,0.0,-0.4429,-0.4908,-0.5318,-0.5652,-0.5824,-0.5958,-0.612,-0.6049,-0.5972,-0.5894,-0.5734,-0.5794,-0.5986,-0.6197,-0.6324,-0.6506,-0.7497,-0.7918,-0.804,-0.8629,-0.8989,-0.9123,-0.9117,-0.925,-0.9389,-0.9389,-0.9661,-0.9883,-0.967,-0.9691,-0.9786,-0.9503,-0.9394,-0.9396,-0.9518,-0.9814,-1.0218,-1.0686,-1.1543,-1.2245,-1.2433,-1.2427,-1.2418,-1.232,-1.2166,-1.2071,-1.2203,-1.2193,-1.2269,-1.2297,-1.2311,-1.2346,-1.2521,-1.2549,-1.2485,-1.2403,-1.2666,-1.2788,-1.2702,-1.3183,-1.3372,-1.306,-1.3586,-1.365,-1.3003,-1.3571,-1.3904,-1.3904,-1.4118,-1.4403,-1.4768,-1.491,-1.5534,-1.6508,-1.6729,-1.7417,0.0,0.0,-0.2647,0.0,0.0,0.0,0.0,0.0,0.0,0.0,0.0,0.0,0.0,0.0,0.0,0.0,0.0,0.0,0.0,0.0,0.0,0.0,0.0,0.0,0.0,0.0,0.0,0.0,0.0,0.0,0.0,0.0,0.0,0.0,0.0,-0.3887,-0.4005,-0.4561,-0.476,-0.4648,-0.5162,-0.5443,-0.5475,-0.551,-0.5471,-0.5301,-0.5082,-0.4995,-0.5063,-0.5651,-0.5859,-0.5873,-0.7019,-0.771,-0.8256,-0.8656,-0.9189,-0.9661,-0.925,-0.9389,-0.9594,-0.9123,-0.9256,-0.9637,-0.93,-0.9245,-0.9258,-0.9067,-0.8995,-0.8952,-0.9191,-0.9341,-0.9718,-1.0433,-1.1219,-1.1892,-1.2096,-1.2169,-1.2155,-1.2123,-1.1907,-1.1757,-1.1664,-1.1713,-1.1644,-1.1644,-1.1777,-1.1999,-1.2133,-1.2395,-1.2455,-1.2283,-1.2291,-1.2253,-1.2127,-1.2231,-1.2365,-1.2507,-1.2925,-1.3066,-1.2975,-1.3413,-1.35,-1.3286,-1.3745,-1.4189,-1.4474,-1.4759,-1.53,-1.6085,-1.6379,-1.7154,0.0,0.0,0.0,0.0,0.0,0.0,0.0,0.0,0.0,0.0,0.0,0.0,0.0,0.0,0.0,0.0,0.0,0.0,0.0,0.0,0.0,0.0,0.0,0.0,0.0,0.0,0.0,0.0,0.0,0.0,0.0,0.0,-0.2582,-0.2778,-0.3275,0.0,-0.4408,-0.4533,-0.4815,-0.5262,-0.5394,-0.5422,-0.5218,-0.5242,-0.5406,-0.5606,-0.5449,-0.536,-0.5309,-0.5333,-0.5657,-0.6198,-0.7158,-0.7902,-0.859,-0.9328,-0.9594,-0.9661,-0.925,-0.9389,-0.9528,-0.8523,-0.8923,-0.957,-0.877,-0.8915,-0.9334,-0.92,-0.9067,-0.8969,-0.9032,-0.9044,-0.9218,-0.9792,-1.0321,-1.0883,-1.1488,-1.1588,-1.1585,-1.1378,-1.143,-1.1441,-1.1163,-1.1192,-1.1181,-1.0916,-1.1242,-1.155,-1.1571,-1.2113,-1.2455,-1.2283,-1.2395,-1.2477,-1.2455,-1.247,-1.2492,-1.2514,-1.2537,-1.2547,-1.2375,-1.2602,-1.2833,-1.3115,-1.3973,-1.4474,-1.4474,-1.4546,-1.4871,-1.5514,-1.5586,-1.6277,-0.1103,0.0,0.0,0.0,0.0,0.0,0.0,0.0,0.0,0.0,0.0,0.0,0.0,0.0,0.0,0.0,0.0,0.0,0.0,0.0,0.0,0.0,0.0,0.0,0.0,0.0,0.0,0.0,0.0,0.0,0.0,-0.1532,-0.2038,-0.2547,-0.3031,0.0,-0.392,-0.3959,-0.4145,-0.4369,-0.4402,-0.4512,-0.4589,-0.466,-0.492,-0.5251,-0.5165,-0.5118,-0.5128,-0.5601,-0.5925,-0.6263,-0.7172,-0.7922,-0.8656,-0.8989,-0.9328,-0.9661,-0.925,-0.9117,-0.8989,-0.8323,-0.8261,-0.8384,-0.8,-0.807,-0.8269,-0.841,-0.8503,-0.8661,-0.904,-0.9166,-0.9266,-0.9781,-0.9929,-0.9993,-1.0405,-1.1004,-1.1349,-1.1004,-1.0777,-1.0552,-1.0429,-1.0359,-1.0326,-1.0193,-1.0311,-1.0537,-1.0701,-1.0971,-1.1197,-1.1427,-1.1489,-1.1671,-1.1882,-1.1804,-1.179,-1.1875,-1.2006,-1.196,-1.1869,-1.2241,-1.2547,-1.2658,-1.3405,-1.4047,-1.4474,-1.4474,-1.4791,-1.5406,-1.5623,-1.6103,0.0,0.0,0.0,0.0,0.0,0.0,0.0,0.0,0.0,0.0,0.0,0.0,0.0,0.0,0.0,0.0,0.0,0.0,0.0,0.0,0.0,0.0,0.0,0.0,0.0,0.0,0.0,0.0,0.0,0.0,-0.0593,-0.102,-0.1613,-0.2298,-0.2853,-0.3233,-0.3521,-0.3564,-0.353,-0.3474,-0.3658,-0.3862,-0.4141,-0.4223,-0.4618,-0.5089,-0.4988,-0.4872,-0.4947,-0.5664,-0.6118,-0.6391,-0.711,-0.7922,-0.8717,-0.8717,-0.9123,-0.9661,-0.925,-0.8984,-0.879,-0.8256,-0.7989,-0.7856,-0.7727,-0.7668,-0.7666,-0.7994,-0.8177,-0.8344,-0.8852,-0.8916,-0.9004,-0.9364,-0.9282,-0.9204,-0.9643,-1.0432,-1.0904,-1.0405,-0.9954,-0.9633,-0.9502,-0.9396,-0.9262,-0.9128,-0.9262,-0.9399,-0.9588,-0.9779,-1.0058,-1.0403,-1.0665,-1.0966,-1.1248,-1.1217,-1.124,-1.1274,-1.1303,-1.1309,-1.117,-1.1662,-1.1908,-1.1993,-1.2589,-1.3325,-1.4189,-1.4189,-1.455,-1.5191,-1.5552,-1.5912,0.0,0.0,0.0,0.0,0.0,0.0,0.0,0.0,0.0,0.0,0.0,0.0,0.0,0.0,0.0,0.0,0.0,0.0,0.0,0.0,0.0,0.0,0.0,0.0,0.0,0.0,0.0,0.0,0.0,0.0,-0.005,-0.0821,-0.1463,-0.1808,-0.2655,-0.3251,-0.358,-0.3586,-0.3418,-0.3138,-0.376,-0.4134,-0.4195,-0.4269,-0.4817,-0.5734,-0.5147,-0.4872,-0.4947,-0.5157,-0.5857,-0.6772,-0.6973,-0.7851,-0.905,-0.905,-0.9322,-0.9661,-0.925,-0.9322,-0.9461,-0.8462,-0.8523,-0.8917,-0.8256,-0.8318,-0.8512,-0.8579,-0.8497,-0.8339,-0.8073,-0.7943,-0.8008,-0.8013,-0.8101,-0.8451,-0.9461,-0.9721,-0.9649,-0.9232,-0.9166,-0.8911,-0.8312,-0.8189,-0.8056,-0.766,-0.7927,-0.8195,-0.821,-0.8844,-0.9371,-0.9567,-1.0327,-1.0902,-1.0825,-1.1171,-1.126,-1.0921,-1.0616,-1.0409,-1.0272,-1.0265,-1.0549,-1.1234,-1.1521,-1.2252,-1.3325,-1.3325,-1.3761,-1.4563,-1.4919,-1.5488,0.0,0.0,0.0,0.0,0.0,0.0,0.0,0.0,0.0,0.0,0.0,0.0,0.0,0.0,0.0,0.0,0.0,0.0,0.0,0.0,0.0,0.0,0.0,0.0,0.0,0.0,0.0,0.0,0.0,0.0,0.0,-0.0671,-0.1271,-0.1811,-0.2465,-0.3066,-0.3589,-0.3362,-0.3194,-0.3082,-0.316,-0.3282,-0.3508,-0.3624,-0.3976,-0.4519,-0.4814,-0.5114,-0.5559,-0.567,-0.6133,-0.6768,-0.7029,-0.7666,-0.8446,-0.8569,-0.8657,-0.8662,-0.8523,-0.8256,-0.7922,-0.7522,-0.7388,-0.7455,-0.7388,-0.7455,-0.765,-0.8123,-0.8429,-0.8458,-0.8127,-0.7995,-0.7862,-0.7133,-0.696,-0.7121,-0.7522,-0.8123,-0.8656,-0.8456,-0.8051,-0.7675,-0.7472,-0.7215,-0.7029,-0.6954,-0.6979,-0.7165,-0.7511,-0.7824,-0.8372,-0.9187,-0.9801,-1.0324,-1.0754,-1.0796,-1.0783,-1.0887,-1.0517,-1.0245,-1.0193,-1.0327,-1.0429,-1.034,-1.0824,-1.1725,-1.2968,-1.3082,-1.331,-1.3593,-1.4226,-1.4789,0.0,0.0,0.0,0.0,0.0,0.0,0.0,0.0,0.0,0.0,0.0,0.0,0.0,0.0,0.0,0.0,0.0,0.0,0.0,0.0,0.0,0.0,0.0,0.0,0.0,0.0,0.0,0.0,0.0,0.0,0.0,-0.0563,-0.1264,-0.2023,-0.2631,-0.3114,-0.3448,-0.3187,-0.3026,-0.2802,-0.2805,-0.2861,-0.2975,-0.3056,-0.3337,-0.3833,-0.4114,-0.4722,-0.5613,-0.589,-0.6277,-0.6719,-0.6979,-0.7416,-0.7862,-0.803,-0.7995,-0.7922,-0.7922,-0.7588,-0.7187,-0.7187,-0.6987,-0.6857,-0.7121,-0.7187,-0.7254,-0.7794,-0.8056,-0.8123,-0.7789,-0.7655,-0.733,-0.6488,-0.614,-0.6057,-0.5953,-0.674,-0.7522,-0.7388,-0.6853,-0.6413,-0.6365,-0.6009,-0.5755,-0.5862,-0.595,-0.6134,-0.65,-0.686,-0.744,-0.8424,-0.9203,-0.9888,-1.0404,-1.0509,-1.065,-1.0806,-1.0445,-1.0193,-1.0193,-1.0276,-1.0216,-0.9924,-1.0354,-1.108,-1.2094,-1.2414,-1.2781,-1.2998,-1.3743,-1.4361,0.0,0.0,0.0,0.0,0.0,0.0,0.0,0.0,0.0,0.0,0.0,0.0,0.0,0.0,0.0,0.0,0.0,0.0,0.0,0.0,0.0,0.0,0.0,0.0,0.0,0.0,0.0,0.0,0.0,0.0,0.0,-0.06,-0.144,-0.2555,-0.3144,-0.3335,-0.3119,-0.3057,-0.2802,-0.2188,-0.2802,-0.2914,-0.2694,-0.268,-0.3072,-0.3712,-0.3173,-0.3646,-0.4933,-0.5636,-0.6177,-0.6571,-0.6826,-0.7098,-0.7374,-0.7479,-0.7517,-0.7455,-0.7459,-0.7459,-0.7459,-0.7459,-0.7459,-0.7459,-0.7459,-0.7459,-0.7459,-0.7526,-0.7526,-0.7393,-0.7054,-0.6719,-0.6345,-0.6017,-0.564,-0.5268,-0.4928,-0.5633,-0.6183,-0.5912,-0.558,-0.5268,-0.4931,-0.4547,-0.4276,-0.4396,-0.4641,-0.4902,-0.4969,-0.5949,-0.6786,-0.7279,-0.8601,-0.9515,-0.9795,-1.0467,-1.0813,-1.0664,-1.0326,-1.0193,-1.0193,-0.9918,-0.9783,-0.985,-1.0054,-1.026,-1.0599,-1.1358,-1.2047,-1.2811,-1.3392,-1.4131,0.0819,0.0,0.0,0.0,0.0,0.0,0.0,0.0,0.0,0.0,0.0,0.0,0.0,0.0,0.0,0.0,0.0,0.0,0.0,0.0,0.0,0.0,0.0,0.0,0.0,0.0,0.0,0.0,0.0,0.0,0.0,-0.0763,-0.1635,-0.2558,-0.2798,-0.2992,-0.3119,-0.267,-0.2356,-0.2188,-0.2188,-0.213,-0.2077,-0.2053,-0.2205,-0.2417,-0.2755,-0.316,-0.3638,-0.4765,-0.5302,-0.5604,-0.6281,-0.6679,-0.6937,-0.7154,-0.7215,-0.7096,-0.7098,-0.6987,-0.679,-0.679,-0.679,-0.6853,-0.7054,-0.7121,-0.7187,-0.7459,-0.7526,-0.7259,-0.6116,-0.5349,-0.4851,-0.4527,-0.4382,-0.4171,-0.3842,-0.3939,-0.4235,-0.4635,-0.4504,-0.4257,-0.4179,-0.3832,-0.3583,-0.3754,-0.3797,-0.399,-0.454,-0.5143,-0.5953,-0.7139,-0.8045,-0.8807,-0.9381,-0.9563,-0.9692,-0.9927,-0.9588,-0.9383,-0.9383,-0.9446,-0.9402,-0.9303,-0.9703,-0.9999,-1.0309,-1.1151,-1.175,-1.2233,-1.3222,-1.3754,0.1319,0.126,0.1307,0.0,0.0,0.0,0.0,0.0,0.0,0.0,0.0,0.0,0.0,0.0,0.0,0.0,0.0,0.0,0.0,0.0,0.0,0.0,0.0,0.0,0.0,0.0,0.0,0.0,0.0352,0.0317,0.0143,-0.0762,-0.1632,-0.2371,-0.2544,-0.2734,-0.2869,-0.2421,-0.2165,-0.2054,-0.19,-0.1795,-0.1795,-0.1827,-0.1857,-0.1947,-0.2336,-0.2494,-0.2654,-0.3699,-0.4397,-0.487,-0.5415,-0.5804,-0.6118,-0.6438,-0.6523,-0.651,-0.6655,-0.6619,-0.6522,-0.6522,-0.6522,-0.6518,-0.6719,-0.6786,-0.6853,-0.7058,-0.6987,-0.6585,-0.5647,-0.5095,-0.4735,-0.4395,-0.3915,-0.3503,-0.3158,-0.2661,-0.2511,-0.3255,-0.3121,-0.2938,-0.2995,-0.2642,-0.2447,-0.2728,-0.2993,-0.3473,-0.4139,-0.4826,-0.5764,-0.7087,-0.7785,-0.8481,-0.9165,-0.9297,-0.9455,-0.9661,-0.9455,-0.9322,-0.9322,-0.9399,-0.9332,-0.9117,-0.9393,-0.9728,-1.0193,-1.0872,-1.1351,-1.1827,-1.2764,-1.313,0.1992,0.1983,0.2082,0.0,0.0,0.0,0.0,0.0488,0.0,0.0,0.0,0.0,0.0,0.0,0.0,0.0,0.0,0.0,0.0,0.0,0.0,0.0,0.0,0.0,0.0,0.0,0.0,0.0388,0.0697,0.0674,0.0238,-0.0706,-0.1506,-0.2074,-0.2381,-0.2564,-0.2611,-0.2332,-0.2024,-0.1805,-0.178,-0.1795,-0.1795,-0.1827,-0.1857,-0.1888,-0.1918,-0.1948,-0.2038,-0.2654,-0.3453,-0.4321,-0.4505,-0.482,-0.5195,-0.5536,-0.5697,-0.5878,-0.6156,-0.632,-0.6451,-0.6455,-0.6522,-0.6522,-0.6522,-0.6522,-0.6522,-0.6451,-0.6116,-0.5778,-0.5312,-0.5234,-0.5149,-0.4738,-0.3844,-0.3023,-0.2683,-0.1786,-0.1236,-0.1788,-0.1721,-0.1596,-0.1634,-0.1342,-0.1273,-0.1812,-0.2373,-0.3068,-0.3856,-0.4914,-0.5989,-0.6945,-0.7669,-0.8298,-0.8862,-0.9256,-0.9461,-0.9461,-0.9461,-0.9461,-0.9461,-0.9528,-0.9389,-0.905,-0.9117,-0.9522,-1.0127,-1.0591,-1.0992,-1.1528,-1.2194,-1.2406,0.0,0.0,0.0,0.0,0.0,0.0,0.0,0.1751,0.0,0.0,0.0,0.0,0.0,0.0,0.0,0.0,0.0,0.0,0.0,0.0,0.0,0.0,0.0,0.0,0.0,0.0,0.0862,0.0577,0.0308,0.0046,-0.0238,-0.0715,-0.1317,-0.2075,-0.198,-0.2162,-0.2611,-0.2113,-0.1858,-0.1805,-0.178,-0.1795,-0.1795,-0.1827,-0.1857,-0.1888,-0.1918,-0.1948,-0.2038,-0.2162,-0.2777,-0.3702,-0.4268,-0.4654,-0.4991,-0.5238,-0.53,-0.5407,-0.5848,-0.5967,-0.6049,-0.6384,-0.6522,-0.6522,-0.6522,-0.6522,-0.6451,-0.6116,-0.5781,-0.5312,-0.4372,-0.3942,-0.3572,-0.2886,-0.2336,-0.193,-0.1603,-0.103,-0.0476,-0.007,-0.0629,-0.119,-0.1196,-0.1124,-0.134,-0.2076,-0.227,-0.2823,-0.4211,-0.4768,-0.5453,-0.6522,-0.6994,-0.7407,-0.7794,-0.7861,-0.7927,-0.7927,-0.7927,-0.7927,-0.7927,-0.8261,-0.8523,-0.8717,-0.9256,-0.9661,-0.9794,-1.0651,-1.1328,-1.1762,-1.1895,-1.191,0.0,0.0,0.0,0.3838,0.0,0.0,0.0,0.0,0.0,0.0,0.0,0.0,0.0,0.0,0.0,0.0,0.0,0.0,0.0,0.0,0.0,0.0,0.0,0.0,0.0,0.0,0.1071,0.0974,0.035,0.0046,0.0141,-0.0651,-0.1349,-0.1866,-0.1953,-0.2185,-0.2611,-0.2041,-0.1788,-0.1805,-0.178,-0.1804,-0.1819,-0.1849,-0.188,-0.191,-0.194,-0.1963,-0.1977,-0.1977,-0.2407,-0.3022,-0.333,-0.3779,-0.425,-0.45,-0.4762,-0.5027,-0.543,-0.5678,-0.5912,-0.6116,-0.6183,-0.6183,-0.6183,-0.6116,-0.5848,-0.5443,-0.4977,-0.444,-0.3701,-0.3263,-0.2947,-0.252,-0.2062,-0.1594,-0.1239,-0.055,0.0138,0.0693,0.0349,0.0,0.0,-0.014,-0.0562,-0.1344,-0.19,-0.2731,-0.4203,-0.4845,-0.5614,-0.666,-0.6879,-0.7121,-0.7459,-0.7526,-0.7526,-0.7526,-0.7526,-0.7526,-0.7526,-0.7727,-0.7989,-0.8323,-0.8856,-0.9123,-0.9123,-1.0187,-1.0717,-1.079,-1.1115,-1.1056,0.0,0.0,0.0,0.0,0.0,0.3966,0.0,0.0,0.0,0.0,0.0,0.0,0.0,0.0,0.0,0.0,0.0,0.0,0.0,0.0,0.0,0.0,0.0,0.0,0.0,0.0,0.1066,0.116,0.0423,0.0133,0.0551,-0.0633,-0.1423,-0.1718,-0.198,-0.2262,-0.2623,-0.2035,-0.1725,-0.1696,-0.173,-0.1702,-0.1612,-0.1701,-0.1728,-0.1692,-0.184,-0.1915,-0.1915,-0.1977,-0.216,-0.2406,-0.2467,-0.2859,-0.3457,-0.3718,-0.4106,-0.4529,-0.4804,-0.5182,-0.5577,-0.5644,-0.5711,-0.5778,-0.5778,-0.558,-0.5178,-0.4708,-0.4171,-0.3566,-0.3026,-0.2713,-0.2455,-0.2293,-0.178,-0.1177,-0.0882,0.0,0.0833,0.1102,0.1246,0.1255,0.1121,0.0771,0.0281,-0.0491,-0.1538,-0.271,-0.4123,-0.5,-0.5855,-0.6795,-0.692,-0.6987,-0.7259,-0.7326,-0.7326,-0.7326,-0.7326,-0.7326,-0.7326,-0.7393,-0.7522,-0.7856,-0.8323,-0.8456,-0.8323,-0.9365,-0.9829,-0.9794,-1.0319,-1.0373,0.0,0.0,0.0,0.0,0.5722,0.0,0.0,0.0,0.0,0.0,0.0,0.0,0.0,0.0,0.0,0.0,0.0,0.0,0.0,0.0,0.0,0.0,0.0,0.0,0.0,0.0,0.0,0.0685,0.0154,-0.0122,0.009,-0.0811,-0.1463,-0.1802,-0.1964,-0.2251,-0.2617,-0.2072,-0.1637,-0.1368,-0.1356,-0.1205,-0.0979,-0.1009,-0.1024,-0.1026,-0.1411,-0.1544,-0.1606,-0.1853,-0.2038,-0.2099,-0.2406,-0.2718,-0.3098,-0.3139,-0.3252,-0.3371,-0.3738,-0.4121,-0.4507,-0.4839,-0.5178,-0.5446,-0.5446,-0.5178,-0.4705,-0.4104,-0.3631,-0.3026,-0.2019,-0.155,-0.1214,-0.0808,-0.027,0.0271,0.0342,0.0953,0.1493,0.1509,0.1841,0.1841,0.1187,0.0771,0.0281,-0.0491,-0.1526,-0.275,-0.4187,-0.4959,-0.5725,-0.6455,-0.6589,-0.6589,-0.6589,-0.6589,-0.6589,-0.6589,-0.6589,-0.6589,-0.6589,-0.692,-0.7054,-0.7121,-0.7789,-0.7856,-0.7187,-0.8217,-0.9204,-1.018,-1.0187,-1.0452,0.0,0.0,0.0,0.0,0.0,0.0,0.0,0.0,0.491,0.0,0.0,0.0,0.0,0.0,0.0,0.0,0.0,0.0,0.0,0.0,0.0,0.0,0.0,0.0,0.0,0.0,0.0,0.0,0.0,-0.0381,-0.0507,-0.1218,-0.1638,-0.1648,-0.2086,-0.2073,-0.1585,-0.1367,-0.1104,-0.0789,-0.0799,-0.0813,-0.0887,-0.0899,-0.0909,-0.0979,-0.1108,-0.1235,-0.1235,-0.1358,-0.142,-0.142,-0.1605,-0.2097,-0.2719,-0.2761,-0.2931,-0.3103,-0.3345,-0.3658,-0.4037,-0.4372,-0.4305,-0.4101,-0.4101,-0.3768,-0.323,-0.2961,-0.2423,-0.1884,-0.1414,-0.101,-0.0741,-0.0539,-0.0136,0.0272,0.0475,0.1089,0.1702,0.1903,0.2096,0.2095,0.1778,0.1233,0.0616,-0.0137,-0.1363,-0.2646,-0.3867,-0.4656,-0.5245,-0.5781,-0.5852,-0.5852,-0.5852,-0.5852,-0.5852,-0.5852,-0.5647,-0.5443,-0.5242,-0.5781,-0.6049,-0.6049,-0.6786,-0.7093,-0.6898,-0.751,-0.8394,-0.9352,-0.9358,-0.963,0.733,0.0,0.0,0.0,0.0,0.0,0.0,0.0,0.0,0.0,0.0,0.0,0.0,0.0,0.0,0.0,0.0,0.0,0.0,0.0,0.0,0.0,0.0,0.0,0.0,0.0,0.0,0.0,0.0,0.0,-0.0873,-0.1532,-0.1748,-0.1508,-0.2065,-0.1912,-0.0825,-0.0774,-0.0617,-0.0287,-0.029,-0.0413,-0.0664,-0.0666,-0.0672,-0.0741,-0.0803,-0.0864,-0.0864,-0.0988,-0.0988,-0.0988,-0.0988,-0.142,-0.2102,-0.2134,-0.2293,-0.252,-0.2558,-0.2861,-0.323,-0.3633,-0.3365,-0.2894,-0.2894,-0.2558,-0.2154,-0.1952,-0.1481,-0.1077,-0.0875,-0.0606,-0.0337,-0.0269,0.0068,0.0409,0.0742,0.129,0.1841,0.2159,0.2223,0.2223,0.2223,0.1616,0.0943,0.0404,-0.1144,-0.249,-0.3365,-0.4235,-0.4973,-0.5379,-0.5379,-0.5379,-0.5379,-0.5312,-0.5178,-0.5111,-0.4839,-0.4571,-0.43,-0.4839,-0.5111,-0.5114,-0.583,-0.6249,-0.6378,-0.6844,-0.7572,-0.855,-0.8742,-0.9096,0.0,0.0,0.0,0.6675,0.0,0.0,0.0,0.0,0.582,0.0,0.0,0.0,0.0,0.0,0.4411,0.4195,0.0,0.0,0.0,0.0,0.0,0.0,0.0,0.0,0.0,0.0,0.0,0.0,0.0,0.0,-0.0903,-0.1462,-0.1696,-0.1507,-0.188,-0.1733,-0.0896,-0.0569,-0.0287,0.0,0.0,0.0,0.0,0.0,0.0,-0.0062,-0.037,-0.0494,-0.0556,-0.0864,-0.0988,-0.0988,-0.0988,-0.105,-0.1052,-0.1068,-0.1084,-0.1098,-0.1049,-0.133,-0.175,-0.2154,-0.2223,-0.2223,-0.2223,-0.2223,-0.2019,-0.1346,-0.1144,-0.0943,-0.0202,0.0,0.0067,0.0404,0.0741,0.1145,0.1481,0.1886,0.2155,0.2223,0.2223,0.2223,0.2223,0.1616,0.1077,0.1077,-0.0808,-0.2356,-0.269,-0.3967,-0.4973,-0.5379,-0.5379,-0.5379,-0.5379,-0.5044,-0.4705,-0.4367,-0.43,-0.43,-0.43,-0.43,-0.4303,-0.4308,-0.4977,-0.5336,-0.5267,-0.5818,-0.6855,-0.8236,-0.862,-0.9248,0.0,0.0,0.8512,0.7231,0.0,0.0,0.0,0.0,0.0,0.0,0.0,0.0,0.0,0.5624,0.5075,0.4622,0.3942,0.3232,0.0,0.0,0.0,0.0,0.0,0.0,0.0,0.0,0.0,0.0,0.0,0.0,0.0,-0.1617,-0.1609,-0.1164,-0.1394,-0.0921,0.028,0.0399,0.0639,0.095,0.0901,0.0724,0.0302,0.0307,0.0184,0.0,-0.0123,-0.0185,-0.0185,-0.0309,-0.0309,-0.0309,-0.0309,-0.0309,-0.0371,-0.0816,-0.102,-0.1036,-0.1061,-0.1139,-0.1346,-0.1683,-0.1481,-0.1144,-0.1414,-0.1144,-0.0673,-0.0471,-0.0404,-0.0337,-0.0067,0.0135,0.0337,0.0471,0.101,0.1481,0.1548,0.1885,0.2223,0.2223,0.2223,0.2223,0.2223,0.175,0.1279,0.0808,-0.0337,-0.148,-0.2556,-0.3295,-0.3967,-0.4577,-0.444,-0.4372,-0.4372,-0.3967,-0.3564,-0.323,-0.323,-0.3163,-0.2892,-0.3333,-0.3583,-0.3519,-0.4188,-0.4846,-0.5372,-0.5382,-0.6402,-0.8302,-0.8094,-0.8689,0.921,0.9212,0.0,0.0,0.7838,0.0,0.6917,0.0,0.0,0.0,0.0,0.0,0.0,0.0,0.5494,0.5259,0.4467,0.354,0.0,0.0,0.0,0.0,0.0,0.0,0.0,0.0,-0.0316,-0.0333,0.0,0.0,0.0,0.0,-0.1438,-0.0989,-0.0914,-0.0322,0.0889,0.1137,0.1279,0.1365,0.1492,0.1196,0.0659,0.0669,0.0487,0.0121,0.0184,0.0123,0.0,0.0,0.0,0.0,0.0,0.0062,0.0124,-0.044,-0.0637,-0.0647,-0.0663,-0.0735,-0.0735,-0.0941,-0.0606,-0.0202,-0.0471,-0.0067,0.0404,0.0404,0.0404,0.0404,0.0404,0.0539,0.0741,0.0875,0.1279,0.1616,0.175,0.2019,0.2223,0.2223,0.2223,0.2218,0.214,0.187,0.1406,0.0807,0.0,-0.0873,-0.2004,-0.2548,-0.3084,-0.3651,-0.3544,-0.3432,-0.3432,-0.3163,-0.2894,-0.2559,-0.2492,-0.2418,-0.2206,-0.2582,-0.2892,-0.3077,-0.3546,-0.4316,-0.5438,-0.5098,-0.5961,-0.7916,-0.766,-0.8183]}]]